<?xml version='1.0' encoding='UTF-8'?>
<gpx version="1.1" creator="https://www.komoot.de" xmlns="http://www.topografix.com/GPX/1/1" xmlns:xsi="http://www.w3.org/2001/XMLSchema-instance" xsi:schemaLocation="http://www.topografix.com/GPX/1/1 http://www.topografix.com/GPX/1/1/gpx.xsd">
  <metadata>
    <name>85_1050HauenstTuefelschl</name>
    <author>
      <link href="https://www.komoot.de">
        <text>komoot</text>
        <type>text/html</type>
      </link>
    </author>
  </metadata>
  <trk>
    <name>85_1050HauenstTuefelschl</name>
    <trkseg>
      <trkpt lat="47.541400" lon="7.870799">
        <ele>342.400821</ele>
        <time>2021-11-22T08:30:10.531Z</time>
      </trkpt>
      <trkpt lat="47.540933" lon="7.871187">
        <ele>342.400821</ele>
        <time>2021-11-22T08:30:22.628Z</time>
      </trkpt>
      <trkpt lat="47.540894" lon="7.871220">
        <ele>342.400821</ele>
        <time>2021-11-22T08:30:23.760Z</time>
      </trkpt>
      <trkpt lat="47.540693" lon="7.871390">
        <ele>342.400821</ele>
        <time>2021-11-22T08:30:29.155Z</time>
      </trkpt>
      <trkpt lat="47.540463" lon="7.871584">
        <ele>342.731311</ele>
        <time>2021-11-22T08:30:35.332Z</time>
      </trkpt>
      <trkpt lat="47.540265" lon="7.871808">
        <ele>343.196087</ele>
        <time>2021-11-22T08:30:40.815Z</time>
      </trkpt>
      <trkpt lat="47.540216" lon="7.871851">
        <ele>343.302334</ele>
        <time>2021-11-22T08:30:42.275Z</time>
      </trkpt>
      <trkpt lat="47.540034" lon="7.871970">
        <ele>343.673465</ele>
        <time>2021-11-22T08:30:46.843Z</time>
      </trkpt>
      <trkpt lat="47.539930" lon="7.872041">
        <ele>343.887093</ele>
        <time>2021-11-22T08:30:49.417Z</time>
      </trkpt>
      <trkpt lat="47.539841" lon="7.872151">
        <ele>344.103328</ele>
        <time>2021-11-22T08:30:52.436Z</time>
      </trkpt>
      <trkpt lat="47.539678" lon="7.872430">
        <ele>344.568005</ele>
        <time>2021-11-22T08:30:57.943Z</time>
      </trkpt>
      <trkpt lat="47.539222" lon="7.873416">
        <ele>345.930250</ele>
        <time>2021-11-22T08:31:15.484Z</time>
      </trkpt>
      <trkpt lat="47.538278" lon="7.874319">
        <ele>347.081116</ele>
        <time>2021-11-22T08:31:35.139Z</time>
      </trkpt>
      <trkpt lat="47.537716" lon="7.874966">
        <ele>347.974795</ele>
        <time>2021-11-22T08:31:49.114Z</time>
      </trkpt>
      <trkpt lat="47.537261" lon="7.875237">
        <ele>348.867702</ele>
        <time>2021-11-22T08:31:58.631Z</time>
      </trkpt>
      <trkpt lat="47.537182" lon="7.875293">
        <ele>349.027164</ele>
        <time>2021-11-22T08:32:00.619Z</time>
      </trkpt>
      <trkpt lat="47.536921" lon="7.875537">
        <ele>349.589114</ele>
        <time>2021-11-22T08:32:06.586Z</time>
      </trkpt>
      <trkpt lat="47.536757" lon="7.875759">
        <ele>349.993628</ele>
        <time>2021-11-22T08:32:11.188Z</time>
      </trkpt>
      <trkpt lat="47.536632" lon="7.875912">
        <ele>350.288874</ele>
        <time>2021-11-22T08:32:14.356Z</time>
      </trkpt>
      <trkpt lat="47.536444" lon="7.876177">
        <ele>350.761400</ele>
        <time>2021-11-22T08:32:21.318Z</time>
      </trkpt>
      <trkpt lat="47.535851" lon="7.877319">
        <ele>355.149511</ele>
        <time>2021-11-22T08:32:52.632Z</time>
      </trkpt>
      <trkpt lat="47.535770" lon="7.877432">
        <ele>355.671677</ele>
        <time>2021-11-22T08:32:56.811Z</time>
      </trkpt>
      <trkpt lat="47.535635" lon="7.877484">
        <ele>356.326271</ele>
        <time>2021-11-22T08:33:02.679Z</time>
      </trkpt>
      <trkpt lat="47.535551" lon="7.877487">
        <ele>356.720578</ele>
        <time>2021-11-22T08:33:04.587Z</time>
      </trkpt>
      <trkpt lat="47.535322" lon="7.877590">
        <ele>357.843675</ele>
        <time>2021-11-22T08:33:14.572Z</time>
      </trkpt>
      <trkpt lat="47.535088" lon="7.877742">
        <ele>359.042739</ele>
        <time>2021-11-22T08:33:22.423Z</time>
      </trkpt>
      <trkpt lat="47.534855" lon="7.878090">
        <ele>360.704961</ele>
        <time>2021-11-22T08:33:34.365Z</time>
      </trkpt>
      <trkpt lat="47.534778" lon="7.878270">
        <ele>361.437727</ele>
        <time>2021-11-22T08:33:41.690Z</time>
      </trkpt>
      <trkpt lat="47.534825" lon="7.878414">
        <ele>361.987738</ele>
        <time>2021-11-22T08:33:44.278Z</time>
      </trkpt>
      <trkpt lat="47.534946" lon="7.878790">
        <ele>363.420080</ele>
        <time>2021-11-22T08:33:56.354Z</time>
      </trkpt>
      <trkpt lat="47.534908" lon="7.878975">
        <ele>364.085040</ele>
        <time>2021-11-22T08:34:00.365Z</time>
      </trkpt>
      <trkpt lat="47.534664" lon="7.879405">
        <ele>366.016614</ele>
        <time>2021-11-22T08:34:14.606Z</time>
      </trkpt>
      <trkpt lat="47.534616" lon="7.879490">
        <ele>366.397677</ele>
        <time>2021-11-22T08:34:17.406Z</time>
      </trkpt>
      <trkpt lat="47.533892" lon="7.880353">
        <ele>369.757600</ele>
        <time>2021-11-22T08:34:45.071Z</time>
      </trkpt>
      <trkpt lat="47.533606" lon="7.880961">
        <ele>370.988087</ele>
        <time>2021-11-22T08:34:57.472Z</time>
      </trkpt>
      <trkpt lat="47.533374" lon="7.881639">
        <ele>372.250278</ele>
        <time>2021-11-22T08:35:08.533Z</time>
      </trkpt>
      <trkpt lat="47.533014" lon="7.882949">
        <ele>372.908879</ele>
        <time>2021-11-22T08:35:26.448Z</time>
      </trkpt>
      <trkpt lat="47.532859" lon="7.883508">
        <ele>372.914852</ele>
        <time>2021-11-22T08:35:32.326Z</time>
      </trkpt>
      <trkpt lat="47.532713" lon="7.884122">
        <ele>372.921286</ele>
        <time>2021-11-22T08:35:38.024Z</time>
      </trkpt>
      <trkpt lat="47.532699" lon="7.884224">
        <ele>372.922315</ele>
        <time>2021-11-22T08:35:38.978Z</time>
      </trkpt>
      <trkpt lat="47.532670" lon="7.884773">
        <ele>372.647961</ele>
        <time>2021-11-22T08:35:43.471Z</time>
      </trkpt>
      <trkpt lat="47.532658" lon="7.884989">
        <ele>372.425401</ele>
        <time>2021-11-22T08:35:45.083Z</time>
      </trkpt>
      <trkpt lat="47.532650" lon="7.885569">
        <ele>371.829674</ele>
        <time>2021-11-22T08:35:49.586Z</time>
      </trkpt>
      <trkpt lat="47.532505" lon="7.887120">
        <ele>370.221753</ele>
        <time>2021-11-22T08:36:01.537Z</time>
      </trkpt>
      <trkpt lat="47.532288" lon="7.887728">
        <ele>369.466010</ele>
        <time>2021-11-22T08:36:06.714Z</time>
      </trkpt>
      <trkpt lat="47.532011" lon="7.888896">
        <ele>368.101327</ele>
        <time>2021-11-22T08:36:15.943Z</time>
      </trkpt>
      <trkpt lat="47.531843" lon="7.889349">
        <ele>367.531580</ele>
        <time>2021-11-22T08:36:19.980Z</time>
      </trkpt>
      <trkpt lat="47.531560" lon="7.889776">
        <ele>367.230750</ele>
        <time>2021-11-22T08:36:24.920Z</time>
      </trkpt>
      <trkpt lat="47.531265" lon="7.889937">
        <ele>367.201050</ele>
        <time>2021-11-22T08:36:28.888Z</time>
      </trkpt>
      <trkpt lat="47.531076" lon="7.890029">
        <ele>367.182256</ele>
        <time>2021-11-22T08:36:31.730Z</time>
      </trkpt>
      <trkpt lat="47.530606" lon="7.890373">
        <ele>367.132730</ele>
        <time>2021-11-22T08:36:39.578Z</time>
      </trkpt>
      <trkpt lat="47.530322" lon="7.890690">
        <ele>367.099135</ele>
        <time>2021-11-22T08:36:45.572Z</time>
      </trkpt>
      <trkpt lat="47.529972" lon="7.891210">
        <ele>367.418547</ele>
        <time>2021-11-22T08:36:54.734Z</time>
      </trkpt>
      <trkpt lat="47.529714" lon="7.891609">
        <ele>367.805532</ele>
        <time>2021-11-22T08:37:02.067Z</time>
      </trkpt>
      <trkpt lat="47.529695" lon="7.891638">
        <ele>367.833837</ele>
        <time>2021-11-22T08:37:03.054Z</time>
      </trkpt>
      <trkpt lat="47.529235" lon="7.892158">
        <ele>368.434187</ele>
        <time>2021-11-22T08:37:13.987Z</time>
      </trkpt>
      <trkpt lat="47.528331" lon="7.892682">
        <ele>369.611265</ele>
        <time>2021-11-22T08:37:32.690Z</time>
      </trkpt>
      <trkpt lat="47.528003" lon="7.892732">
        <ele>370.071404</ele>
        <time>2021-11-22T08:37:38.396Z</time>
      </trkpt>
      <trkpt lat="47.527498" lon="7.892650">
        <ele>370.780349</ele>
        <time>2021-11-22T08:37:47.869Z</time>
      </trkpt>
      <trkpt lat="47.527011" lon="7.893061">
        <ele>371.664401</ele>
        <time>2021-11-22T08:38:01.061Z</time>
      </trkpt>
      <trkpt lat="47.526709" lon="7.893617">
        <ele>372.996990</ele>
        <time>2021-11-22T08:38:13.593Z</time>
      </trkpt>
      <trkpt lat="47.526504" lon="7.894030">
        <ele>373.954251</ele>
        <time>2021-11-22T08:38:23.774Z</time>
      </trkpt>
      <trkpt lat="47.526451" lon="7.893983">
        <ele>374.125104</ele>
        <time>2021-11-22T08:38:25.163Z</time>
      </trkpt>
      <trkpt lat="47.526401" lon="7.893964">
        <ele>374.267869</ele>
        <time>2021-11-22T08:38:25.981Z</time>
      </trkpt>
      <trkpt lat="47.526335" lon="7.893960">
        <ele>374.450559</ele>
        <time>2021-11-22T08:38:28.055Z</time>
      </trkpt>
      <trkpt lat="47.526257" lon="7.894278">
        <ele>375.082407</ele>
        <time>2021-11-22T08:38:34.266Z</time>
      </trkpt>
      <trkpt lat="47.525725" lon="7.895110">
        <ele>376.915959</ele>
        <time>2021-11-22T08:38:53.349Z</time>
      </trkpt>
      <trkpt lat="47.525603" lon="7.895265">
        <ele>377.187902</ele>
        <time>2021-11-22T08:38:58.965Z</time>
      </trkpt>
      <trkpt lat="47.525631" lon="7.895442">
        <ele>377.395579</ele>
        <time>2021-11-22T08:39:01.814Z</time>
      </trkpt>
      <trkpt lat="47.525631" lon="7.895583">
        <ele>377.556656</ele>
        <time>2021-11-22T08:39:03.006Z</time>
      </trkpt>
      <trkpt lat="47.525622" lon="7.895944">
        <ele>377.969339</ele>
        <time>2021-11-22T08:39:10.441Z</time>
      </trkpt>
      <trkpt lat="47.525590" lon="7.896117">
        <ele>378.174252</ele>
        <time>2021-11-22T08:39:11.994Z</time>
      </trkpt>
      <trkpt lat="47.525518" lon="7.896336">
        <ele>378.452513</ele>
        <time>2021-11-22T08:39:16.802Z</time>
      </trkpt>
      <trkpt lat="47.524834" lon="7.897636">
        <ele>379.467378</ele>
        <time>2021-11-22T08:39:33.725Z</time>
      </trkpt>
      <trkpt lat="47.524617" lon="7.898216">
        <ele>379.459556</ele>
        <time>2021-11-22T08:39:39.898Z</time>
      </trkpt>
      <trkpt lat="47.524360" lon="7.898951">
        <ele>379.449791</ele>
        <time>2021-11-22T08:39:47.439Z</time>
      </trkpt>
      <trkpt lat="47.524309" lon="7.899115">
        <ele>379.447661</ele>
        <time>2021-11-22T08:39:49.353Z</time>
      </trkpt>
      <trkpt lat="47.523896" lon="7.900001">
        <ele>380.280116</ele>
        <time>2021-11-22T08:40:01.276Z</time>
      </trkpt>
      <trkpt lat="47.523861" lon="7.900049">
        <ele>380.350679</ele>
        <time>2021-11-22T08:40:02.255Z</time>
      </trkpt>
      <trkpt lat="47.523890" lon="7.900131">
        <ele>380.443139</ele>
        <time>2021-11-22T08:40:03.210Z</time>
      </trkpt>
      <trkpt lat="47.523945" lon="7.900256">
        <ele>380.592164</ele>
        <time>2021-11-22T08:40:04.801Z</time>
      </trkpt>
      <trkpt lat="47.523989" lon="7.900340">
        <ele>380.698353</ele>
        <time>2021-11-22T08:40:05.851Z</time>
      </trkpt>
      <trkpt lat="47.523957" lon="7.900371">
        <ele>380.754916</ele>
        <time>2021-11-22T08:40:06.556Z</time>
      </trkpt>
      <trkpt lat="47.523878" lon="7.900445">
        <ele>380.893187</ele>
        <time>2021-11-22T08:40:08.673Z</time>
      </trkpt>
      <trkpt lat="47.523739" lon="7.900557">
        <ele>381.127260</ele>
        <time>2021-11-22T08:40:11.604Z</time>
      </trkpt>
      <trkpt lat="47.523648" lon="7.900606">
        <ele>381.270489</ele>
        <time>2021-11-22T08:40:13.783Z</time>
      </trkpt>
      <trkpt lat="47.523620" lon="7.900698">
        <ele>381.371288</ele>
        <time>2021-11-22T08:40:15.746Z</time>
      </trkpt>
      <trkpt lat="47.523567" lon="7.900820">
        <ele>381.516190</ele>
        <time>2021-11-22T08:40:17.843Z</time>
      </trkpt>
      <trkpt lat="47.523433" lon="7.901043">
        <ele>381.814360</ele>
        <time>2021-11-22T08:40:23.087Z</time>
      </trkpt>
      <trkpt lat="47.523340" lon="7.901197">
        <ele>382.020727</ele>
        <time>2021-11-22T08:40:27.130Z</time>
      </trkpt>
      <trkpt lat="47.523036" lon="7.901580">
        <ele>383.491611</ele>
        <time>2021-11-22T08:40:38.826Z</time>
      </trkpt>
      <trkpt lat="47.522688" lon="7.901843">
        <ele>385.075639</ele>
        <time>2021-11-22T08:40:51.135Z</time>
      </trkpt>
      <trkpt lat="47.522554" lon="7.901999">
        <ele>385.766708</ele>
        <time>2021-11-22T08:40:57.422Z</time>
      </trkpt>
      <trkpt lat="47.522260" lon="7.902356">
        <ele>387.308191</ele>
        <time>2021-11-22T08:41:09.581Z</time>
      </trkpt>
      <trkpt lat="47.522132" lon="7.902476">
        <ele>387.922404</ele>
        <time>2021-11-22T08:41:14.106Z</time>
      </trkpt>
      <trkpt lat="47.522065" lon="7.902526">
        <ele>388.226589</ele>
        <time>2021-11-22T08:41:16.478Z</time>
      </trkpt>
      <trkpt lat="47.522038" lon="7.902562">
        <ele>388.373892</ele>
        <time>2021-11-22T08:41:17.967Z</time>
      </trkpt>
      <trkpt lat="47.522013" lon="7.902637">
        <ele>388.602889</ele>
        <time>2021-11-22T08:41:20.026Z</time>
      </trkpt>
      <trkpt lat="47.521792" lon="7.903347">
        <ele>390.424838</ele>
        <time>2021-11-22T08:41:35.950Z</time>
      </trkpt>
      <trkpt lat="47.521492" lon="7.903932">
        <ele>391.959958</ele>
        <time>2021-11-22T08:41:51.600Z</time>
      </trkpt>
      <trkpt lat="47.521370" lon="7.904171">
        <ele>392.586074</ele>
        <time>2021-11-22T08:41:56.996Z</time>
      </trkpt>
      <trkpt lat="47.521297" lon="7.904312">
        <ele>392.957379</ele>
        <time>2021-11-22T08:42:00.186Z</time>
      </trkpt>
      <trkpt lat="47.520989" lon="7.905130">
        <ele>394.914664</ele>
        <time>2021-11-22T08:42:15.395Z</time>
      </trkpt>
      <trkpt lat="47.520678" lon="7.906050">
        <ele>395.457782</ele>
        <time>2021-11-22T08:42:28.874Z</time>
      </trkpt>
      <trkpt lat="47.520566" lon="7.906668">
        <ele>395.772174</ele>
        <time>2021-11-22T08:42:36.202Z</time>
      </trkpt>
      <trkpt lat="47.520528" lon="7.906930">
        <ele>395.903841</ele>
        <time>2021-11-22T08:42:39.462Z</time>
      </trkpt>
      <trkpt lat="47.520515" lon="7.907103">
        <ele>395.989368</ele>
        <time>2021-11-22T08:42:41.260Z</time>
      </trkpt>
      <trkpt lat="47.520506" lon="7.907236">
        <ele>396.055044</ele>
        <time>2021-11-22T08:42:42.336Z</time>
      </trkpt>
      <trkpt lat="47.520551" lon="7.907422">
        <ele>396.152121</ele>
        <time>2021-11-22T08:42:44.746Z</time>
      </trkpt>
      <trkpt lat="47.520733" lon="7.907655">
        <ele>396.283988</ele>
        <time>2021-11-22T08:42:47.933Z</time>
      </trkpt>
      <trkpt lat="47.520738" lon="7.907839">
        <ele>396.303045</ele>
        <time>2021-11-22T08:42:50.076Z</time>
      </trkpt>
      <trkpt lat="47.520493" lon="7.908683">
        <ele>396.398116</ele>
        <time>2021-11-22T08:42:58.255Z</time>
      </trkpt>
      <trkpt lat="47.519997" lon="7.910833">
        <ele>397.091749</ele>
        <time>2021-11-22T08:43:24.202Z</time>
      </trkpt>
      <trkpt lat="47.519891" lon="7.911129">
        <ele>397.313134</ele>
        <time>2021-11-22T08:43:28.792Z</time>
      </trkpt>
      <trkpt lat="47.519720" lon="7.911522">
        <ele>397.622051</ele>
        <time>2021-11-22T08:43:34.876Z</time>
      </trkpt>
      <trkpt lat="47.519421" lon="7.912098">
        <ele>398.102102</ele>
        <time>2021-11-22T08:43:44.442Z</time>
      </trkpt>
      <trkpt lat="47.517688" lon="7.914418">
        <ele>400.559210</ele>
        <time>2021-11-22T08:44:29.021Z</time>
      </trkpt>
      <trkpt lat="47.517281" lon="7.915238">
        <ele>401.218817</ele>
        <time>2021-11-22T08:44:42.035Z</time>
      </trkpt>
      <trkpt lat="47.517140" lon="7.915259">
        <ele>401.354824</ele>
        <time>2021-11-22T08:44:44.535Z</time>
      </trkpt>
      <trkpt lat="47.516806" lon="7.914896">
        <ele>401.752464</ele>
        <time>2021-11-22T08:44:52.110Z</time>
      </trkpt>
      <trkpt lat="47.516748" lon="7.914873">
        <ele>401.810091</ele>
        <time>2021-11-22T08:44:53.281Z</time>
      </trkpt>
      <trkpt lat="47.516662" lon="7.914835">
        <ele>401.896227</ele>
        <time>2021-11-22T08:44:55.073Z</time>
      </trkpt>
      <trkpt lat="47.516626" lon="7.914830">
        <ele>401.930929</ele>
        <time>2021-11-22T08:44:55.768Z</time>
      </trkpt>
      <trkpt lat="47.516590" lon="7.914840">
        <ele>401.966083</ele>
        <time>2021-11-22T08:44:56.363Z</time>
      </trkpt>
      <trkpt lat="47.516569" lon="7.914864">
        <ele>401.990258</ele>
        <time>2021-11-22T08:44:56.898Z</time>
      </trkpt>
      <trkpt lat="47.516544" lon="7.914936">
        <ele>402.039391</ele>
        <time>2021-11-22T08:44:57.745Z</time>
      </trkpt>
      <trkpt lat="47.516391" lon="7.915243">
        <ele>402.270942</ele>
        <time>2021-11-22T08:45:02.537Z</time>
      </trkpt>
      <trkpt lat="47.515014" lon="7.917030">
        <ele>404.071988</ele>
        <time>2021-11-22T08:45:36.314Z</time>
      </trkpt>
      <trkpt lat="47.514635" lon="7.917349">
        <ele>404.649262</ele>
        <time>2021-11-22T08:45:44.432Z</time>
      </trkpt>
      <trkpt lat="47.514561" lon="7.917409">
        <ele>404.760979</ele>
        <time>2021-11-22T08:45:46.324Z</time>
      </trkpt>
      <trkpt lat="47.514255" lon="7.917714">
        <ele>405.249429</ele>
        <time>2021-11-22T08:45:53.793Z</time>
      </trkpt>
      <trkpt lat="47.513378" lon="7.918393">
        <ele>407.042416</ele>
        <time>2021-11-22T08:46:15.520Z</time>
      </trkpt>
      <trkpt lat="47.513160" lon="7.918764">
        <ele>407.841528</ele>
        <time>2021-11-22T08:46:23.021Z</time>
      </trkpt>
      <trkpt lat="47.513058" lon="7.918896">
        <ele>408.167471</ele>
        <time>2021-11-22T08:46:26.177Z</time>
      </trkpt>
      <trkpt lat="47.512938" lon="7.919052">
        <ele>408.551690</ele>
        <time>2021-11-22T08:46:29.956Z</time>
      </trkpt>
      <trkpt lat="47.512664" lon="7.919306">
        <ele>409.329487</ele>
        <time>2021-11-22T08:46:38.179Z</time>
      </trkpt>
      <trkpt lat="47.512255" lon="7.919538">
        <ele>410.419691</ele>
        <time>2021-11-22T08:46:50.105Z</time>
      </trkpt>
      <trkpt lat="47.512085" lon="7.919732">
        <ele>411.153500</ele>
        <time>2021-11-22T08:46:56.313Z</time>
      </trkpt>
      <trkpt lat="47.511964" lon="7.919989">
        <ele>411.876910</ele>
        <time>2021-11-22T08:47:02.793Z</time>
      </trkpt>
      <trkpt lat="47.511883" lon="7.920133">
        <ele>412.309642</ele>
        <time>2021-11-22T08:47:06.807Z</time>
      </trkpt>
      <trkpt lat="47.511632" lon="7.920105">
        <ele>413.170195</ele>
        <time>2021-11-22T08:47:15.788Z</time>
      </trkpt>
      <trkpt lat="47.511375" lon="7.920079">
        <ele>414.050876</ele>
        <time>2021-11-22T08:47:24.283Z</time>
      </trkpt>
      <trkpt lat="47.510704" lon="7.919944">
        <ele>416.365980</ele>
        <time>2021-11-22T08:47:46.792Z</time>
      </trkpt>
      <trkpt lat="47.510627" lon="7.919935">
        <ele>416.647254</ele>
        <time>2021-11-22T08:47:49.128Z</time>
      </trkpt>
      <trkpt lat="47.510551" lon="7.919925">
        <ele>416.932496</ele>
        <time>2021-11-22T08:47:52.238Z</time>
      </trkpt>
      <trkpt lat="47.509902" lon="7.920009">
        <ele>419.368004</ele>
        <time>2021-11-22T08:48:12.835Z</time>
      </trkpt>
      <trkpt lat="47.509811" lon="7.920040">
        <ele>419.717094</ele>
        <time>2021-11-22T08:48:16.820Z</time>
      </trkpt>
      <trkpt lat="47.509809" lon="7.920155">
        <ele>420.007586</ele>
        <time>2021-11-22T08:48:18.414Z</time>
      </trkpt>
      <trkpt lat="47.509746" lon="7.920320">
        <ele>420.486202</ele>
        <time>2021-11-22T08:48:21.653Z</time>
      </trkpt>
      <trkpt lat="47.509586" lon="7.920497">
        <ele>421.232901</ele>
        <time>2021-11-22T08:48:30.031Z</time>
      </trkpt>
      <trkpt lat="47.509370" lon="7.920707">
        <ele>422.198963</ele>
        <time>2021-11-22T08:48:38.339Z</time>
      </trkpt>
      <trkpt lat="47.509138" lon="7.920939">
        <ele>423.261593</ele>
        <time>2021-11-22T08:48:47.301Z</time>
      </trkpt>
      <trkpt lat="47.508613" lon="7.921495">
        <ele>426.185952</ele>
        <time>2021-11-22T08:49:06.881Z</time>
      </trkpt>
      <trkpt lat="47.508585" lon="7.921587">
        <ele>426.494745</ele>
        <time>2021-11-22T08:49:07.813Z</time>
      </trkpt>
      <trkpt lat="47.508464" lon="7.921688">
        <ele>427.124048</ele>
        <time>2021-11-22T08:49:14.120Z</time>
      </trkpt>
      <trkpt lat="47.508248" lon="7.921916">
        <ele>428.325876</ele>
        <time>2021-11-22T08:49:21.705Z</time>
      </trkpt>
      <trkpt lat="47.508175" lon="7.922172">
        <ele>429.176229</ele>
        <time>2021-11-22T08:49:28.265Z</time>
      </trkpt>
      <trkpt lat="47.508171" lon="7.922196">
        <ele>429.251876</ele>
        <time>2021-11-22T08:49:30.104Z</time>
      </trkpt>
      <trkpt lat="47.508141" lon="7.922350">
        <ele>429.742352</ele>
        <time>2021-11-22T08:49:32.677Z</time>
      </trkpt>
      <trkpt lat="47.508128" lon="7.922441">
        <ele>430.026989</ele>
        <time>2021-11-22T08:49:35.472Z</time>
      </trkpt>
      <trkpt lat="47.508064" lon="7.922687">
        <ele>430.833703</ele>
        <time>2021-11-22T08:49:41.982Z</time>
      </trkpt>
      <trkpt lat="47.507981" lon="7.923001">
        <ele>431.533105</ele>
        <time>2021-11-22T08:49:50.296Z</time>
      </trkpt>
      <trkpt lat="47.507956" lon="7.923075">
        <ele>431.632392</ele>
        <time>2021-11-22T08:49:52.287Z</time>
      </trkpt>
      <trkpt lat="47.507876" lon="7.923234">
        <ele>431.870307</ele>
        <time>2021-11-22T08:49:56.611Z</time>
      </trkpt>
      <trkpt lat="47.507823" lon="7.923307">
        <ele>431.998911</ele>
        <time>2021-11-22T08:49:58.345Z</time>
      </trkpt>
      <trkpt lat="47.507715" lon="7.923412">
        <ele>432.228448</ele>
        <time>2021-11-22T08:50:03.061Z</time>
      </trkpt>
      <trkpt lat="47.507337" lon="7.923777">
        <ele>433.030188</ele>
        <time>2021-11-22T08:50:11.435Z</time>
      </trkpt>
      <trkpt lat="47.507226" lon="7.923898">
        <ele>433.275073</ele>
        <time>2021-11-22T08:50:15.027Z</time>
      </trkpt>
      <trkpt lat="47.507191" lon="7.924066">
        <ele>433.486048</ele>
        <time>2021-11-22T08:50:16.575Z</time>
      </trkpt>
      <trkpt lat="47.506562" lon="7.924949">
        <ele>434.063877</ele>
        <time>2021-11-22T08:50:29.474Z</time>
      </trkpt>
      <trkpt lat="47.506019" lon="7.926055">
        <ele>432.621762</ele>
        <time>2021-11-22T08:50:39.173Z</time>
      </trkpt>
      <trkpt lat="47.505768" lon="7.926636">
        <ele>431.894342</ele>
        <time>2021-11-22T08:50:44.260Z</time>
      </trkpt>
      <trkpt lat="47.505699" lon="7.926906">
        <ele>431.742092</ele>
        <time>2021-11-22T08:50:46.974Z</time>
      </trkpt>
      <trkpt lat="47.505690" lon="7.927200">
        <ele>431.840287</ele>
        <time>2021-11-22T08:50:49.160Z</time>
      </trkpt>
      <trkpt lat="47.505748" lon="7.927310">
        <ele>431.886845</ele>
        <time>2021-11-22T08:50:50.919Z</time>
      </trkpt>
      <trkpt lat="47.505858" lon="7.927551">
        <ele>431.983889</ele>
        <time>2021-11-22T08:50:54.020Z</time>
      </trkpt>
      <trkpt lat="47.505881" lon="7.927601">
        <ele>432.004072</ele>
        <time>2021-11-22T08:50:55.163Z</time>
      </trkpt>
      <trkpt lat="47.505868" lon="7.927611">
        <ele>432.011308</ele>
        <time>2021-11-22T08:50:55.428Z</time>
      </trkpt>
      <trkpt lat="47.505814" lon="7.927657">
        <ele>432.042081</ele>
        <time>2021-11-22T08:50:56.697Z</time>
      </trkpt>
      <trkpt lat="47.505253" lon="7.928170">
        <ele>432.367772</ele>
        <time>2021-11-22T08:51:09.085Z</time>
      </trkpt>
      <trkpt lat="47.504799" lon="7.928777">
        <ele>432.795280</ele>
        <time>2021-11-22T08:51:19.400Z</time>
      </trkpt>
      <trkpt lat="47.504724" lon="7.928871">
        <ele>432.923831</ele>
        <time>2021-11-22T08:51:23.395Z</time>
      </trkpt>
      <trkpt lat="47.504650" lon="7.928941">
        <ele>433.038708</ele>
        <time>2021-11-22T08:51:25.367Z</time>
      </trkpt>
      <trkpt lat="47.504005" lon="7.929312">
        <ele>433.943902</ele>
        <time>2021-11-22T08:51:40.706Z</time>
      </trkpt>
      <trkpt lat="47.503815" lon="7.929426">
        <ele>434.212085</ele>
        <time>2021-11-22T08:51:43.575Z</time>
      </trkpt>
      <trkpt lat="47.503598" lon="7.929585">
        <ele>434.528818</ele>
        <time>2021-11-22T08:51:48.986Z</time>
      </trkpt>
      <trkpt lat="47.503528" lon="7.929650">
        <ele>434.636911</ele>
        <time>2021-11-22T08:51:50.044Z</time>
      </trkpt>
      <trkpt lat="47.503485" lon="7.929688">
        <ele>434.702422</ele>
        <time>2021-11-22T08:51:51.589Z</time>
      </trkpt>
      <trkpt lat="47.503014" lon="7.930220">
        <ele>435.285059</ele>
        <time>2021-11-22T08:52:01.673Z</time>
      </trkpt>
      <trkpt lat="47.502761" lon="7.930610">
        <ele>435.589678</ele>
        <time>2021-11-22T08:52:08.027Z</time>
      </trkpt>
      <trkpt lat="47.502613" lon="7.930856">
        <ele>435.775261</ele>
        <time>2021-11-22T08:52:11.825Z</time>
      </trkpt>
      <trkpt lat="47.502400" lon="7.931256">
        <ele>436.062205</ele>
        <time>2021-11-22T08:52:18.629Z</time>
      </trkpt>
      <trkpt lat="47.502023" lon="7.932158">
        <ele>436.599193</ele>
        <time>2021-11-22T08:52:31.646Z</time>
      </trkpt>
      <trkpt lat="47.501901" lon="7.932351">
        <ele>436.705765</ele>
        <time>2021-11-22T08:52:35.498Z</time>
      </trkpt>
      <trkpt lat="47.501794" lon="7.932466">
        <ele>436.784684</ele>
        <time>2021-11-22T08:52:37.318Z</time>
      </trkpt>
      <trkpt lat="47.501463" lon="7.932668">
        <ele>436.998366</ele>
        <time>2021-11-22T08:52:43.458Z</time>
      </trkpt>
      <trkpt lat="47.501075" lon="7.932885">
        <ele>437.245916</ele>
        <time>2021-11-22T08:52:50.991Z</time>
      </trkpt>
      <trkpt lat="47.500990" lon="7.932950">
        <ele>437.303017</ele>
        <time>2021-11-22T08:52:52.954Z</time>
      </trkpt>
      <trkpt lat="47.500843" lon="7.933102">
        <ele>437.410038</ele>
        <time>2021-11-22T08:52:55.697Z</time>
      </trkpt>
      <trkpt lat="47.500435" lon="7.933872">
        <ele>437.830038</ele>
        <time>2021-11-22T08:53:05.570Z</time>
      </trkpt>
      <trkpt lat="47.500386" lon="7.933937">
        <ele>437.872819</ele>
        <time>2021-11-22T08:53:06.406Z</time>
      </trkpt>
      <trkpt lat="47.500352" lon="7.933976">
        <ele>437.900786</ele>
        <time>2021-11-22T08:53:07.164Z</time>
      </trkpt>
      <trkpt lat="47.500275" lon="7.934029">
        <ele>437.955999</ele>
        <time>2021-11-22T08:53:08.317Z</time>
      </trkpt>
      <trkpt lat="47.500208" lon="7.934071">
        <ele>438.003308</ele>
        <time>2021-11-22T08:53:09.598Z</time>
      </trkpt>
      <trkpt lat="47.500193" lon="7.934023">
        <ele>438.026539</ele>
        <time>2021-11-22T08:53:10.060Z</time>
      </trkpt>
      <trkpt lat="47.500169" lon="7.933984">
        <ele>438.049712</ele>
        <time>2021-11-22T08:53:10.483Z</time>
      </trkpt>
      <trkpt lat="47.500138" lon="7.933956">
        <ele>438.073324</ele>
        <time>2021-11-22T08:53:11.001Z</time>
      </trkpt>
      <trkpt lat="47.500067" lon="7.933946">
        <ele>438.119696</ele>
        <time>2021-11-22T08:53:11.928Z</time>
      </trkpt>
      <trkpt lat="47.500034" lon="7.933965">
        <ele>438.142718</ele>
        <time>2021-11-22T08:53:12.743Z</time>
      </trkpt>
      <trkpt lat="47.499993" lon="7.933864">
        <ele>438.194477</ele>
        <time>2021-11-22T08:53:14.371Z</time>
      </trkpt>
      <trkpt lat="47.499822" lon="7.933272">
        <ele>438.477292</ele>
        <time>2021-11-22T08:53:22.248Z</time>
      </trkpt>
      <trkpt lat="47.499538" lon="7.932868">
        <ele>438.803996</ele>
        <time>2021-11-22T08:53:30.205Z</time>
      </trkpt>
      <trkpt lat="47.499421" lon="7.932805">
        <ele>439.015627</ele>
        <time>2021-11-22T08:53:33.256Z</time>
      </trkpt>
      <trkpt lat="47.499354" lon="7.932769">
        <ele>439.136786</ele>
        <time>2021-11-22T08:53:34.984Z</time>
      </trkpt>
      <trkpt lat="47.499088" lon="7.932741">
        <ele>439.590081</ele>
        <time>2021-11-22T08:53:40.861Z</time>
      </trkpt>
      <trkpt lat="47.498997" lon="7.932758">
        <ele>439.745992</ele>
        <time>2021-11-22T08:53:42.899Z</time>
      </trkpt>
      <trkpt lat="47.498925" lon="7.932781">
        <ele>439.871197</ele>
        <time>2021-11-22T08:53:44.606Z</time>
      </trkpt>
      <trkpt lat="47.498481" lon="7.933011">
        <ele>440.670804</ele>
        <time>2021-11-22T08:53:53.859Z</time>
      </trkpt>
      <trkpt lat="47.498431" lon="7.932995">
        <ele>440.757759</ele>
        <time>2021-11-22T08:53:55.082Z</time>
      </trkpt>
      <trkpt lat="47.498391" lon="7.932972">
        <ele>440.830702</ele>
        <time>2021-11-22T08:53:56.001Z</time>
      </trkpt>
      <trkpt lat="47.498196" lon="7.932613">
        <ele>441.359708</ele>
        <time>2021-11-22T08:54:02.724Z</time>
      </trkpt>
      <trkpt lat="47.498138" lon="7.932522">
        <ele>441.503379</ele>
        <time>2021-11-22T08:54:04.725Z</time>
      </trkpt>
      <trkpt lat="47.498068" lon="7.932426">
        <ele>441.665592</ele>
        <time>2021-11-22T08:54:07.172Z</time>
      </trkpt>
      <trkpt lat="47.497907" lon="7.932254">
        <ele>441.996478</ele>
        <time>2021-11-22T08:54:11.874Z</time>
      </trkpt>
      <trkpt lat="47.497676" lon="7.932013">
        <ele>442.464448</ele>
        <time>2021-11-22T08:54:18.353Z</time>
      </trkpt>
      <trkpt lat="47.497430" lon="7.931757">
        <ele>442.962388</ele>
        <time>2021-11-22T08:54:25.944Z</time>
      </trkpt>
      <trkpt lat="47.497221" lon="7.931528">
        <ele>443.392967</ele>
        <time>2021-11-22T08:54:31.941Z</time>
      </trkpt>
      <trkpt lat="47.497104" lon="7.931414">
        <ele>443.624910</ele>
        <time>2021-11-22T08:54:34.739Z</time>
      </trkpt>
      <trkpt lat="47.496998" lon="7.931330">
        <ele>443.824003</ele>
        <time>2021-11-22T08:54:37.150Z</time>
      </trkpt>
      <trkpt lat="47.496424" lon="7.931075">
        <ele>444.827403</ele>
        <time>2021-11-22T08:54:47.898Z</time>
      </trkpt>
      <trkpt lat="47.496205" lon="7.930904">
        <ele>445.287192</ele>
        <time>2021-11-22T08:54:51.918Z</time>
      </trkpt>
      <trkpt lat="47.496162" lon="7.930842">
        <ele>445.398666</ele>
        <time>2021-11-22T08:54:53.484Z</time>
      </trkpt>
      <trkpt lat="47.496117" lon="7.930763">
        <ele>445.528306</ele>
        <time>2021-11-22T08:54:54.752Z</time>
      </trkpt>
      <trkpt lat="47.496051" lon="7.930607">
        <ele>445.759232</ele>
        <time>2021-11-22T08:54:57.534Z</time>
      </trkpt>
      <trkpt lat="47.495985" lon="7.930428">
        <ele>446.015075</ele>
        <time>2021-11-22T08:55:00.366Z</time>
      </trkpt>
      <trkpt lat="47.495801" lon="7.929891">
        <ele>446.770494</ele>
        <time>2021-11-22T08:55:10.023Z</time>
      </trkpt>
      <trkpt lat="47.495622" lon="7.929400">
        <ele>447.470472</ele>
        <time>2021-11-22T08:55:18.636Z</time>
      </trkpt>
      <trkpt lat="47.495562" lon="7.929221">
        <ele>447.721169</ele>
        <time>2021-11-22T08:55:21.596Z</time>
      </trkpt>
      <trkpt lat="47.495530" lon="7.929063">
        <ele>447.928116</ele>
        <time>2021-11-22T08:55:24.070Z</time>
      </trkpt>
      <trkpt lat="47.495455" lon="7.928595">
        <ele>448.950327</ele>
        <time>2021-11-22T08:55:32.897Z</time>
      </trkpt>
      <trkpt lat="47.495268" lon="7.927740">
        <ele>451.090384</ele>
        <time>2021-11-22T08:55:49.907Z</time>
      </trkpt>
      <trkpt lat="47.495031" lon="7.927006">
        <ele>453.027627</ele>
        <time>2021-11-22T08:56:06.809Z</time>
      </trkpt>
      <trkpt lat="47.494945" lon="7.926765">
        <ele>453.676658</ele>
        <time>2021-11-22T08:56:13.452Z</time>
      </trkpt>
      <trkpt lat="47.494515" lon="7.925509">
        <ele>457.117142</ele>
        <time>2021-11-22T08:56:41.871Z</time>
      </trkpt>
      <trkpt lat="47.494438" lon="7.925289">
        <ele>457.726816</ele>
        <time>2021-11-22T08:56:47.304Z</time>
      </trkpt>
      <trkpt lat="47.494034" lon="7.924101">
        <ele>460.997745</ele>
        <time>2021-11-22T08:57:12.367Z</time>
      </trkpt>
      <trkpt lat="47.493708" lon="7.923049">
        <ele>463.731549</ele>
        <time>2021-11-22T08:57:33.939Z</time>
      </trkpt>
      <trkpt lat="47.493397" lon="7.921760">
        <ele>466.964598</ele>
        <time>2021-11-22T08:58:00.919Z</time>
      </trkpt>
      <trkpt lat="47.493307" lon="7.921373">
        <ele>468.138056</ele>
        <time>2021-11-22T08:58:09.413Z</time>
      </trkpt>
      <trkpt lat="47.493236" lon="7.921091">
        <ele>469.062366</ele>
        <time>2021-11-22T08:58:15.794Z</time>
      </trkpt>
      <trkpt lat="47.493132" lon="7.920716">
        <ele>470.307386</ele>
        <time>2021-11-22T08:58:24.844Z</time>
      </trkpt>
      <trkpt lat="47.492813" lon="7.919900">
        <ele>473.202913</ele>
        <time>2021-11-22T08:58:46.327Z</time>
      </trkpt>
      <trkpt lat="47.492584" lon="7.919482">
        <ele>474.855751</ele>
        <time>2021-11-22T08:58:59.099Z</time>
      </trkpt>
      <trkpt lat="47.492227" lon="7.918989">
        <ele>477.012822</ele>
        <time>2021-11-22T08:59:16.001Z</time>
      </trkpt>
      <trkpt lat="47.491324" lon="7.917985">
        <ele>481.953233</ele>
        <time>2021-11-22T08:59:52.786Z</time>
      </trkpt>
      <trkpt lat="47.490822" lon="7.917158">
        <ele>484.575811</ele>
        <time>2021-11-22T09:00:14.946Z</time>
      </trkpt>
      <trkpt lat="47.490607" lon="7.916690">
        <ele>485.680267</ele>
        <time>2021-11-22T09:00:25.144Z</time>
      </trkpt>
      <trkpt lat="47.490429" lon="7.916164">
        <ele>486.828358</ele>
        <time>2021-11-22T09:00:35.013Z</time>
      </trkpt>
      <trkpt lat="47.490283" lon="7.915612">
        <ele>487.985244</ele>
        <time>2021-11-22T09:00:44.841Z</time>
      </trkpt>
      <trkpt lat="47.489987" lon="7.914083">
        <ele>490.646530</ele>
        <time>2021-11-22T09:01:10.622Z</time>
      </trkpt>
      <trkpt lat="47.489951" lon="7.913893">
        <ele>490.966249</ele>
        <time>2021-11-22T09:01:13.616Z</time>
      </trkpt>
      <trkpt lat="47.489922" lon="7.913738">
        <ele>491.226835</ele>
        <time>2021-11-22T09:01:16.121Z</time>
      </trkpt>
      <trkpt lat="47.489843" lon="7.913398">
        <ele>491.809375</ele>
        <time>2021-11-22T09:01:21.467Z</time>
      </trkpt>
      <trkpt lat="47.489607" lon="7.912646">
        <ele>493.360732</ele>
        <time>2021-11-22T09:01:35.696Z</time>
      </trkpt>
      <trkpt lat="47.489216" lon="7.911685">
        <ele>496.232732</ele>
        <time>2021-11-22T09:01:58.010Z</time>
      </trkpt>
      <trkpt lat="47.489040" lon="7.911300">
        <ele>497.422819</ele>
        <time>2021-11-22T09:02:07.477Z</time>
      </trkpt>
      <trkpt lat="47.488908" lon="7.911009">
        <ele>498.320163</ele>
        <time>2021-11-22T09:02:16.038Z</time>
      </trkpt>
      <trkpt lat="47.488699" lon="7.910498">
        <ele>499.836499</ele>
        <time>2021-11-22T09:02:29.701Z</time>
      </trkpt>
      <trkpt lat="47.488366" lon="7.909318">
        <ele>502.933824</ele>
        <time>2021-11-22T09:02:55.573Z</time>
      </trkpt>
      <trkpt lat="47.488241" lon="7.908835">
        <ele>504.186575</ele>
        <time>2021-11-22T09:03:04.760Z</time>
      </trkpt>
      <trkpt lat="47.488185" lon="7.908663">
        <ele>504.649017</ele>
        <time>2021-11-22T09:03:08.812Z</time>
      </trkpt>
      <trkpt lat="47.488080" lon="7.908344">
        <ele>505.508467</ele>
        <time>2021-11-22T09:03:14.773Z</time>
      </trkpt>
      <trkpt lat="47.487763" lon="7.907711">
        <ele>507.407387</ele>
        <time>2021-11-22T09:03:29.830Z</time>
      </trkpt>
      <trkpt lat="47.487587" lon="7.907459">
        <ele>508.279104</ele>
        <time>2021-11-22T09:03:36.290Z</time>
      </trkpt>
      <trkpt lat="47.487378" lon="7.907191">
        <ele>509.263486</ele>
        <time>2021-11-22T09:03:43.489Z</time>
      </trkpt>
      <trkpt lat="47.487197" lon="7.906946">
        <ele>510.136632</ele>
        <time>2021-11-22T09:03:49.630Z</time>
      </trkpt>
      <trkpt lat="47.486969" lon="7.906583">
        <ele>511.328709</ele>
        <time>2021-11-22T09:03:57.938Z</time>
      </trkpt>
      <trkpt lat="47.486769" lon="7.905976">
        <ele>513.554004</ele>
        <time>2021-11-22T09:04:13.738Z</time>
      </trkpt>
      <trkpt lat="47.486724" lon="7.905485">
        <ele>516.194462</ele>
        <time>2021-11-22T09:04:27.962Z</time>
      </trkpt>
      <trkpt lat="47.486755" lon="7.904487">
        <ele>521.518347</ele>
        <time>2021-11-22T09:05:01.462Z</time>
      </trkpt>
      <trkpt lat="47.486721" lon="7.904326">
        <ele>522.417223</ele>
        <time>2021-11-22T09:05:07.810Z</time>
      </trkpt>
      <trkpt lat="47.486787" lon="7.904241">
        <ele>523.107190</ele>
        <time>2021-11-22T09:05:14.593Z</time>
      </trkpt>
      <trkpt lat="47.486851" lon="7.904088">
        <ele>524.066080</ele>
        <time>2021-11-22T09:05:22.035Z</time>
      </trkpt>
      <trkpt lat="47.486956" lon="7.903776">
        <ele>525.923473</ele>
        <time>2021-11-22T09:05:40.147Z</time>
      </trkpt>
      <trkpt lat="47.487094" lon="7.903449">
        <ele>528.113090</ele>
        <time>2021-11-22T09:05:58.210Z</time>
      </trkpt>
      <trkpt lat="47.487131" lon="7.903367">
        <ele>528.691700</ele>
        <time>2021-11-22T09:06:04.218Z</time>
      </trkpt>
      <trkpt lat="47.487618" lon="7.902286">
        <ele>536.315740</ele>
        <time>2021-11-22T09:07:09.668Z</time>
      </trkpt>
      <trkpt lat="47.488244" lon="7.900510">
        <ele>545.294773</ele>
        <time>2021-11-22T09:08:41.884Z</time>
      </trkpt>
      <trkpt lat="47.488318" lon="7.900297">
        <ele>546.028641</ele>
        <time>2021-11-22T09:08:51.643Z</time>
      </trkpt>
      <trkpt lat="47.488332" lon="7.900256">
        <ele>546.169399</ele>
        <time>2021-11-22T09:08:53.984Z</time>
      </trkpt>
      <trkpt lat="47.488488" lon="7.899603">
        <ele>548.291637</ele>
        <time>2021-11-22T09:09:18.094Z</time>
      </trkpt>
      <trkpt lat="47.488504" lon="7.899482">
        <ele>548.669428</ele>
        <time>2021-11-22T09:09:22.239Z</time>
      </trkpt>
      <trkpt lat="47.488505" lon="7.899198">
        <ele>549.539651</ele>
        <time>2021-11-22T09:09:26.424Z</time>
      </trkpt>
      <trkpt lat="47.488244" lon="7.897339">
        <ele>548.188451</ele>
        <time>2021-11-22T09:09:43.114Z</time>
      </trkpt>
      <trkpt lat="47.488196" lon="7.897116">
        <ele>547.864807</ele>
        <time>2021-11-22T09:09:44.518Z</time>
      </trkpt>
      <trkpt lat="47.488140" lon="7.896871">
        <ele>547.507150</ele>
        <time>2021-11-22T09:09:46.346Z</time>
      </trkpt>
      <trkpt lat="47.488101" lon="7.896765">
        <ele>547.340248</ele>
        <time>2021-11-22T09:09:47.141Z</time>
      </trkpt>
      <trkpt lat="47.488083" lon="7.896718">
        <ele>547.265541</ele>
        <time>2021-11-22T09:09:47.465Z</time>
      </trkpt>
      <trkpt lat="47.487908" lon="7.896570">
        <ele>546.853061</ele>
        <time>2021-11-22T09:09:49.384Z</time>
      </trkpt>
      <trkpt lat="47.487421" lon="7.896715">
        <ele>543.833138</ele>
        <time>2021-11-22T09:09:54.196Z</time>
      </trkpt>
      <trkpt lat="47.487234" lon="7.896710">
        <ele>542.598906</ele>
        <time>2021-11-22T09:09:55.901Z</time>
      </trkpt>
      <trkpt lat="47.487132" lon="7.896643">
        <ele>541.862468</ele>
        <time>2021-11-22T09:09:57.306Z</time>
      </trkpt>
      <trkpt lat="47.487062" lon="7.896463">
        <ele>540.936351</ele>
        <time>2021-11-22T09:09:58.545Z</time>
      </trkpt>
      <trkpt lat="47.487070" lon="7.896341">
        <ele>540.389751</ele>
        <time>2021-11-22T09:09:59.251Z</time>
      </trkpt>
      <trkpt lat="47.487149" lon="7.895169">
        <ele>535.137426</ele>
        <time>2021-11-22T09:10:06.343Z</time>
      </trkpt>
      <trkpt lat="47.487161" lon="7.894314">
        <ele>529.483757</ele>
        <time>2021-11-22T09:10:11.399Z</time>
      </trkpt>
      <trkpt lat="47.487170" lon="7.894195">
        <ele>528.672511</ele>
        <time>2021-11-22T09:10:12.060Z</time>
      </trkpt>
      <trkpt lat="47.487181" lon="7.894092">
        <ele>527.966035</ele>
        <time>2021-11-22T09:10:12.671Z</time>
      </trkpt>
      <trkpt lat="47.487216" lon="7.893977">
        <ele>527.111549</ele>
        <time>2021-11-22T09:10:13.532Z</time>
      </trkpt>
      <trkpt lat="47.487256" lon="7.893919">
        <ele>526.550098</ele>
        <time>2021-11-22T09:10:14.035Z</time>
      </trkpt>
      <trkpt lat="47.487323" lon="7.893893">
        <ele>525.855666</ele>
        <time>2021-11-22T09:10:14.629Z</time>
      </trkpt>
      <trkpt lat="47.487476" lon="7.893956">
        <ele>524.263464</ele>
        <time>2021-11-22T09:10:15.956Z</time>
      </trkpt>
      <trkpt lat="47.487632" lon="7.894208">
        <ele>521.948113</ele>
        <time>2021-11-22T09:10:17.987Z</time>
      </trkpt>
      <trkpt lat="47.487657" lon="7.894274">
        <ele>521.435516</ele>
        <time>2021-11-22T09:10:18.409Z</time>
      </trkpt>
      <trkpt lat="47.487689" lon="7.894368">
        <ele>520.722435</ele>
        <time>2021-11-22T09:10:18.996Z</time>
      </trkpt>
      <trkpt lat="47.487840" lon="7.894546">
        <ele>518.786961</ele>
        <time>2021-11-22T09:10:20.729Z</time>
      </trkpt>
      <trkpt lat="47.488123" lon="7.894358">
        <ele>515.801443</ele>
        <time>2021-11-22T09:10:23.338Z</time>
      </trkpt>
      <trkpt lat="47.488180" lon="7.894303">
        <ele>515.192584</ele>
        <time>2021-11-22T09:10:23.923Z</time>
      </trkpt>
      <trkpt lat="47.488216" lon="7.894259">
        <ele>514.774807</ele>
        <time>2021-11-22T09:10:24.298Z</time>
      </trkpt>
      <trkpt lat="47.488316" lon="7.893785">
        <ele>511.772412</ele>
        <time>2021-11-22T09:10:27.178Z</time>
      </trkpt>
      <trkpt lat="47.488417" lon="7.893532">
        <ele>509.995686</ele>
        <time>2021-11-22T09:10:28.886Z</time>
      </trkpt>
      <trkpt lat="47.488372" lon="7.893226">
        <ele>508.102203</ele>
        <time>2021-11-22T09:10:30.757Z</time>
      </trkpt>
      <trkpt lat="47.488323" lon="7.893133">
        <ele>507.389168</ele>
        <time>2021-11-22T09:10:31.430Z</time>
      </trkpt>
      <trkpt lat="47.488250" lon="7.893055">
        <ele>506.583520</ele>
        <time>2021-11-22T09:10:32.256Z</time>
      </trkpt>
      <trkpt lat="47.488168" lon="7.892899">
        <ele>505.388523</ele>
        <time>2021-11-22T09:10:33.454Z</time>
      </trkpt>
      <trkpt lat="47.488137" lon="7.892763">
        <ele>504.520696</ele>
        <time>2021-11-22T09:10:34.301Z</time>
      </trkpt>
      <trkpt lat="47.488084" lon="7.892534">
        <ele>503.057119</ele>
        <time>2021-11-22T09:10:35.774Z</time>
      </trkpt>
      <trkpt lat="47.487680" lon="7.891282">
        <ele>497.394772</ele>
        <time>2021-11-22T09:10:44.311Z</time>
      </trkpt>
      <trkpt lat="47.487518" lon="7.890485">
        <ele>494.621793</ele>
        <time>2021-11-22T09:10:49.680Z</time>
      </trkpt>
      <trkpt lat="47.487490" lon="7.890449">
        <ele>494.438911</ele>
        <time>2021-11-22T09:10:50.052Z</time>
      </trkpt>
      <trkpt lat="47.487367" lon="7.890321">
        <ele>493.697515</ele>
        <time>2021-11-22T09:10:51.533Z</time>
      </trkpt>
      <trkpt lat="47.486940" lon="7.889619">
        <ele>490.800188</ele>
        <time>2021-11-22T09:10:58.003Z</time>
      </trkpt>
      <trkpt lat="47.486763" lon="7.889251">
        <ele>489.579269</ele>
        <time>2021-11-22T09:11:01.140Z</time>
      </trkpt>
      <trkpt lat="47.486746" lon="7.889218">
        <ele>489.467108</ele>
        <time>2021-11-22T09:11:01.380Z</time>
      </trkpt>
      <trkpt lat="47.486185" lon="7.888073">
        <ele>485.644316</ele>
        <time>2021-11-22T09:11:10.695Z</time>
      </trkpt>
      <trkpt lat="47.485991" lon="7.887744">
        <ele>484.449564</ele>
        <time>2021-11-22T09:11:13.528Z</time>
      </trkpt>
      <trkpt lat="47.485842" lon="7.887493">
        <ele>483.485436</ele>
        <time>2021-11-22T09:11:15.617Z</time>
      </trkpt>
      <trkpt lat="47.485824" lon="7.887463">
        <ele>483.369661</ele>
        <time>2021-11-22T09:11:15.875Z</time>
      </trkpt>
      <trkpt lat="47.485730" lon="7.887323">
        <ele>482.800128</ele>
        <time>2021-11-22T09:11:17.156Z</time>
      </trkpt>
      <trkpt lat="47.484923" lon="7.886213">
        <ele>478.095057</ele>
        <time>2021-11-22T09:11:27.769Z</time>
      </trkpt>
      <trkpt lat="47.484859" lon="7.886144">
        <ele>477.756903</ele>
        <time>2021-11-22T09:11:28.485Z</time>
      </trkpt>
      <trkpt lat="47.484724" lon="7.885990">
        <ele>477.028977</ele>
        <time>2021-11-22T09:11:30.282Z</time>
      </trkpt>
      <trkpt lat="47.484124" lon="7.885514">
        <ele>474.801824</ele>
        <time>2021-11-22T09:11:37.187Z</time>
      </trkpt>
      <trkpt lat="47.483644" lon="7.884992">
        <ele>472.859568</ele>
        <time>2021-11-22T09:11:43.072Z</time>
      </trkpt>
      <trkpt lat="47.483551" lon="7.884901">
        <ele>472.496038</ele>
        <time>2021-11-22T09:11:44.221Z</time>
      </trkpt>
      <trkpt lat="47.483495" lon="7.884861">
        <ele>472.293289</ele>
        <time>2021-11-22T09:11:45.023Z</time>
      </trkpt>
      <trkpt lat="47.483344" lon="7.884768">
        <ele>471.760005</ele>
        <time>2021-11-22T09:11:46.655Z</time>
      </trkpt>
      <trkpt lat="47.482795" lon="7.884621">
        <ele>470.259364</ele>
        <time>2021-11-22T09:11:52.645Z</time>
      </trkpt>
      <trkpt lat="47.482343" lon="7.884501">
        <ele>469.162032</ele>
        <time>2021-11-22T09:11:57.457Z</time>
      </trkpt>
      <trkpt lat="47.482094" lon="7.884439">
        <ele>468.558665</ele>
        <time>2021-11-22T09:12:00.182Z</time>
      </trkpt>
      <trkpt lat="47.481625" lon="7.884355">
        <ele>467.429778</ele>
        <time>2021-11-22T09:12:05.253Z</time>
      </trkpt>
      <trkpt lat="47.481202" lon="7.884417">
        <ele>466.534102</ele>
        <time>2021-11-22T09:12:09.823Z</time>
      </trkpt>
      <trkpt lat="47.481022" lon="7.884472">
        <ele>466.220133</ele>
        <time>2021-11-22T09:12:11.717Z</time>
      </trkpt>
      <trkpt lat="47.480931" lon="7.884489">
        <ele>466.063450</ele>
        <time>2021-11-22T09:12:12.783Z</time>
      </trkpt>
      <trkpt lat="47.480537" lon="7.884477">
        <ele>465.390265</ele>
        <time>2021-11-22T09:12:17.164Z</time>
      </trkpt>
      <trkpt lat="47.479813" lon="7.884128">
        <ele>464.089530</ele>
        <time>2021-11-22T09:12:25.951Z</time>
      </trkpt>
      <trkpt lat="47.479273" lon="7.883853">
        <ele>463.723240</ele>
        <time>2021-11-22T09:12:32.821Z</time>
      </trkpt>
      <trkpt lat="47.479105" lon="7.883776">
        <ele>463.705003</ele>
        <time>2021-11-22T09:12:34.993Z</time>
      </trkpt>
      <trkpt lat="47.478811" lon="7.883733">
        <ele>463.674369</ele>
        <time>2021-11-22T09:12:38.755Z</time>
      </trkpt>
      <trkpt lat="47.478579" lon="7.883777">
        <ele>463.650116</ele>
        <time>2021-11-22T09:12:41.803Z</time>
      </trkpt>
      <trkpt lat="47.477249" lon="7.884423">
        <ele>465.971645</ele>
        <time>2021-11-22T09:13:08.264Z</time>
      </trkpt>
      <trkpt lat="47.476108" lon="7.884690">
        <ele>470.075820</ele>
        <time>2021-11-22T09:13:47.991Z</time>
      </trkpt>
      <trkpt lat="47.475795" lon="7.884698">
        <ele>471.689065</ele>
        <time>2021-11-22T09:14:00.009Z</time>
      </trkpt>
      <trkpt lat="47.475660" lon="7.884681">
        <ele>472.387285</ele>
        <time>2021-11-22T09:14:05.584Z</time>
      </trkpt>
      <trkpt lat="47.475395" lon="7.884643">
        <ele>473.759326</ele>
        <time>2021-11-22T09:14:16.170Z</time>
      </trkpt>
      <trkpt lat="47.474825" lon="7.884590">
        <ele>476.702541</ele>
        <time>2021-11-22T09:14:36.680Z</time>
      </trkpt>
      <trkpt lat="47.474703" lon="7.884534">
        <ele>477.360816</ele>
        <time>2021-11-22T09:14:42.293Z</time>
      </trkpt>
      <trkpt lat="47.474508" lon="7.884402">
        <ele>478.465915</ele>
        <time>2021-11-22T09:14:49.124Z</time>
      </trkpt>
      <trkpt lat="47.473290" lon="7.883592">
        <ele>481.468460</ele>
        <time>2021-11-22T09:15:25.457Z</time>
      </trkpt>
      <trkpt lat="47.473082" lon="7.883408">
        <ele>481.938784</ele>
        <time>2021-11-22T09:15:29.169Z</time>
      </trkpt>
      <trkpt lat="47.472670" lon="7.883027">
        <ele>481.781168</ele>
        <time>2021-11-22T09:15:35.888Z</time>
      </trkpt>
      <trkpt lat="47.471932" lon="7.882355">
        <ele>476.504226</ele>
        <time>2021-11-22T09:15:44.878Z</time>
      </trkpt>
      <trkpt lat="47.471600" lon="7.881776">
        <ele>473.379028</ele>
        <time>2021-11-22T09:15:49.277Z</time>
      </trkpt>
      <trkpt lat="47.471472" lon="7.881494">
        <ele>471.980868</ele>
        <time>2021-11-22T09:15:51.298Z</time>
      </trkpt>
      <trkpt lat="47.471451" lon="7.881438">
        <ele>471.717270</ele>
        <time>2021-11-22T09:15:51.674Z</time>
      </trkpt>
      <trkpt lat="47.471376" lon="7.881235">
        <ele>469.507016</ele>
        <time>2021-11-22T09:15:52.968Z</time>
      </trkpt>
      <trkpt lat="47.471173" lon="7.880721">
        <ele>463.624574</ele>
        <time>2021-11-22T09:15:56.334Z</time>
      </trkpt>
      <trkpt lat="47.471143" lon="7.880602">
        <ele>462.369561</ele>
        <time>2021-11-22T09:15:57.049Z</time>
      </trkpt>
      <trkpt lat="47.471122" lon="7.880528">
        <ele>461.576506</ele>
        <time>2021-11-22T09:15:57.498Z</time>
      </trkpt>
      <trkpt lat="47.471056" lon="7.880271">
        <ele>458.859867</ele>
        <time>2021-11-22T09:15:59.028Z</time>
      </trkpt>
      <trkpt lat="47.470688" lon="7.879298">
        <ele>447.842491</ele>
        <time>2021-11-22T09:16:05.264Z</time>
      </trkpt>
      <trkpt lat="47.470641" lon="7.879203">
        <ele>446.679174</ele>
        <time>2021-11-22T09:16:05.926Z</time>
      </trkpt>
      <trkpt lat="47.470626" lon="7.879175">
        <ele>446.326136</ele>
        <time>2021-11-22T09:16:06.122Z</time>
      </trkpt>
      <trkpt lat="47.470496" lon="7.878920">
        <ele>443.880676</ele>
        <time>2021-11-22T09:16:07.922Z</time>
      </trkpt>
      <trkpt lat="47.470372" lon="7.878664">
        <ele>441.773886</ele>
        <time>2021-11-22T09:16:09.690Z</time>
      </trkpt>
      <trkpt lat="47.470277" lon="7.878469">
        <ele>440.165944</ele>
        <time>2021-11-22T09:16:11.059Z</time>
      </trkpt>
      <trkpt lat="47.470106" lon="7.878102">
        <ele>437.184155</ele>
        <time>2021-11-22T09:16:13.637Z</time>
      </trkpt>
      <trkpt lat="47.469549" lon="7.877073">
        <ele>428.365533</ele>
        <time>2021-11-22T09:16:21.533Z</time>
      </trkpt>
      <trkpt lat="47.469512" lon="7.877020">
        <ele>427.855847</ele>
        <time>2021-11-22T09:16:21.979Z</time>
      </trkpt>
      <trkpt lat="47.469475" lon="7.876966">
        <ele>427.490407</ele>
        <time>2021-11-22T09:16:22.476Z</time>
      </trkpt>
      <trkpt lat="47.469413" lon="7.876875">
        <ele>427.188834</ele>
        <time>2021-11-22T09:16:23.354Z</time>
      </trkpt>
      <trkpt lat="47.469384" lon="7.876836">
        <ele>427.053507</ele>
        <time>2021-11-22T09:16:24.177Z</time>
      </trkpt>
      <trkpt lat="47.469354" lon="7.876797">
        <ele>426.915605</ele>
        <time>2021-11-22T09:16:24.530Z</time>
      </trkpt>
      <trkpt lat="47.469265" lon="7.876688">
        <ele>426.516647</ele>
        <time>2021-11-22T09:16:25.638Z</time>
      </trkpt>
      <trkpt lat="47.468740" lon="7.876159">
        <ele>424.323297</ele>
        <time>2021-11-22T09:16:32.162Z</time>
      </trkpt>
      <trkpt lat="47.468698" lon="7.876140">
        <ele>424.171646</ele>
        <time>2021-11-22T09:16:32.592Z</time>
      </trkpt>
      <trkpt lat="47.468806" lon="7.875696">
        <ele>423.070236</ele>
        <time>2021-11-22T09:16:35.906Z</time>
      </trkpt>
      <trkpt lat="47.468872" lon="7.875425">
        <ele>422.397885</ele>
        <time>2021-11-22T09:16:37.851Z</time>
      </trkpt>
      <trkpt lat="47.468925" lon="7.875205">
        <ele>421.852740</ele>
        <time>2021-11-22T09:16:39.666Z</time>
      </trkpt>
      <trkpt lat="47.468989" lon="7.874967">
        <ele>421.300504</ele>
        <time>2021-11-22T09:16:41.447Z</time>
      </trkpt>
      <trkpt lat="47.469050" lon="7.874738">
        <ele>420.976163</ele>
        <time>2021-11-22T09:16:43.444Z</time>
      </trkpt>
      <trkpt lat="47.469068" lon="7.874689">
        <ele>420.902677</ele>
        <time>2021-11-22T09:16:43.887Z</time>
      </trkpt>
      <trkpt lat="47.469097" lon="7.874606">
        <ele>420.779561</ele>
        <time>2021-11-22T09:16:44.518Z</time>
      </trkpt>
      <trkpt lat="47.469136" lon="7.874516">
        <ele>420.638691</ele>
        <time>2021-11-22T09:16:45.295Z</time>
      </trkpt>
      <trkpt lat="47.469173" lon="7.874432">
        <ele>420.506578</ele>
        <time>2021-11-22T09:16:46.074Z</time>
      </trkpt>
      <trkpt lat="47.469224" lon="7.874328">
        <ele>420.337274</ele>
        <time>2021-11-22T09:16:47.145Z</time>
      </trkpt>
      <trkpt lat="47.469422" lon="7.873965">
        <ele>419.722645</ele>
        <time>2021-11-22T09:16:50.563Z</time>
      </trkpt>
      <trkpt lat="47.469489" lon="7.873809">
        <ele>419.479101</ele>
        <time>2021-11-22T09:16:52.002Z</time>
      </trkpt>
      <trkpt lat="47.469626" lon="7.873477">
        <ele>418.966552</ele>
        <time>2021-11-22T09:16:54.879Z</time>
      </trkpt>
      <trkpt lat="47.469682" lon="7.873326">
        <ele>418.739601</ele>
        <time>2021-11-22T09:16:56.217Z</time>
      </trkpt>
      <trkpt lat="47.469710" lon="7.873249">
        <ele>418.624389</ele>
        <time>2021-11-22T09:16:56.799Z</time>
      </trkpt>
      <trkpt lat="47.469969" lon="7.872276">
        <ele>417.346804</ele>
        <time>2021-11-22T09:17:04.784Z</time>
      </trkpt>
      <trkpt lat="47.470156" lon="7.871491">
        <ele>416.431374</ele>
        <time>2021-11-22T09:17:11.081Z</time>
      </trkpt>
      <trkpt lat="47.470217" lon="7.871214">
        <ele>416.110955</ele>
        <time>2021-11-22T09:17:13.247Z</time>
      </trkpt>
      <trkpt lat="47.470245" lon="7.871088">
        <ele>415.965078</ele>
        <time>2021-11-22T09:17:14.245Z</time>
      </trkpt>
      <trkpt lat="47.470316" lon="7.870753">
        <ele>415.578942</ele>
        <time>2021-11-22T09:17:17.120Z</time>
      </trkpt>
      <trkpt lat="47.470333" lon="7.870669">
        <ele>415.482502</ele>
        <time>2021-11-22T09:17:17.736Z</time>
      </trkpt>
      <trkpt lat="47.470350" lon="7.870570">
        <ele>415.370159</ele>
        <time>2021-11-22T09:17:18.530Z</time>
      </trkpt>
      <trkpt lat="47.470379" lon="7.870338">
        <ele>415.110668</ele>
        <time>2021-11-22T09:17:20.517Z</time>
      </trkpt>
      <trkpt lat="47.470397" lon="7.870147">
        <ele>414.913650</ele>
        <time>2021-11-22T09:17:22.612Z</time>
      </trkpt>
      <trkpt lat="47.470378" lon="7.869626">
        <ele>414.644092</ele>
        <time>2021-11-22T09:17:28.630Z</time>
      </trkpt>
      <trkpt lat="47.470309" lon="7.869201">
        <ele>414.418279</ele>
        <time>2021-11-22T09:17:33.990Z</time>
      </trkpt>
      <trkpt lat="47.470234" lon="7.868884">
        <ele>414.244764</ele>
        <time>2021-11-22T09:17:37.999Z</time>
      </trkpt>
      <trkpt lat="47.470127" lon="7.868484">
        <ele>414.022517</ele>
        <time>2021-11-22T09:17:43.413Z</time>
      </trkpt>
      <trkpt lat="47.469915" lon="7.867494">
        <ele>413.455440</ele>
        <time>2021-11-22T09:17:56.581Z</time>
      </trkpt>
      <trkpt lat="47.469808" lon="7.866690">
        <ele>412.837107</ele>
        <time>2021-11-22T09:18:06.304Z</time>
      </trkpt>
      <trkpt lat="47.469764" lon="7.866452">
        <ele>412.650920</ele>
        <time>2021-11-22T09:18:09.315Z</time>
      </trkpt>
      <trkpt lat="47.469710" lon="7.866208">
        <ele>412.457184</ele>
        <time>2021-11-22T09:18:12.282Z</time>
      </trkpt>
      <trkpt lat="47.469629" lon="7.865918">
        <ele>412.220409</ele>
        <time>2021-11-22T09:18:16.037Z</time>
      </trkpt>
      <trkpt lat="47.469305" lon="7.864692">
        <ele>411.033453</ele>
        <time>2021-11-22T09:18:30.436Z</time>
      </trkpt>
      <trkpt lat="47.469011" lon="7.863405">
        <ele>409.383007</ele>
        <time>2021-11-22T09:18:45.146Z</time>
      </trkpt>
      <trkpt lat="47.468986" lon="7.863323">
        <ele>409.273721</ele>
        <time>2021-11-22T09:18:46.003Z</time>
      </trkpt>
      <trkpt lat="47.468943" lon="7.863195">
        <ele>409.100069</ele>
        <time>2021-11-22T09:18:47.551Z</time>
      </trkpt>
      <trkpt lat="47.468859" lon="7.862978">
        <ele>408.796269</ele>
        <time>2021-11-22T09:18:50.314Z</time>
      </trkpt>
      <trkpt lat="47.468825" lon="7.862900">
        <ele>408.683512</ele>
        <time>2021-11-22T09:18:51.291Z</time>
      </trkpt>
      <trkpt lat="47.468543" lon="7.862357">
        <ele>407.987007</ele>
        <time>2021-11-22T09:18:58.701Z</time>
      </trkpt>
      <trkpt lat="47.468224" lon="7.861805">
        <ele>407.364210</ele>
        <time>2021-11-22T09:19:06.863Z</time>
      </trkpt>
      <trkpt lat="47.467944" lon="7.861300">
        <ele>406.804082</ele>
        <time>2021-11-22T09:19:14.236Z</time>
      </trkpt>
      <trkpt lat="47.467266" lon="7.860107">
        <ele>405.605204</ele>
        <time>2021-11-22T09:19:32.947Z</time>
      </trkpt>
      <trkpt lat="47.467047" lon="7.859682">
        <ele>405.259105</ele>
        <time>2021-11-22T09:19:39.149Z</time>
      </trkpt>
      <trkpt lat="47.466922" lon="7.859398">
        <ele>405.039621</ele>
        <time>2021-11-22T09:19:43.113Z</time>
      </trkpt>
      <trkpt lat="47.466824" lon="7.859137">
        <ele>404.846259</ele>
        <time>2021-11-22T09:19:46.811Z</time>
      </trkpt>
      <trkpt lat="47.466673" lon="7.858620">
        <ele>404.481507</ele>
        <time>2021-11-22T09:19:53.366Z</time>
      </trkpt>
      <trkpt lat="47.466576" lon="7.858236">
        <ele>404.171808</ele>
        <time>2021-11-22T09:19:58.224Z</time>
      </trkpt>
      <trkpt lat="47.466518" lon="7.858022">
        <ele>403.949917</ele>
        <time>2021-11-22T09:20:00.143Z</time>
      </trkpt>
      <trkpt lat="47.466347" lon="7.856973">
        <ele>402.911411</ele>
        <time>2021-11-22T09:20:08.708Z</time>
      </trkpt>
      <trkpt lat="47.466344" lon="7.856945">
        <ele>402.884127</ele>
        <time>2021-11-22T09:20:08.890Z</time>
      </trkpt>
      <trkpt lat="47.466322" lon="7.856655">
        <ele>402.603275</ele>
        <time>2021-11-22T09:20:11.256Z</time>
      </trkpt>
      <trkpt lat="47.466310" lon="7.856541">
        <ele>402.492238</ele>
        <time>2021-11-22T09:20:12.119Z</time>
      </trkpt>
      <trkpt lat="47.466334" lon="7.856525">
        <ele>402.454761</ele>
        <time>2021-11-22T09:20:12.433Z</time>
      </trkpt>
      <trkpt lat="47.466353" lon="7.856496">
        <ele>402.415895</ele>
        <time>2021-11-22T09:20:12.747Z</time>
      </trkpt>
      <trkpt lat="47.466361" lon="7.856459">
        <ele>402.378508</ele>
        <time>2021-11-22T09:20:13.016Z</time>
      </trkpt>
      <trkpt lat="47.466359" lon="7.856420">
        <ele>402.340866</ele>
        <time>2021-11-22T09:20:13.311Z</time>
      </trkpt>
      <trkpt lat="47.466324" lon="7.856362">
        <ele>402.266042</ele>
        <time>2021-11-22T09:20:13.930Z</time>
      </trkpt>
      <trkpt lat="47.466298" lon="7.856354">
        <ele>402.228235</ele>
        <time>2021-11-22T09:20:14.220Z</time>
      </trkpt>
      <trkpt lat="47.466295" lon="7.856234">
        <ele>402.112667</ele>
        <time>2021-11-22T09:20:15.179Z</time>
      </trkpt>
      <trkpt lat="47.466298" lon="7.855895">
        <ele>401.786380</ele>
        <time>2021-11-22T09:20:17.692Z</time>
      </trkpt>
      <trkpt lat="47.466324" lon="7.855062">
        <ele>400.898433</ele>
        <time>2021-11-22T09:20:24.047Z</time>
      </trkpt>
      <trkpt lat="47.466332" lon="7.854775">
        <ele>400.591023</ele>
        <time>2021-11-22T09:20:26.219Z</time>
      </trkpt>
      <trkpt lat="47.466338" lon="7.854554">
        <ele>400.354317</ele>
        <time>2021-11-22T09:20:27.917Z</time>
      </trkpt>
      <trkpt lat="47.466331" lon="7.853936">
        <ele>399.692837</ele>
        <time>2021-11-22T09:20:32.759Z</time>
      </trkpt>
      <trkpt lat="47.466256" lon="7.853287">
        <ele>398.988198</ele>
        <time>2021-11-22T09:20:37.805Z</time>
      </trkpt>
      <trkpt lat="47.465906" lon="7.851776">
        <ele>397.682204</ele>
        <time>2021-11-22T09:20:50.672Z</time>
      </trkpt>
      <trkpt lat="47.465871" lon="7.851620">
        <ele>397.550095</ele>
        <time>2021-11-22T09:20:51.986Z</time>
      </trkpt>
      <trkpt lat="47.465896" lon="7.851603">
        <ele>397.517382</ele>
        <time>2021-11-22T09:20:52.314Z</time>
      </trkpt>
      <trkpt lat="47.465931" lon="7.851497">
        <ele>397.422565</ele>
        <time>2021-11-22T09:20:53.306Z</time>
      </trkpt>
      <trkpt lat="47.465925" lon="7.851458">
        <ele>397.390418</ele>
        <time>2021-11-22T09:20:53.630Z</time>
      </trkpt>
      <trkpt lat="47.465914" lon="7.851427">
        <ele>397.362278</ele>
        <time>2021-11-22T09:20:53.914Z</time>
      </trkpt>
      <trkpt lat="47.465853" lon="7.851380">
        <ele>397.280505</ele>
        <time>2021-11-22T09:20:54.763Z</time>
      </trkpt>
      <trkpt lat="47.465829" lon="7.851383">
        <ele>397.251869</ele>
        <time>2021-11-22T09:20:55.049Z</time>
      </trkpt>
      <trkpt lat="47.465714" lon="7.850917">
        <ele>396.853148</ele>
        <time>2021-11-22T09:20:59.115Z</time>
      </trkpt>
      <trkpt lat="47.465620" lon="7.850585">
        <ele>396.544837</ele>
        <time>2021-11-22T09:21:02.066Z</time>
      </trkpt>
      <trkpt lat="47.465558" lon="7.850405">
        <ele>396.366770</ele>
        <time>2021-11-22T09:21:03.737Z</time>
      </trkpt>
      <trkpt lat="47.465348" lon="7.849875">
        <ele>395.825277</ele>
        <time>2021-11-22T09:21:08.631Z</time>
      </trkpt>
      <trkpt lat="47.465152" lon="7.849351">
        <ele>395.297414</ele>
        <time>2021-11-22T09:21:13.346Z</time>
      </trkpt>
      <trkpt lat="47.464952" lon="7.848443">
        <ele>394.455646</ele>
        <time>2021-11-22T09:21:20.835Z</time>
      </trkpt>
      <trkpt lat="47.464909" lon="7.848219">
        <ele>394.268903</ele>
        <time>2021-11-22T09:21:22.680Z</time>
      </trkpt>
      <trkpt lat="47.464850" lon="7.847870">
        <ele>393.987385</ele>
        <time>2021-11-22T09:21:25.481Z</time>
      </trkpt>
      <trkpt lat="47.464820" lon="7.847644">
        <ele>393.807153</ele>
        <time>2021-11-22T09:21:27.393Z</time>
      </trkpt>
      <trkpt lat="47.464784" lon="7.847333">
        <ele>393.560239</ele>
        <time>2021-11-22T09:21:29.900Z</time>
      </trkpt>
      <trkpt lat="47.464771" lon="7.847028">
        <ele>393.321089</ele>
        <time>2021-11-22T09:21:32.396Z</time>
      </trkpt>
      <trkpt lat="47.464737" lon="7.846119">
        <ele>392.608667</ele>
        <time>2021-11-22T09:21:39.710Z</time>
      </trkpt>
      <trkpt lat="47.464585" lon="7.844988">
        <ele>392.084007</ele>
        <time>2021-11-22T09:21:49.506Z</time>
      </trkpt>
      <trkpt lat="47.464433" lon="7.844273">
        <ele>391.850788</ele>
        <time>2021-11-22T09:21:56.221Z</time>
      </trkpt>
      <trkpt lat="47.464386" lon="7.844088">
        <ele>391.789293</ele>
        <time>2021-11-22T09:21:57.869Z</time>
      </trkpt>
      <trkpt lat="47.464354" lon="7.843960">
        <ele>391.746828</ele>
        <time>2021-11-22T09:21:59.272Z</time>
      </trkpt>
      <trkpt lat="47.464234" lon="7.843434">
        <ele>391.574090</ele>
        <time>2021-11-22T09:22:04.444Z</time>
      </trkpt>
      <trkpt lat="47.464176" lon="7.843178">
        <ele>391.520317</ele>
        <time>2021-11-22T09:22:06.862Z</time>
      </trkpt>
      <trkpt lat="47.464165" lon="7.843130">
        <ele>391.535494</ele>
        <time>2021-11-22T09:22:07.396Z</time>
      </trkpt>
      <trkpt lat="47.464075" lon="7.842774">
        <ele>391.649315</ele>
        <time>2021-11-22T09:22:12.288Z</time>
      </trkpt>
      <trkpt lat="47.464053" lon="7.842690">
        <ele>391.676292</ele>
        <time>2021-11-22T09:22:13.011Z</time>
      </trkpt>
      <trkpt lat="47.463971" lon="7.842355">
        <ele>391.782988</ele>
        <time>2021-11-22T09:22:17.941Z</time>
      </trkpt>
      <trkpt lat="47.463922" lon="7.842123">
        <ele>391.855776</ele>
        <time>2021-11-22T09:22:20.271Z</time>
      </trkpt>
      <trkpt lat="47.463874" lon="7.841863">
        <ele>391.936489</ele>
        <time>2021-11-22T09:22:24.477Z</time>
      </trkpt>
      <trkpt lat="47.463685" lon="7.841203">
        <ele>392.151139</ele>
        <time>2021-11-22T09:22:32.867Z</time>
      </trkpt>
      <trkpt lat="47.463616" lon="7.840992">
        <ele>392.221332</ele>
        <time>2021-11-22T09:22:35.814Z</time>
      </trkpt>
      <trkpt lat="47.463588" lon="7.840904">
        <ele>392.250458</ele>
        <time>2021-11-22T09:22:36.707Z</time>
      </trkpt>
      <trkpt lat="47.463287" lon="7.840028">
        <ele>391.961275</ele>
        <time>2021-11-22T09:22:45.448Z</time>
      </trkpt>
      <trkpt lat="47.463133" lon="7.839561">
        <ele>391.742507</ele>
        <time>2021-11-22T09:22:50.020Z</time>
      </trkpt>
      <trkpt lat="47.463043" lon="7.839292">
        <ele>391.616137</ele>
        <time>2021-11-22T09:22:52.471Z</time>
      </trkpt>
      <trkpt lat="47.462982" lon="7.839106">
        <ele>391.529096</ele>
        <time>2021-11-22T09:22:54.867Z</time>
      </trkpt>
      <trkpt lat="47.462967" lon="7.839047">
        <ele>391.502556</ele>
        <time>2021-11-22T09:22:55.351Z</time>
      </trkpt>
      <trkpt lat="47.462936" lon="7.838934">
        <ele>391.451211</ele>
        <time>2021-11-22T09:22:56.297Z</time>
      </trkpt>
      <trkpt lat="47.462883" lon="7.838488">
        <ele>391.260548</ele>
        <time>2021-11-22T09:23:00.250Z</time>
      </trkpt>
      <trkpt lat="47.462873" lon="7.838016">
        <ele>390.948580</ele>
        <time>2021-11-22T09:23:04.101Z</time>
      </trkpt>
      <trkpt lat="47.462871" lon="7.837954">
        <ele>390.897877</ele>
        <time>2021-11-22T09:23:04.547Z</time>
      </trkpt>
      <trkpt lat="47.462869" lon="7.837866">
        <ele>390.825952</ele>
        <time>2021-11-22T09:23:05.165Z</time>
      </trkpt>
      <trkpt lat="47.462865" lon="7.837711">
        <ele>390.699247</ele>
        <time>2021-11-22T09:23:06.457Z</time>
      </trkpt>
      <trkpt lat="47.462856" lon="7.837506">
        <ele>390.531438</ele>
        <time>2021-11-22T09:23:08.254Z</time>
      </trkpt>
      <trkpt lat="47.462851" lon="7.837404">
        <ele>390.447900</ele>
        <time>2021-11-22T09:23:08.958Z</time>
      </trkpt>
      <trkpt lat="47.462748" lon="7.836556">
        <ele>389.744112</ele>
        <time>2021-11-22T09:23:15.523Z</time>
      </trkpt>
      <trkpt lat="47.462730" lon="7.836472">
        <ele>389.672131</ele>
        <time>2021-11-22T09:23:16.405Z</time>
      </trkpt>
      <trkpt lat="47.462700" lon="7.836337">
        <ele>389.556051</ele>
        <time>2021-11-22T09:23:17.616Z</time>
      </trkpt>
      <trkpt lat="47.462666" lon="7.836201">
        <ele>389.437605</ele>
        <time>2021-11-22T09:23:18.810Z</time>
      </trkpt>
      <trkpt lat="47.462586" lon="7.835900">
        <ele>389.173412</ele>
        <time>2021-11-22T09:23:21.482Z</time>
      </trkpt>
      <trkpt lat="47.462388" lon="7.834991">
        <ele>388.585747</ele>
        <time>2021-11-22T09:23:29.866Z</time>
      </trkpt>
      <trkpt lat="47.462375" lon="7.834910">
        <ele>388.539004</ele>
        <time>2021-11-22T09:23:30.577Z</time>
      </trkpt>
      <trkpt lat="47.462357" lon="7.834782">
        <ele>388.465596</ele>
        <time>2021-11-22T09:23:31.604Z</time>
      </trkpt>
      <trkpt lat="47.462317" lon="7.834216">
        <ele>388.146068</ele>
        <time>2021-11-22T09:23:36.550Z</time>
      </trkpt>
      <trkpt lat="47.462296" lon="7.833933">
        <ele>387.986216</ele>
        <time>2021-11-22T09:23:38.942Z</time>
      </trkpt>
      <trkpt lat="47.462285" lon="7.833721">
        <ele>387.866832</ele>
        <time>2021-11-22T09:23:40.622Z</time>
      </trkpt>
      <trkpt lat="47.462217" lon="7.832953">
        <ele>387.457946</ele>
        <time>2021-11-22T09:23:47.172Z</time>
      </trkpt>
      <trkpt lat="47.462179" lon="7.832744">
        <ele>387.374438</ele>
        <time>2021-11-22T09:23:48.936Z</time>
      </trkpt>
      <trkpt lat="47.462080" lon="7.832335">
        <ele>387.206817</ele>
        <time>2021-11-22T09:23:52.671Z</time>
      </trkpt>
      <trkpt lat="47.462048" lon="7.832204">
        <ele>387.153073</ele>
        <time>2021-11-22T09:23:53.893Z</time>
      </trkpt>
      <trkpt lat="47.461918" lon="7.831668">
        <ele>386.933353</ele>
        <time>2021-11-22T09:23:58.786Z</time>
      </trkpt>
      <trkpt lat="47.461787" lon="7.831158">
        <ele>386.722845</ele>
        <time>2021-11-22T09:24:03.798Z</time>
      </trkpt>
      <trkpt lat="47.461585" lon="7.830158">
        <ele>386.544900</ele>
        <time>2021-11-22T09:24:13.641Z</time>
      </trkpt>
      <trkpt lat="47.461548" lon="7.829918">
        <ele>386.576660</ele>
        <time>2021-11-22T09:24:15.856Z</time>
      </trkpt>
      <trkpt lat="47.461473" lon="7.829886">
        <ele>386.591556</ele>
        <time>2021-11-22T09:24:16.914Z</time>
      </trkpt>
      <trkpt lat="47.460850" lon="7.828883">
        <ele>386.767288</ele>
        <time>2021-11-22T09:24:31.093Z</time>
      </trkpt>
      <trkpt lat="47.460628" lon="7.828763">
        <ele>386.812394</ele>
        <time>2021-11-22T09:24:34.972Z</time>
      </trkpt>
      <trkpt lat="47.460011" lon="7.828663">
        <ele>387.592305</ele>
        <time>2021-11-22T09:24:47.388Z</time>
      </trkpt>
      <trkpt lat="47.459940" lon="7.828652">
        <ele>387.696932</ele>
        <time>2021-11-22T09:24:48.753Z</time>
      </trkpt>
      <trkpt lat="47.459537" lon="7.828672">
        <ele>388.287907</ele>
        <time>2021-11-22T09:24:57.906Z</time>
      </trkpt>
      <trkpt lat="47.459456" lon="7.828693">
        <ele>388.408432</ele>
        <time>2021-11-22T09:25:00.036Z</time>
      </trkpt>
      <trkpt lat="47.458992" lon="7.829105">
        <ele>389.201614</ele>
        <time>2021-11-22T09:25:11.209Z</time>
      </trkpt>
      <trkpt lat="47.458779" lon="7.829408">
        <ele>389.579781</ele>
        <time>2021-11-22T09:25:17.408Z</time>
      </trkpt>
      <trkpt lat="47.458605" lon="7.829769">
        <ele>389.874338</ele>
        <time>2021-11-22T09:25:23.760Z</time>
      </trkpt>
      <trkpt lat="47.458483" lon="7.830002">
        <ele>390.070138</ele>
        <time>2021-11-22T09:25:27.894Z</time>
      </trkpt>
      <trkpt lat="47.458385" lon="7.829959">
        <ele>390.170589</ele>
        <time>2021-11-22T09:25:30.197Z</time>
      </trkpt>
      <trkpt lat="47.458230" lon="7.829919">
        <ele>390.325204</ele>
        <time>2021-11-22T09:25:33.136Z</time>
      </trkpt>
      <trkpt lat="47.457731" lon="7.829812">
        <ele>390.820683</ele>
        <time>2021-11-22T09:25:44.792Z</time>
      </trkpt>
      <trkpt lat="47.457427" lon="7.829810">
        <ele>391.119418</ele>
        <time>2021-11-22T09:25:51.835Z</time>
      </trkpt>
      <trkpt lat="47.456847" lon="7.829841">
        <ele>391.590315</ele>
        <time>2021-11-22T09:26:03.992Z</time>
      </trkpt>
      <trkpt lat="47.456508" lon="7.829890">
        <ele>391.851779</ele>
        <time>2021-11-22T09:26:10.855Z</time>
      </trkpt>
      <trkpt lat="47.456217" lon="7.829960">
        <ele>392.078093</ele>
        <time>2021-11-22T09:26:17.924Z</time>
      </trkpt>
      <trkpt lat="47.455686" lon="7.830084">
        <ele>392.490751</ele>
        <time>2021-11-22T09:26:30.802Z</time>
      </trkpt>
      <trkpt lat="47.455667" lon="7.830016">
        <ele>392.528940</ele>
        <time>2021-11-22T09:26:32.262Z</time>
      </trkpt>
      <trkpt lat="47.455644" lon="7.829891">
        <ele>392.596179</ele>
        <time>2021-11-22T09:26:34.867Z</time>
      </trkpt>
      <trkpt lat="47.455626" lon="7.829799">
        <ele>392.696570</ele>
        <time>2021-11-22T09:26:36.169Z</time>
      </trkpt>
      <trkpt lat="47.455584" lon="7.829685">
        <ele>392.878569</ele>
        <time>2021-11-22T09:26:38.255Z</time>
      </trkpt>
      <trkpt lat="47.455556" lon="7.829615">
        <ele>392.992587</ele>
        <time>2021-11-22T09:26:39.471Z</time>
      </trkpt>
      <trkpt lat="47.455471" lon="7.829717">
        <ele>393.219532</ele>
        <time>2021-11-22T09:26:42.583Z</time>
      </trkpt>
      <trkpt lat="47.455265" lon="7.829874">
        <ele>393.700009</ele>
        <time>2021-11-22T09:26:47.132Z</time>
      </trkpt>
      <trkpt lat="47.455185" lon="7.829882">
        <ele>393.866252</ele>
        <time>2021-11-22T09:26:49.251Z</time>
      </trkpt>
      <trkpt lat="47.455119" lon="7.829864">
        <ele>394.005397</ele>
        <time>2021-11-22T09:26:51.297Z</time>
      </trkpt>
      <trkpt lat="47.454803" lon="7.829577">
        <ele>394.774243</ele>
        <time>2021-11-22T09:27:00.316Z</time>
      </trkpt>
      <trkpt lat="47.454625" lon="7.829495">
        <ele>395.160781</ele>
        <time>2021-11-22T09:27:04.362Z</time>
      </trkpt>
      <trkpt lat="47.454472" lon="7.829506">
        <ele>395.478371</ele>
        <time>2021-11-22T09:27:08.539Z</time>
      </trkpt>
      <trkpt lat="47.454371" lon="7.829564">
        <ele>395.703007</ele>
        <time>2021-11-22T09:27:11.034Z</time>
      </trkpt>
      <trkpt lat="47.454287" lon="7.829611">
        <ele>395.889212</ele>
        <time>2021-11-22T09:27:12.815Z</time>
      </trkpt>
      <trkpt lat="47.453989" lon="7.829813">
        <ele>396.484395</ele>
        <time>2021-11-22T09:27:21.079Z</time>
      </trkpt>
      <trkpt lat="47.453757" lon="7.829984">
        <ele>396.818835</ele>
        <time>2021-11-22T09:27:27.409Z</time>
      </trkpt>
      <trkpt lat="47.453492" lon="7.830220">
        <ele>397.217942</ele>
        <time>2021-11-22T09:27:33.696Z</time>
      </trkpt>
      <trkpt lat="47.453398" lon="7.830308">
        <ele>397.361477</ele>
        <time>2021-11-22T09:27:36.248Z</time>
      </trkpt>
      <trkpt lat="47.453250" lon="7.830464">
        <ele>397.595963</ele>
        <time>2021-11-22T09:27:39.519Z</time>
      </trkpt>
      <trkpt lat="47.452983" lon="7.830796">
        <ele>398.046030</ele>
        <time>2021-11-22T09:27:46.167Z</time>
      </trkpt>
      <trkpt lat="47.452618" lon="7.831252">
        <ele>398.662496</ele>
        <time>2021-11-22T09:27:54.852Z</time>
      </trkpt>
      <trkpt lat="47.452373" lon="7.831505">
        <ele>398.730865</ele>
        <time>2021-11-22T09:27:59.550Z</time>
      </trkpt>
      <trkpt lat="47.452175" lon="7.831696">
        <ele>398.782768</ele>
        <time>2021-11-22T09:28:03.288Z</time>
      </trkpt>
      <trkpt lat="47.451989" lon="7.831857">
        <ele>398.830087</ele>
        <time>2021-11-22T09:28:06.274Z</time>
      </trkpt>
      <trkpt lat="47.451701" lon="7.832106">
        <ele>398.903333</ele>
        <time>2021-11-22T09:28:11.038Z</time>
      </trkpt>
      <trkpt lat="47.451426" lon="7.832356">
        <ele>398.974208</ele>
        <time>2021-11-22T09:28:15.761Z</time>
      </trkpt>
      <trkpt lat="47.451327" lon="7.832461">
        <ele>399.000956</ele>
        <time>2021-11-22T09:28:17.720Z</time>
      </trkpt>
      <trkpt lat="47.451121" lon="7.832696">
        <ele>399.058079</ele>
        <time>2021-11-22T09:28:21.539Z</time>
      </trkpt>
      <trkpt lat="47.450016" lon="7.834124">
        <ele>400.282947</ele>
        <time>2021-11-22T09:28:47.854Z</time>
      </trkpt>
      <trkpt lat="47.449811" lon="7.834354">
        <ele>400.499041</ele>
        <time>2021-11-22T09:28:53.195Z</time>
      </trkpt>
      <trkpt lat="47.449669" lon="7.834494">
        <ele>400.730309</ele>
        <time>2021-11-22T09:28:56.501Z</time>
      </trkpt>
      <trkpt lat="47.449505" lon="7.834629">
        <ele>401.082682</ele>
        <time>2021-11-22T09:29:00.591Z</time>
      </trkpt>
      <trkpt lat="47.449275" lon="7.834788">
        <ele>401.559326</ele>
        <time>2021-11-22T09:29:05.787Z</time>
      </trkpt>
      <trkpt lat="47.448956" lon="7.834983">
        <ele>402.207352</ele>
        <time>2021-11-22T09:29:13.229Z</time>
      </trkpt>
      <trkpt lat="47.448978" lon="7.835062">
        <ele>402.315818</ele>
        <time>2021-11-22T09:29:14.859Z</time>
      </trkpt>
      <trkpt lat="47.448622" lon="7.835311">
        <ele>403.055145</ele>
        <time>2021-11-22T09:29:25.924Z</time>
      </trkpt>
      <trkpt lat="47.447487" lon="7.836460">
        <ele>406.361686</ele>
        <time>2021-11-22T09:30:07.736Z</time>
      </trkpt>
      <trkpt lat="47.447146" lon="7.836805">
        <ele>407.469870</ele>
        <time>2021-11-22T09:30:20.536Z</time>
      </trkpt>
      <trkpt lat="47.446145" lon="7.837696">
        <ele>410.824979</ele>
        <time>2021-11-22T09:30:57.942Z</time>
      </trkpt>
      <trkpt lat="47.446064" lon="7.837840">
        <ele>411.205789</ele>
        <time>2021-11-22T09:31:02.149Z</time>
      </trkpt>
      <trkpt lat="47.445528" lon="7.838233">
        <ele>413.004425</ele>
        <time>2021-11-22T09:31:21.582Z</time>
      </trkpt>
      <trkpt lat="47.445072" lon="7.838787">
        <ele>414.721543</ele>
        <time>2021-11-22T09:31:40.507Z</time>
      </trkpt>
      <trkpt lat="47.444584" lon="7.839628">
        <ele>416.759671</ele>
        <time>2021-11-22T09:32:04.377Z</time>
      </trkpt>
      <trkpt lat="47.443079" lon="7.842585">
        <ele>422.946762</ele>
        <time>2021-11-22T09:33:19.629Z</time>
      </trkpt>
      <trkpt lat="47.442391" lon="7.843670">
        <ele>424.447553</ele>
        <time>2021-11-22T09:33:47.327Z</time>
      </trkpt>
      <trkpt lat="47.438127" lon="7.849642">
        <ele>431.943922</ele>
        <time>2021-11-22T09:36:15.006Z</time>
      </trkpt>
      <trkpt lat="47.437750" lon="7.850017">
        <ele>432.413954</ele>
        <time>2021-11-22T09:36:25.178Z</time>
      </trkpt>
      <trkpt lat="47.437310" lon="7.850269">
        <ele>432.907699</ele>
        <time>2021-11-22T09:36:35.816Z</time>
      </trkpt>
      <trkpt lat="47.436663" lon="7.850327">
        <ele>433.586056</ele>
        <time>2021-11-22T09:36:51.120Z</time>
      </trkpt>
      <trkpt lat="47.436538" lon="7.850283">
        <ele>433.720531</ele>
        <time>2021-11-22T09:36:53.750Z</time>
      </trkpt>
      <trkpt lat="47.436479" lon="7.850260">
        <ele>433.784387</ele>
        <time>2021-11-22T09:36:55.788Z</time>
      </trkpt>
      <trkpt lat="47.436050" lon="7.850036">
        <ele>434.260533</ele>
        <time>2021-11-22T09:37:07.077Z</time>
      </trkpt>
      <trkpt lat="47.434846" lon="7.849169">
        <ele>436.827627</ele>
        <time>2021-11-22T09:37:45.840Z</time>
      </trkpt>
      <trkpt lat="47.434500" lon="7.848920">
        <ele>437.575733</ele>
        <time>2021-11-22T09:37:56.774Z</time>
      </trkpt>
      <trkpt lat="47.433795" lon="7.848524">
        <ele>438.921229</ele>
        <time>2021-11-22T09:38:16.877Z</time>
      </trkpt>
      <trkpt lat="47.433528" lon="7.848396">
        <ele>439.413899</ele>
        <time>2021-11-22T09:38:24.563Z</time>
      </trkpt>
      <trkpt lat="47.433365" lon="7.848309">
        <ele>439.718076</ele>
        <time>2021-11-22T09:38:29.053Z</time>
      </trkpt>
      <trkpt lat="47.432515" lon="7.847914">
        <ele>441.358450</ele>
        <time>2021-11-22T09:38:53.743Z</time>
      </trkpt>
      <trkpt lat="47.432368" lon="7.847858">
        <ele>441.687524</ele>
        <time>2021-11-22T09:38:57.593Z</time>
      </trkpt>
      <trkpt lat="47.431726" lon="7.847615">
        <ele>443.124132</ele>
        <time>2021-11-22T09:39:16.198Z</time>
      </trkpt>
      <trkpt lat="47.431292" lon="7.847484">
        <ele>444.084359</ele>
        <time>2021-11-22T09:39:29.089Z</time>
      </trkpt>
      <trkpt lat="47.430641" lon="7.847433">
        <ele>445.546278</ele>
        <time>2021-11-22T09:39:49.638Z</time>
      </trkpt>
      <trkpt lat="47.430098" lon="7.847528">
        <ele>446.821569</ele>
        <time>2021-11-22T09:40:06.433Z</time>
      </trkpt>
      <trkpt lat="47.429436" lon="7.847758">
        <ele>448.407641</ele>
        <time>2021-11-22T09:40:26.022Z</time>
      </trkpt>
      <trkpt lat="47.429321" lon="7.847805">
        <ele>448.685921</ele>
        <time>2021-11-22T09:40:29.605Z</time>
      </trkpt>
      <trkpt lat="47.428781" lon="7.847991">
        <ele>449.763935</ele>
        <time>2021-11-22T09:40:44.721Z</time>
      </trkpt>
      <trkpt lat="47.428268" lon="7.848175">
        <ele>450.709754</ele>
        <time>2021-11-22T09:40:59.299Z</time>
      </trkpt>
      <trkpt lat="47.427648" lon="7.848283">
        <ele>451.828302</ele>
        <time>2021-11-22T09:41:16.116Z</time>
      </trkpt>
      <trkpt lat="47.425165" lon="7.848031">
        <ele>456.149684</ele>
        <time>2021-11-22T09:42:24.075Z</time>
      </trkpt>
      <trkpt lat="47.425093" lon="7.848037">
        <ele>456.259586</ele>
        <time>2021-11-22T09:42:26.264Z</time>
      </trkpt>
      <trkpt lat="47.425016" lon="7.848030">
        <ele>456.377156</ele>
        <time>2021-11-22T09:42:28.254Z</time>
      </trkpt>
      <trkpt lat="47.424743" lon="7.847935">
        <ele>456.804583</ele>
        <time>2021-11-22T09:42:35.322Z</time>
      </trkpt>
      <trkpt lat="47.423887" lon="7.847874">
        <ele>458.110642</ele>
        <time>2021-11-22T09:42:57.468Z</time>
      </trkpt>
      <trkpt lat="47.423788" lon="7.847858">
        <ele>458.281317</ele>
        <time>2021-11-22T09:42:59.848Z</time>
      </trkpt>
      <trkpt lat="47.423488" lon="7.847784">
        <ele>458.940134</ele>
        <time>2021-11-22T09:43:07.948Z</time>
      </trkpt>
      <trkpt lat="47.423401" lon="7.847760">
        <ele>459.131839</ele>
        <time>2021-11-22T09:43:10.174Z</time>
      </trkpt>
      <trkpt lat="47.423326" lon="7.847739">
        <ele>459.297186</ele>
        <time>2021-11-22T09:43:12.199Z</time>
      </trkpt>
      <trkpt lat="47.423175" lon="7.847645">
        <ele>459.652094</ele>
        <time>2021-11-22T09:43:16.514Z</time>
      </trkpt>
      <trkpt lat="47.423160" lon="7.847639">
        <ele>459.685754</ele>
        <time>2021-11-22T09:43:16.942Z</time>
      </trkpt>
      <trkpt lat="47.422830" lon="7.847504">
        <ele>460.427443</ele>
        <time>2021-11-22T09:43:26.714Z</time>
      </trkpt>
      <trkpt lat="47.422224" lon="7.847204">
        <ele>461.811774</ele>
        <time>2021-11-22T09:43:46.613Z</time>
      </trkpt>
      <trkpt lat="47.421782" lon="7.847034">
        <ele>463.073215</ele>
        <time>2021-11-22T09:44:01.373Z</time>
      </trkpt>
      <trkpt lat="47.421469" lon="7.846914">
        <ele>464.050909</ele>
        <time>2021-11-22T09:44:12.051Z</time>
      </trkpt>
      <trkpt lat="47.421216" lon="7.846840">
        <ele>464.830704</ele>
        <time>2021-11-22T09:44:20.300Z</time>
      </trkpt>
      <trkpt lat="47.420292" lon="7.846569">
        <ele>467.699597</ele>
        <time>2021-11-22T09:44:50.350Z</time>
      </trkpt>
      <trkpt lat="47.419677" lon="7.846349">
        <ele>469.923748</ele>
        <time>2021-11-22T09:45:11.832Z</time>
      </trkpt>
      <trkpt lat="47.418787" lon="7.845930">
        <ele>473.206993</ele>
        <time>2021-11-22T09:45:44.796Z</time>
      </trkpt>
      <trkpt lat="47.418505" lon="7.845770">
        <ele>474.160590</ele>
        <time>2021-11-22T09:45:55.584Z</time>
      </trkpt>
      <trkpt lat="47.417834" lon="7.845378">
        <ele>476.001537</ele>
        <time>2021-11-22T09:46:19.619Z</time>
      </trkpt>
      <trkpt lat="47.417634" lon="7.845250">
        <ele>476.557626</ele>
        <time>2021-11-22T09:46:27.013Z</time>
      </trkpt>
      <trkpt lat="47.417039" lon="7.844872">
        <ele>478.210079</ele>
        <time>2021-11-22T09:46:45.016Z</time>
      </trkpt>
      <trkpt lat="47.416215" lon="7.844386">
        <ele>478.422302</ele>
        <time>2021-11-22T09:47:03.376Z</time>
      </trkpt>
      <trkpt lat="47.415184" lon="7.843954">
        <ele>478.446572</ele>
        <time>2021-11-22T09:47:22.785Z</time>
      </trkpt>
      <trkpt lat="47.415123" lon="7.843938">
        <ele>478.524760</ele>
        <time>2021-11-22T09:47:23.875Z</time>
      </trkpt>
      <trkpt lat="47.414737" lon="7.843840">
        <ele>479.019043</ele>
        <time>2021-11-22T09:47:32.302Z</time>
      </trkpt>
      <trkpt lat="47.414534" lon="7.843769">
        <ele>479.282314</ele>
        <time>2021-11-22T09:47:37.226Z</time>
      </trkpt>
      <trkpt lat="47.414127" lon="7.843761">
        <ele>479.796009</ele>
        <time>2021-11-22T09:47:48.078Z</time>
      </trkpt>
      <trkpt lat="47.413673" lon="7.843752">
        <ele>480.369025</ele>
        <time>2021-11-22T09:48:00.833Z</time>
      </trkpt>
      <trkpt lat="47.412891" lon="7.843894">
        <ele>482.161550</ele>
        <time>2021-11-22T09:48:25.224Z</time>
      </trkpt>
      <trkpt lat="47.412769" lon="7.843850">
        <ele>482.494828</ele>
        <time>2021-11-22T09:48:29.514Z</time>
      </trkpt>
      <trkpt lat="47.411785" lon="7.844178">
        <ele>485.171875</ele>
        <time>2021-11-22T09:48:55.136Z</time>
      </trkpt>
      <trkpt lat="47.411264" lon="7.844343">
        <ele>487.165282</ele>
        <time>2021-11-22T09:49:08.362Z</time>
      </trkpt>
      <trkpt lat="47.411235" lon="7.844348">
        <ele>487.281038</ele>
        <time>2021-11-22T09:49:08.854Z</time>
      </trkpt>
      <trkpt lat="47.411166" lon="7.844371">
        <ele>487.561477</ele>
        <time>2021-11-22T09:49:10.488Z</time>
      </trkpt>
      <trkpt lat="47.410433" lon="7.844607">
        <ele>490.535789</ele>
        <time>2021-11-22T09:49:33.100Z</time>
      </trkpt>
      <trkpt lat="47.410293" lon="7.844651">
        <ele>491.103263</ele>
        <time>2021-11-22T09:49:38.019Z</time>
      </trkpt>
      <trkpt lat="47.410148" lon="7.844709">
        <ele>491.698836</ele>
        <time>2021-11-22T09:49:42.979Z</time>
      </trkpt>
      <trkpt lat="47.409986" lon="7.844760">
        <ele>492.355533</ele>
        <time>2021-11-22T09:49:48.843Z</time>
      </trkpt>
      <trkpt lat="47.409830" lon="7.844820">
        <ele>493.257765</ele>
        <time>2021-11-22T09:49:55.345Z</time>
      </trkpt>
      <trkpt lat="47.409752" lon="7.844850">
        <ele>493.763955</ele>
        <time>2021-11-22T09:49:58.545Z</time>
      </trkpt>
      <trkpt lat="47.409665" lon="7.844882">
        <ele>494.327019</ele>
        <time>2021-11-22T09:50:02.702Z</time>
      </trkpt>
      <trkpt lat="47.409459" lon="7.844940">
        <ele>495.644047</ele>
        <time>2021-11-22T09:50:11.964Z</time>
      </trkpt>
      <trkpt lat="47.409210" lon="7.844968">
        <ele>497.212377</ele>
        <time>2021-11-22T09:50:22.693Z</time>
      </trkpt>
      <trkpt lat="47.409142" lon="7.844968">
        <ele>497.639441</ele>
        <time>2021-11-22T09:50:26.229Z</time>
      </trkpt>
      <trkpt lat="47.408437" lon="7.844931">
        <ele>502.069880</ele>
        <time>2021-11-22T09:50:54.870Z</time>
      </trkpt>
      <trkpt lat="47.408170" lon="7.844961">
        <ele>503.751575</ele>
        <time>2021-11-22T09:51:05.125Z</time>
      </trkpt>
      <trkpt lat="47.407704" lon="7.845059">
        <ele>505.219967</ele>
        <time>2021-11-22T09:51:22.833Z</time>
      </trkpt>
      <trkpt lat="47.406668" lon="7.845324">
        <ele>508.397215</ele>
        <time>2021-11-22T09:51:49.113Z</time>
      </trkpt>
      <trkpt lat="47.406444" lon="7.845434">
        <ele>509.110526</ele>
        <time>2021-11-22T09:51:52.949Z</time>
      </trkpt>
      <trkpt lat="47.406156" lon="7.845724">
        <ele>509.427714</ele>
        <time>2021-11-22T09:51:58.529Z</time>
      </trkpt>
      <trkpt lat="47.405939" lon="7.846047">
        <ele>509.587191</ele>
        <time>2021-11-22T09:52:03.489Z</time>
      </trkpt>
      <trkpt lat="47.405700" lon="7.846541">
        <ele>509.799974</ele>
        <time>2021-11-22T09:52:10.390Z</time>
      </trkpt>
      <trkpt lat="47.404908" lon="7.848505">
        <ele>510.940847</ele>
        <time>2021-11-22T09:52:35.679Z</time>
      </trkpt>
      <trkpt lat="47.404852" lon="7.848646">
        <ele>511.047497</ele>
        <time>2021-11-22T09:52:38.005Z</time>
      </trkpt>
      <trkpt lat="47.404726" lon="7.848932">
        <ele>511.270117</ele>
        <time>2021-11-22T09:52:40.979Z</time>
      </trkpt>
      <trkpt lat="47.404599" lon="7.849165">
        <ele>511.465280</ele>
        <time>2021-11-22T09:52:44.757Z</time>
      </trkpt>
      <trkpt lat="47.404383" lon="7.849389">
        <ele>511.719641</ele>
        <time>2021-11-22T09:52:49.762Z</time>
      </trkpt>
      <trkpt lat="47.403486" lon="7.850249">
        <ele>516.741302</ele>
        <time>2021-11-22T09:53:18.918Z</time>
      </trkpt>
      <trkpt lat="47.402868" lon="7.850841">
        <ele>520.949630</ele>
        <time>2021-11-22T09:53:50.671Z</time>
      </trkpt>
      <trkpt lat="47.401845" lon="7.851841">
        <ele>531.504945</ele>
        <time>2021-11-22T09:54:59.821Z</time>
      </trkpt>
      <trkpt lat="47.401481" lon="7.852058">
        <ele>535.133188</ele>
        <time>2021-11-22T09:55:21.590Z</time>
      </trkpt>
      <trkpt lat="47.400993" lon="7.852181">
        <ele>539.218382</ele>
        <time>2021-11-22T09:55:45.362Z</time>
      </trkpt>
      <trkpt lat="47.400748" lon="7.852175">
        <ele>540.199551</ele>
        <time>2021-11-22T09:55:55.247Z</time>
      </trkpt>
      <trkpt lat="47.399819" lon="7.851860">
        <ele>544.016185</ele>
        <time>2021-11-22T09:56:25.661Z</time>
      </trkpt>
      <trkpt lat="47.399740" lon="7.851900">
        <ele>544.350580</ele>
        <time>2021-11-22T09:56:26.923Z</time>
      </trkpt>
      <trkpt lat="47.397784" lon="7.852878">
        <ele>547.685988</ele>
        <time>2021-11-22T09:57:02.988Z</time>
      </trkpt>
      <trkpt lat="47.397584" lon="7.852978">
        <ele>548.018866</ele>
        <time>2021-11-22T09:57:07.339Z</time>
      </trkpt>
      <trkpt lat="47.397466" lon="7.853058">
        <ele>548.440419</ele>
        <time>2021-11-22T09:57:10.463Z</time>
      </trkpt>
      <trkpt lat="47.397399" lon="7.853113">
        <ele>548.689290</ele>
        <time>2021-11-22T09:57:12.739Z</time>
      </trkpt>
      <trkpt lat="47.397240" lon="7.853282">
        <ele>549.325284</ele>
        <time>2021-11-22T09:57:17.052Z</time>
      </trkpt>
      <trkpt lat="47.397171" lon="7.853390">
        <ele>549.651683</ele>
        <time>2021-11-22T09:57:19.771Z</time>
      </trkpt>
      <trkpt lat="47.397013" lon="7.853694">
        <ele>550.494064</ele>
        <time>2021-11-22T09:57:26.414Z</time>
      </trkpt>
      <trkpt lat="47.396956" lon="7.853787">
        <ele>550.769804</ele>
        <time>2021-11-22T09:57:28.751Z</time>
      </trkpt>
      <trkpt lat="47.396904" lon="7.853864">
        <ele>551.008859</ele>
        <time>2021-11-22T09:57:31.268Z</time>
      </trkpt>
      <trkpt lat="47.396734" lon="7.854071">
        <ele>551.724166</ele>
        <time>2021-11-22T09:57:37.071Z</time>
      </trkpt>
      <trkpt lat="47.396458" lon="7.854340">
        <ele>552.797772</ele>
        <time>2021-11-22T09:57:47.361Z</time>
      </trkpt>
      <trkpt lat="47.396094" lon="7.854648">
        <ele>554.346149</ele>
        <time>2021-11-22T09:58:02.251Z</time>
      </trkpt>
      <trkpt lat="47.395630" lon="7.854989">
        <ele>556.686292</ele>
        <time>2021-11-22T09:58:20.636Z</time>
      </trkpt>
      <trkpt lat="47.395563" lon="7.855042">
        <ele>557.029476</ele>
        <time>2021-11-22T09:58:23.360Z</time>
      </trkpt>
      <trkpt lat="47.395483" lon="7.855116">
        <ele>557.455690</ele>
        <time>2021-11-22T09:58:26.758Z</time>
      </trkpt>
      <trkpt lat="47.395428" lon="7.855175">
        <ele>557.762615</ele>
        <time>2021-11-22T09:58:28.896Z</time>
      </trkpt>
      <trkpt lat="47.395350" lon="7.855275">
        <ele>558.228968</ele>
        <time>2021-11-22T09:58:31.769Z</time>
      </trkpt>
      <trkpt lat="47.395261" lon="7.855418">
        <ele>558.822745</ele>
        <time>2021-11-22T09:58:36.134Z</time>
      </trkpt>
      <trkpt lat="47.395196" lon="7.855528">
        <ele>559.269067</ele>
        <time>2021-11-22T09:58:39.418Z</time>
      </trkpt>
      <trkpt lat="47.395075" lon="7.855775">
        <ele>560.201034</ele>
        <time>2021-11-22T09:58:45.645Z</time>
      </trkpt>
      <trkpt lat="47.395030" lon="7.855860">
        <ele>560.530877</ele>
        <time>2021-11-22T09:58:48.341Z</time>
      </trkpt>
      <trkpt lat="47.394997" lon="7.855921">
        <ele>560.769565</ele>
        <time>2021-11-22T09:58:49.976Z</time>
      </trkpt>
      <trkpt lat="47.394873" lon="7.856111">
        <ele>561.576296</ele>
        <time>2021-11-22T09:58:55.167Z</time>
      </trkpt>
      <trkpt lat="47.394762" lon="7.856268">
        <ele>562.180995</ele>
        <time>2021-11-22T09:59:00.456Z</time>
      </trkpt>
      <trkpt lat="47.394330" lon="7.856716">
        <ele>564.107676</ele>
        <time>2021-11-22T09:59:16.625Z</time>
      </trkpt>
      <trkpt lat="47.393840" lon="7.857424">
        <ele>566.609648</ele>
        <time>2021-11-22T09:59:36.433Z</time>
      </trkpt>
      <trkpt lat="47.393747" lon="7.857569">
        <ele>567.103229</ele>
        <time>2021-11-22T09:59:40.118Z</time>
      </trkpt>
      <trkpt lat="47.393712" lon="7.857629">
        <ele>567.298943</ele>
        <time>2021-11-22T09:59:41.694Z</time>
      </trkpt>
      <trkpt lat="47.393583" lon="7.857849">
        <ele>568.018154</ele>
        <time>2021-11-22T09:59:47.068Z</time>
      </trkpt>
      <trkpt lat="47.392873" lon="7.859213">
        <ele>573.045145</ele>
        <time>2021-11-22T10:00:20.022Z</time>
      </trkpt>
      <trkpt lat="47.392446" lon="7.860609">
        <ele>578.207349</ele>
        <time>2021-11-22T10:00:58.982Z</time>
      </trkpt>
      <trkpt lat="47.392252" lon="7.861291">
        <ele>581.417855</ele>
        <time>2021-11-22T10:01:19.241Z</time>
      </trkpt>
      <trkpt lat="47.392159" lon="7.861591">
        <ele>582.849851</ele>
        <time>2021-11-22T10:01:28.411Z</time>
      </trkpt>
      <trkpt lat="47.392013" lon="7.861871">
        <ele>584.383708</ele>
        <time>2021-11-22T10:01:37.466Z</time>
      </trkpt>
      <trkpt lat="47.391930" lon="7.862028">
        <ele>585.248227</ele>
        <time>2021-11-22T10:01:43.785Z</time>
      </trkpt>
      <trkpt lat="47.391861" lon="7.862140">
        <ele>585.905447</ele>
        <time>2021-11-22T10:01:48.192Z</time>
      </trkpt>
      <trkpt lat="47.390852" lon="7.863147">
        <ele>595.194296</ele>
        <time>2021-11-22T10:02:40.580Z</time>
      </trkpt>
      <trkpt lat="47.390658" lon="7.863426">
        <ele>597.363224</ele>
        <time>2021-11-22T10:02:52.564Z</time>
      </trkpt>
      <trkpt lat="47.390138" lon="7.864689">
        <ele>606.965906</ele>
        <time>2021-11-22T10:03:45.094Z</time>
      </trkpt>
      <trkpt lat="47.390057" lon="7.865367">
        <ele>612.550047</ele>
        <time>2021-11-22T10:04:14.358Z</time>
      </trkpt>
      <trkpt lat="47.390028" lon="7.865801">
        <ele>616.087275</ele>
        <time>2021-11-22T10:04:34.554Z</time>
      </trkpt>
      <trkpt lat="47.389913" lon="7.867526">
        <ele>629.950010</ele>
        <time>2021-11-22T10:05:54.885Z</time>
      </trkpt>
      <trkpt lat="47.389908" lon="7.868143">
        <ele>634.801779</ele>
        <time>2021-11-22T10:06:22.981Z</time>
      </trkpt>
      <trkpt lat="47.389999" lon="7.868629">
        <ele>638.766618</ele>
        <time>2021-11-22T10:06:42.464Z</time>
      </trkpt>
      <trkpt lat="47.390135" lon="7.868913">
        <ele>641.501853</ele>
        <time>2021-11-22T10:06:54.793Z</time>
      </trkpt>
      <trkpt lat="47.390810" lon="7.869784">
        <ele>650.412839</ele>
        <time>2021-11-22T10:07:41.244Z</time>
      </trkpt>
      <trkpt lat="47.391246" lon="7.870873">
        <ele>658.316541</ele>
        <time>2021-11-22T10:08:25.291Z</time>
      </trkpt>
      <trkpt lat="47.391248" lon="7.870968">
        <ele>658.910298</ele>
        <time>2021-11-22T10:08:29.412Z</time>
      </trkpt>
      <trkpt lat="47.391237" lon="7.871032">
        <ele>659.322793</ele>
        <time>2021-11-22T10:08:33.315Z</time>
      </trkpt>
      <trkpt lat="47.391155" lon="7.871190">
        <ele>660.566493</ele>
        <time>2021-11-22T10:08:38.527Z</time>
      </trkpt>
      <trkpt lat="47.391042" lon="7.871238">
        <ele>661.597022</ele>
        <time>2021-11-22T10:08:43.460Z</time>
      </trkpt>
      <trkpt lat="47.390859" lon="7.871070">
        <ele>663.337006</ele>
        <time>2021-11-22T10:08:55.323Z</time>
      </trkpt>
      <trkpt lat="47.390762" lon="7.870887">
        <ele>664.607657</ele>
        <time>2021-11-22T10:09:02.184Z</time>
      </trkpt>
      <trkpt lat="47.390678" lon="7.870726">
        <ele>665.718921</ele>
        <time>2021-11-22T10:09:10.884Z</time>
      </trkpt>
      <trkpt lat="47.390389" lon="7.870365">
        <ele>668.775384</ele>
        <time>2021-11-22T10:09:29.659Z</time>
      </trkpt>
      <trkpt lat="47.389733" lon="7.870073">
        <ele>674.308246</ele>
        <time>2021-11-22T10:10:02.413Z</time>
      </trkpt>
      <trkpt lat="47.389569" lon="7.869837">
        <ele>675.906271</ele>
        <time>2021-11-22T10:10:12.229Z</time>
      </trkpt>
      <trkpt lat="47.388898" lon="7.868496">
        <ele>679.535244</ele>
        <time>2021-11-22T10:10:44.653Z</time>
      </trkpt>
      <trkpt lat="47.388714" lon="7.868237">
        <ele>680.352284</ele>
        <time>2021-11-22T10:10:50.478Z</time>
      </trkpt>
      <trkpt lat="47.388570" lon="7.868126">
        <ele>680.874419</ele>
        <time>2021-11-22T10:10:53.310Z</time>
      </trkpt>
      <trkpt lat="47.388489" lon="7.868068">
        <ele>681.163779</ele>
        <time>2021-11-22T10:10:56.182Z</time>
      </trkpt>
      <trkpt lat="47.388334" lon="7.867941">
        <ele>681.579933</ele>
        <time>2021-11-22T10:10:58.157Z</time>
      </trkpt>
      <trkpt lat="47.387851" lon="7.867311">
        <ele>682.146457</ele>
        <time>2021-11-22T10:11:10.147Z</time>
      </trkpt>
      <trkpt lat="47.387697" lon="7.867213">
        <ele>682.293883</ele>
        <time>2021-11-22T10:11:12.503Z</time>
      </trkpt>
      <trkpt lat="47.387496" lon="7.867166">
        <ele>682.472801</ele>
        <time>2021-11-22T10:11:16.250Z</time>
      </trkpt>
      <trkpt lat="47.387363" lon="7.867215">
        <ele>682.593316</ele>
        <time>2021-11-22T10:11:18.860Z</time>
      </trkpt>
      <trkpt lat="47.386883" lon="7.867395">
        <ele>683.028715</ele>
        <time>2021-11-22T10:11:27.861Z</time>
      </trkpt>
      <trkpt lat="47.386603" lon="7.867395">
        <ele>683.288987</ele>
        <time>2021-11-22T10:11:33.651Z</time>
      </trkpt>
      <trkpt lat="47.386464" lon="7.867362">
        <ele>683.422942</ele>
        <time>2021-11-22T10:11:36.601Z</time>
      </trkpt>
      <trkpt lat="47.386040" lon="7.867365">
        <ele>683.826378</ele>
        <time>2021-11-22T10:11:44.734Z</time>
      </trkpt>
      <trkpt lat="47.385944" lon="7.867392">
        <ele>683.919362</ele>
        <time>2021-11-22T10:11:47.053Z</time>
      </trkpt>
      <trkpt lat="47.385795" lon="7.867435">
        <ele>684.063815</ele>
        <time>2021-11-22T10:11:49.847Z</time>
      </trkpt>
      <trkpt lat="47.385102" lon="7.867627">
        <ele>684.734699</ele>
        <time>2021-11-22T10:12:00.901Z</time>
      </trkpt>
      <trkpt lat="47.384400" lon="7.867647">
        <ele>686.166298</ele>
        <time>2021-11-22T10:12:15.052Z</time>
      </trkpt>
      <trkpt lat="47.383776" lon="7.867821">
        <ele>687.555195</ele>
        <time>2021-11-22T10:12:30.341Z</time>
      </trkpt>
      <trkpt lat="47.383471" lon="7.867892">
        <ele>688.230513</ele>
        <time>2021-11-22T10:12:40.014Z</time>
      </trkpt>
      <trkpt lat="47.382207" lon="7.868506">
        <ele>689.824643</ele>
        <time>2021-11-22T10:13:14.842Z</time>
      </trkpt>
      <trkpt lat="47.381814" lon="7.868690">
        <ele>690.230219</ele>
        <time>2021-11-22T10:13:21.644Z</time>
      </trkpt>
      <trkpt lat="47.381482" lon="7.868872">
        <ele>690.207981</ele>
        <time>2021-11-22T10:13:25.382Z</time>
      </trkpt>
      <trkpt lat="47.381410" lon="7.868929">
        <ele>689.795533</ele>
        <time>2021-11-22T10:13:26.186Z</time>
      </trkpt>
      <trkpt lat="47.381343" lon="7.868980">
        <ele>689.414975</ele>
        <time>2021-11-22T10:13:26.836Z</time>
      </trkpt>
      <trkpt lat="47.381084" lon="7.869193">
        <ele>687.918259</ele>
        <time>2021-11-22T10:13:29.782Z</time>
      </trkpt>
      <trkpt lat="47.380950" lon="7.869325">
        <ele>687.105028</ele>
        <time>2021-11-22T10:13:31.220Z</time>
      </trkpt>
      <trkpt lat="47.380843" lon="7.869437">
        <ele>686.442876</ele>
        <time>2021-11-22T10:13:32.529Z</time>
      </trkpt>
      <trkpt lat="47.380725" lon="7.869588">
        <ele>685.654580</ele>
        <time>2021-11-22T10:13:33.874Z</time>
      </trkpt>
      <trkpt lat="47.380570" lon="7.869787">
        <ele>684.617643</ele>
        <time>2021-11-22T10:13:35.859Z</time>
      </trkpt>
      <trkpt lat="47.380483" lon="7.869921">
        <ele>683.982980</ele>
        <time>2021-11-22T10:13:36.946Z</time>
      </trkpt>
      <trkpt lat="47.380441" lon="7.869986">
        <ele>683.675825</ele>
        <time>2021-11-22T10:13:37.495Z</time>
      </trkpt>
      <trkpt lat="47.380320" lon="7.870168">
        <ele>682.803849</ele>
        <time>2021-11-22T10:13:39.249Z</time>
      </trkpt>
      <trkpt lat="47.380175" lon="7.870437">
        <ele>681.628410</ele>
        <time>2021-11-22T10:13:41.335Z</time>
      </trkpt>
      <trkpt lat="47.380138" lon="7.870450">
        <ele>681.436480</ele>
        <time>2021-11-22T10:13:41.727Z</time>
      </trkpt>
      <trkpt lat="47.380051" lon="7.870618">
        <ele>680.798790</ele>
        <time>2021-11-22T10:13:43.176Z</time>
      </trkpt>
      <trkpt lat="47.380047" lon="7.870663">
        <ele>680.661946</ele>
        <time>2021-11-22T10:13:43.454Z</time>
      </trkpt>
      <trkpt lat="47.379746" lon="7.871189">
        <ele>678.585515</ele>
        <time>2021-11-22T10:13:47.885Z</time>
      </trkpt>
      <trkpt lat="47.379717" lon="7.871234">
        <ele>678.398209</ele>
        <time>2021-11-22T10:13:48.359Z</time>
      </trkpt>
      <trkpt lat="47.379462" lon="7.871557">
        <ele>676.902315</ele>
        <time>2021-11-22T10:13:51.635Z</time>
      </trkpt>
      <trkpt lat="47.379412" lon="7.871620">
        <ele>676.609655</ele>
        <time>2021-11-22T10:13:52.315Z</time>
      </trkpt>
      <trkpt lat="47.379227" lon="7.871763">
        <ele>675.679881</ele>
        <time>2021-11-22T10:13:54.310Z</time>
      </trkpt>
      <trkpt lat="47.379044" lon="7.871852">
        <ele>674.821979</ele>
        <time>2021-11-22T10:13:56.241Z</time>
      </trkpt>
      <trkpt lat="47.378769" lon="7.871985">
        <ele>673.533481</ele>
        <time>2021-11-22T10:13:59.065Z</time>
      </trkpt>
      <trkpt lat="47.378682" lon="7.872035">
        <ele>673.131101</ele>
        <time>2021-11-22T10:13:59.994Z</time>
      </trkpt>
      <trkpt lat="47.378353" lon="7.872202">
        <ele>671.648437</ele>
        <time>2021-11-22T10:14:03.251Z</time>
      </trkpt>
      <trkpt lat="47.378315" lon="7.872222">
        <ele>671.476509</ele>
        <time>2021-11-22T10:14:03.621Z</time>
      </trkpt>
      <trkpt lat="47.378209" lon="7.872290">
        <ele>670.983969</ele>
        <time>2021-11-22T10:14:04.679Z</time>
      </trkpt>
      <trkpt lat="47.377943" lon="7.872488">
        <ele>669.714449</ele>
        <time>2021-11-22T10:14:07.385Z</time>
      </trkpt>
      <trkpt lat="47.377865" lon="7.872546">
        <ele>669.342261</ele>
        <time>2021-11-22T10:14:08.334Z</time>
      </trkpt>
      <trkpt lat="47.377490" lon="7.872740">
        <ele>667.648838</ele>
        <time>2021-11-22T10:14:12.148Z</time>
      </trkpt>
      <trkpt lat="47.377176" lon="7.872785">
        <ele>666.304331</ele>
        <time>2021-11-22T10:14:15.338Z</time>
      </trkpt>
      <trkpt lat="47.377111" lon="7.872787">
        <ele>666.027251</ele>
        <time>2021-11-22T10:14:15.965Z</time>
      </trkpt>
      <trkpt lat="47.376987" lon="7.872792">
        <ele>665.567824</ele>
        <time>2021-11-22T10:14:17.412Z</time>
      </trkpt>
      <trkpt lat="47.376847" lon="7.872808">
        <ele>665.126264</ele>
        <time>2021-11-22T10:14:18.793Z</time>
      </trkpt>
      <trkpt lat="47.376796" lon="7.872820">
        <ele>664.963867</ele>
        <time>2021-11-22T10:14:21.667Z</time>
      </trkpt>
      <trkpt lat="47.376624" lon="7.872912">
        <ele>664.388609</ele>
        <time>2021-11-22T10:14:23.399Z</time>
      </trkpt>
      <trkpt lat="47.376583" lon="7.872961">
        <ele>664.222747</ele>
        <time>2021-11-22T10:14:23.910Z</time>
      </trkpt>
      <trkpt lat="47.376544" lon="7.873026">
        <ele>664.037818</ele>
        <time>2021-11-22T10:14:24.495Z</time>
      </trkpt>
      <trkpt lat="47.376514" lon="7.873091">
        <ele>663.870312</ele>
        <time>2021-11-22T10:14:27.370Z</time>
      </trkpt>
      <trkpt lat="47.376283" lon="7.873972">
        <ele>661.858539</ele>
        <time>2021-11-22T10:14:34.009Z</time>
      </trkpt>
      <trkpt lat="47.376139" lon="7.874122">
        <ele>661.304394</ele>
        <time>2021-11-22T10:14:36.165Z</time>
      </trkpt>
      <trkpt lat="47.375897" lon="7.874176">
        <ele>660.534762</ele>
        <time>2021-11-22T10:14:38.604Z</time>
      </trkpt>
      <trkpt lat="47.375857" lon="7.874168">
        <ele>660.407830</ele>
        <time>2021-11-22T10:14:41.101Z</time>
      </trkpt>
      <trkpt lat="47.375850" lon="7.874167">
        <ele>660.385715</ele>
        <time>2021-11-22T10:14:41.173Z</time>
      </trkpt>
      <trkpt lat="47.375267" lon="7.873862">
        <ele>653.730298</ele>
        <time>2021-11-22T10:14:46.802Z</time>
      </trkpt>
      <trkpt lat="47.374696" lon="7.873249">
        <ele>645.233445</ele>
        <time>2021-11-22T10:14:52.791Z</time>
      </trkpt>
      <trkpt lat="47.374570" lon="7.873080">
        <ele>643.184696</ele>
        <time>2021-11-22T10:14:54.178Z</time>
      </trkpt>
      <trkpt lat="47.374445" lon="7.872909">
        <ele>641.133795</ele>
        <time>2021-11-22T10:14:55.599Z</time>
      </trkpt>
      <trkpt lat="47.373838" lon="7.872164">
        <ele>629.271131</ele>
        <time>2021-11-22T10:15:02.056Z</time>
      </trkpt>
      <trkpt lat="47.373794" lon="7.872130">
        <ele>628.466482</ele>
        <time>2021-11-22T10:15:02.460Z</time>
      </trkpt>
      <trkpt lat="47.373696" lon="7.872069">
        <ele>626.743276</ele>
        <time>2021-11-22T10:15:03.327Z</time>
      </trkpt>
      <trkpt lat="47.372848" lon="7.871871">
        <ele>612.832401</ele>
        <time>2021-11-22T10:15:10.484Z</time>
      </trkpt>
      <trkpt lat="47.372805" lon="7.871854">
        <ele>612.111131</ele>
        <time>2021-11-22T10:15:10.854Z</time>
      </trkpt>
      <trkpt lat="47.372762" lon="7.871829">
        <ele>611.362340</ele>
        <time>2021-11-22T10:15:11.242Z</time>
      </trkpt>
      <trkpt lat="47.372614" lon="7.871667">
        <ele>608.962158</ele>
        <time>2021-11-22T10:15:12.818Z</time>
      </trkpt>
      <trkpt lat="47.372524" lon="7.871415">
        <ele>607.786455</ele>
        <time>2021-11-22T10:15:14.430Z</time>
      </trkpt>
      <trkpt lat="47.372517" lon="7.871351">
        <ele>607.518917</ele>
        <time>2021-11-22T10:15:14.794Z</time>
      </trkpt>
      <trkpt lat="47.372514" lon="7.871286">
        <ele>607.250052</ele>
        <time>2021-11-22T10:15:15.185Z</time>
      </trkpt>
      <trkpt lat="47.372517" lon="7.870863">
        <ele>605.504319</ele>
        <time>2021-11-22T10:15:17.683Z</time>
      </trkpt>
      <trkpt lat="47.372529" lon="7.870460">
        <ele>603.839610</ele>
        <time>2021-11-22T10:15:20.303Z</time>
      </trkpt>
      <trkpt lat="47.372536" lon="7.870217">
        <ele>602.835890</ele>
        <time>2021-11-22T10:15:21.995Z</time>
      </trkpt>
      <trkpt lat="47.372588" lon="7.869625">
        <ele>600.372361</ele>
        <time>2021-11-22T10:15:26.062Z</time>
      </trkpt>
      <trkpt lat="47.373152" lon="7.867027">
        <ele>596.213256</ele>
        <time>2021-11-22T10:15:48.655Z</time>
      </trkpt>
      <trkpt lat="47.373241" lon="7.866286">
        <ele>595.394461</ele>
        <time>2021-11-22T10:15:54.157Z</time>
      </trkpt>
      <trkpt lat="47.373270" lon="7.866048">
        <ele>595.091812</ele>
        <time>2021-11-22T10:15:55.830Z</time>
      </trkpt>
      <trkpt lat="47.373315" lon="7.865737">
        <ele>594.693800</ele>
        <time>2021-11-22T10:15:58.162Z</time>
      </trkpt>
      <trkpt lat="47.373428" lon="7.864805">
        <ele>593.508825</ele>
        <time>2021-11-22T10:16:05.048Z</time>
      </trkpt>
      <trkpt lat="47.373394" lon="7.863499">
        <ele>592.660266</ele>
        <time>2021-11-22T10:16:15.191Z</time>
      </trkpt>
      <trkpt lat="47.373617" lon="7.861720">
        <ele>593.281274</ele>
        <time>2021-11-22T10:16:38.703Z</time>
      </trkpt>
      <trkpt lat="47.373518" lon="7.859432">
        <ele>593.242252</ele>
        <time>2021-11-22T10:17:09.528Z</time>
      </trkpt>
      <trkpt lat="47.373453" lon="7.859231">
        <ele>593.223850</ele>
        <time>2021-11-22T10:17:11.290Z</time>
      </trkpt>
      <trkpt lat="47.373331" lon="7.859191">
        <ele>593.208605</ele>
        <time>2021-11-22T10:17:12.678Z</time>
      </trkpt>
      <trkpt lat="47.373310" lon="7.859204">
        <ele>593.205827</ele>
        <time>2021-11-22T10:17:13.693Z</time>
      </trkpt>
      <trkpt lat="47.373291" lon="7.859227">
        <ele>593.202830</ele>
        <time>2021-11-22T10:17:13.901Z</time>
      </trkpt>
      <trkpt lat="47.373250" lon="7.859421">
        <ele>593.186040</ele>
        <time>2021-11-22T10:17:15.329Z</time>
      </trkpt>
      <trkpt lat="47.373378" lon="7.860466">
        <ele>588.308529</ele>
        <time>2021-11-22T10:17:22.143Z</time>
      </trkpt>
      <trkpt lat="47.373335" lon="7.861886">
        <ele>581.555045</ele>
        <time>2021-11-22T10:17:30.557Z</time>
      </trkpt>
      <trkpt lat="47.372968" lon="7.863468">
        <ele>571.294943</ele>
        <time>2021-11-22T10:17:40.297Z</time>
      </trkpt>
      <trkpt lat="47.372834" lon="7.864650">
        <ele>563.711569</ele>
        <time>2021-11-22T10:17:47.359Z</time>
      </trkpt>
      <trkpt lat="47.372573" lon="7.866144">
        <ele>555.465489</ele>
        <time>2021-11-22T10:17:56.634Z</time>
      </trkpt>
      <trkpt lat="47.371930" lon="7.868187">
        <ele>543.359796</ele>
        <time>2021-11-22T10:18:10.177Z</time>
      </trkpt>
      <trkpt lat="47.371175" lon="7.871226">
        <ele>527.453475</ele>
        <time>2021-11-22T10:18:29.481Z</time>
      </trkpt>
      <trkpt lat="47.371130" lon="7.871809">
        <ele>524.820251</ele>
        <time>2021-11-22T10:18:33.456Z</time>
      </trkpt>
      <trkpt lat="47.371247" lon="7.872282">
        <ele>522.765755</ele>
        <time>2021-11-22T10:18:36.872Z</time>
      </trkpt>
      <trkpt lat="47.371259" lon="7.872308">
        <ele>522.664489</ele>
        <time>2021-11-22T10:18:37.044Z</time>
      </trkpt>
      <trkpt lat="47.371283" lon="7.872360">
        <ele>522.461957</ele>
        <time>2021-11-22T10:18:39.196Z</time>
      </trkpt>
      <trkpt lat="47.371596" lon="7.872945">
        <ele>520.062447</ele>
        <time>2021-11-22T10:18:43.837Z</time>
      </trkpt>
      <trkpt lat="47.371615" lon="7.872996">
        <ele>519.875107</ele>
        <time>2021-11-22T10:18:45.384Z</time>
      </trkpt>
      <trkpt lat="47.371633" lon="7.873056">
        <ele>519.663899</ele>
        <time>2021-11-22T10:18:45.846Z</time>
      </trkpt>
      <trkpt lat="47.371661" lon="7.873321">
        <ele>518.800682</ele>
        <time>2021-11-22T10:18:47.816Z</time>
      </trkpt>
      <trkpt lat="47.371653" lon="7.873396">
        <ele>518.556319</ele>
        <time>2021-11-22T10:18:48.236Z</time>
      </trkpt>
      <trkpt lat="47.371641" lon="7.873462">
        <ele>518.336377</ele>
        <time>2021-11-22T10:18:48.643Z</time>
      </trkpt>
      <trkpt lat="47.371543" lon="7.873707">
        <ele>517.420579</ele>
        <time>2021-11-22T10:18:50.804Z</time>
      </trkpt>
      <trkpt lat="47.371492" lon="7.873769">
        <ele>517.106632</ele>
        <time>2021-11-22T10:18:52.219Z</time>
      </trkpt>
      <trkpt lat="47.371443" lon="7.873817">
        <ele>516.827181</ele>
        <time>2021-11-22T10:18:52.706Z</time>
      </trkpt>
      <trkpt lat="47.370953" lon="7.874086">
        <ele>514.068305</ele>
        <time>2021-11-22T10:18:57.836Z</time>
      </trkpt>
      <trkpt lat="47.370698" lon="7.874356">
        <ele>511.542986</ele>
        <time>2021-11-22T10:19:00.680Z</time>
      </trkpt>
      <trkpt lat="47.370576" lon="7.874685">
        <ele>509.498583</ele>
        <time>2021-11-22T10:19:02.897Z</time>
      </trkpt>
      <trkpt lat="47.370566" lon="7.874710">
        <ele>509.340329</ele>
        <time>2021-11-22T10:19:03.057Z</time>
      </trkpt>
      <trkpt lat="47.370311" lon="7.875855">
        <ele>502.770768</ele>
        <time>2021-11-22T10:19:10.115Z</time>
      </trkpt>
      <trkpt lat="47.370247" lon="7.876149">
        <ele>501.087579</ele>
        <time>2021-11-22T10:19:11.953Z</time>
      </trkpt>
      <trkpt lat="47.369840" lon="7.878037">
        <ele>491.629669</ele>
        <time>2021-11-22T10:19:23.883Z</time>
      </trkpt>
      <trkpt lat="47.369770" lon="7.878360">
        <ele>490.029778</ele>
        <time>2021-11-22T10:19:26.061Z</time>
      </trkpt>
      <trkpt lat="47.369658" lon="7.878791">
        <ele>487.851963</ele>
        <time>2021-11-22T10:19:28.976Z</time>
      </trkpt>
      <trkpt lat="47.369625" lon="7.878900">
        <ele>487.451017</ele>
        <time>2021-11-22T10:19:29.747Z</time>
      </trkpt>
      <trkpt lat="47.369584" lon="7.879020">
        <ele>487.047757</ele>
        <time>2021-11-22T10:19:30.540Z</time>
      </trkpt>
      <trkpt lat="47.369108" lon="7.880014">
        <ele>483.395222</ele>
        <time>2021-11-22T10:19:38.359Z</time>
      </trkpt>
      <trkpt lat="47.369029" lon="7.880400">
        <ele>482.185359</ele>
        <time>2021-11-22T10:19:40.943Z</time>
      </trkpt>
      <trkpt lat="47.369074" lon="7.880860">
        <ele>480.790870</ele>
        <time>2021-11-22T10:19:44.025Z</time>
      </trkpt>
      <trkpt lat="47.369474" lon="7.881651">
        <ele>478.825525</ele>
        <time>2021-11-22T10:19:51.076Z</time>
      </trkpt>
      <trkpt lat="47.369499" lon="7.881993">
        <ele>478.324275</ele>
        <time>2021-11-22T10:19:53.675Z</time>
      </trkpt>
      <trkpt lat="47.369458" lon="7.882276">
        <ele>477.902563</ele>
        <time>2021-11-22T10:19:55.973Z</time>
      </trkpt>
      <trkpt lat="47.369335" lon="7.882577">
        <ele>477.390297</ele>
        <time>2021-11-22T10:19:59.132Z</time>
      </trkpt>
      <trkpt lat="47.369187" lon="7.882782">
        <ele>476.953680</ele>
        <time>2021-11-22T10:20:02.329Z</time>
      </trkpt>
      <trkpt lat="47.368507" lon="7.883191">
        <ele>474.467702</ele>
        <time>2021-11-22T10:20:09.893Z</time>
      </trkpt>
      <trkpt lat="47.368344" lon="7.883352">
        <ele>473.314302</ele>
        <time>2021-11-22T10:20:11.794Z</time>
      </trkpt>
      <trkpt lat="47.368213" lon="7.883529">
        <ele>472.269929</ele>
        <time>2021-11-22T10:20:13.498Z</time>
      </trkpt>
      <trkpt lat="47.368153" lon="7.883601">
        <ele>471.815196</ele>
        <time>2021-11-22T10:20:14.217Z</time>
      </trkpt>
      <trkpt lat="47.368040" lon="7.883694">
        <ele>471.054324</ele>
        <time>2021-11-22T10:20:15.476Z</time>
      </trkpt>
      <trkpt lat="47.368007" lon="7.883717">
        <ele>470.839701</ele>
        <time>2021-11-22T10:20:16.520Z</time>
      </trkpt>
      <trkpt lat="47.367966" lon="7.883738">
        <ele>470.584467</ele>
        <time>2021-11-22T10:20:16.892Z</time>
      </trkpt>
      <trkpt lat="47.367923" lon="7.883750">
        <ele>470.327090</ele>
        <time>2021-11-22T10:20:17.256Z</time>
      </trkpt>
      <trkpt lat="47.367886" lon="7.883755">
        <ele>470.108569</ele>
        <time>2021-11-22T10:20:17.581Z</time>
      </trkpt>
      <trkpt lat="47.367839" lon="7.883755">
        <ele>469.832143</ele>
        <time>2021-11-22T10:20:17.984Z</time>
      </trkpt>
      <trkpt lat="47.367772" lon="7.883723">
        <ele>469.417986</ele>
        <time>2021-11-22T10:20:18.683Z</time>
      </trkpt>
      <trkpt lat="47.367659" lon="7.883669">
        <ele>468.719446</ele>
        <time>2021-11-22T10:20:20.023Z</time>
      </trkpt>
      <trkpt lat="47.367616" lon="7.883630">
        <ele>468.422642</ele>
        <time>2021-11-22T10:20:20.440Z</time>
      </trkpt>
      <trkpt lat="47.367580" lon="7.883575">
        <ele>468.117963</ele>
        <time>2021-11-22T10:20:20.870Z</time>
      </trkpt>
      <trkpt lat="47.367334" lon="7.882994">
        <ele>465.388566</ele>
        <time>2021-11-22T10:20:24.982Z</time>
      </trkpt>
      <trkpt lat="47.367293" lon="7.882923">
        <ele>464.848844</ele>
        <time>2021-11-22T10:20:25.537Z</time>
      </trkpt>
      <trkpt lat="47.367257" lon="7.882864">
        <ele>464.356017</ele>
        <time>2021-11-22T10:20:26.084Z</time>
      </trkpt>
      <trkpt lat="47.367212" lon="7.882810">
        <ele>463.824675</ele>
        <time>2021-11-22T10:20:26.655Z</time>
      </trkpt>
      <trkpt lat="47.367147" lon="7.882758">
        <ele>463.147277</ele>
        <time>2021-11-22T10:20:27.269Z</time>
      </trkpt>
      <trkpt lat="47.367100" lon="7.882728">
        <ele>462.678099</ele>
        <time>2021-11-22T10:20:27.696Z</time>
      </trkpt>
      <trkpt lat="47.366881" lon="7.882725">
        <ele>460.671340</ele>
        <time>2021-11-22T10:20:29.728Z</time>
      </trkpt>
      <trkpt lat="47.366821" lon="7.882753">
        <ele>460.094758</ele>
        <time>2021-11-22T10:20:30.249Z</time>
      </trkpt>
      <trkpt lat="47.366780" lon="7.882783">
        <ele>459.675475</ele>
        <time>2021-11-22T10:20:30.625Z</time>
      </trkpt>
      <trkpt lat="47.366602" lon="7.883054">
        <ele>457.332670</ele>
        <time>2021-11-22T10:20:32.838Z</time>
      </trkpt>
      <trkpt lat="47.366587" lon="7.883103">
        <ele>456.998954</ele>
        <time>2021-11-22T10:20:33.134Z</time>
      </trkpt>
      <trkpt lat="47.366576" lon="7.883147">
        <ele>456.707879</ele>
        <time>2021-11-22T10:20:33.396Z</time>
      </trkpt>
      <trkpt lat="47.366562" lon="7.883219">
        <ele>456.242993</ele>
        <time>2021-11-22T10:20:33.821Z</time>
      </trkpt>
      <trkpt lat="47.366551" lon="7.883328">
        <ele>455.559063</ele>
        <time>2021-11-22T10:20:34.502Z</time>
      </trkpt>
      <trkpt lat="47.366557" lon="7.883815">
        <ele>452.536203</ele>
        <time>2021-11-22T10:20:37.375Z</time>
      </trkpt>
      <trkpt lat="47.366578" lon="7.884153">
        <ele>450.429742</ele>
        <time>2021-11-22T10:20:39.380Z</time>
      </trkpt>
      <trkpt lat="47.366596" lon="7.884449">
        <ele>448.688107</ele>
        <time>2021-11-22T10:20:41.168Z</time>
      </trkpt>
      <trkpt lat="47.366596" lon="7.884916">
        <ele>446.971734</ele>
        <time>2021-11-22T10:20:44.006Z</time>
      </trkpt>
      <trkpt lat="47.366586" lon="7.885013">
        <ele>446.611122</ele>
        <time>2021-11-22T10:20:44.598Z</time>
      </trkpt>
      <trkpt lat="47.366578" lon="7.885091">
        <ele>446.321179</ele>
        <time>2021-11-22T10:20:45.077Z</time>
      </trkpt>
      <trkpt lat="47.366453" lon="7.885555">
        <ele>444.485885</ele>
        <time>2021-11-22T10:20:48.174Z</time>
      </trkpt>
      <trkpt lat="47.366080" lon="7.886488">
        <ele>440.504001</ele>
        <time>2021-11-22T10:20:55.158Z</time>
      </trkpt>
      <trkpt lat="47.365937" lon="7.886847">
        <ele>439.020036</ele>
        <time>2021-11-22T10:20:58.091Z</time>
      </trkpt>
      <trkpt lat="47.365872" lon="7.887003">
        <ele>438.649722</ele>
        <time>2021-11-22T10:20:59.262Z</time>
      </trkpt>
      <trkpt lat="47.365744" lon="7.887315">
        <ele>437.912203</ele>
        <time>2021-11-22T10:21:01.903Z</time>
      </trkpt>
      <trkpt lat="47.365601" lon="7.887633">
        <ele>437.140444</ele>
        <time>2021-11-22T10:21:04.681Z</time>
      </trkpt>
      <trkpt lat="47.365425" lon="7.888058">
        <ele>436.133260</ele>
        <time>2021-11-22T10:21:08.132Z</time>
      </trkpt>
      <trkpt lat="47.365097" lon="7.888835">
        <ele>434.282114</ele>
        <time>2021-11-22T10:21:14.484Z</time>
      </trkpt>
      <trkpt lat="47.365027" lon="7.888996">
        <ele>433.895294</ele>
        <time>2021-11-22T10:21:15.892Z</time>
      </trkpt>
      <trkpt lat="47.364923" lon="7.889243">
        <ele>433.245532</ele>
        <time>2021-11-22T10:21:17.905Z</time>
      </trkpt>
      <trkpt lat="47.364764" lon="7.889618">
        <ele>432.213250</ele>
        <time>2021-11-22T10:21:21.056Z</time>
      </trkpt>
      <trkpt lat="47.364681" lon="7.889814">
        <ele>431.673900</ele>
        <time>2021-11-22T10:21:22.605Z</time>
      </trkpt>
      <trkpt lat="47.364609" lon="7.889980">
        <ele>431.213964</ele>
        <time>2021-11-22T10:21:24.040Z</time>
      </trkpt>
      <trkpt lat="47.364536" lon="7.890155">
        <ele>430.734412</ele>
        <time>2021-11-22T10:21:25.390Z</time>
      </trkpt>
      <trkpt lat="47.364430" lon="7.890406">
        <ele>430.044242</ele>
        <time>2021-11-22T10:21:27.389Z</time>
      </trkpt>
      <trkpt lat="47.364335" lon="7.890641">
        <ele>429.405679</ele>
        <time>2021-11-22T10:21:29.158Z</time>
      </trkpt>
      <trkpt lat="47.364254" lon="7.890853">
        <ele>428.837744</ele>
        <time>2021-11-22T10:21:30.799Z</time>
      </trkpt>
      <trkpt lat="47.364191" lon="7.891027">
        <ele>428.377381</ele>
        <time>2021-11-22T10:21:32.082Z</time>
      </trkpt>
      <trkpt lat="47.364146" lon="7.891178">
        <ele>427.992455</ele>
        <time>2021-11-22T10:21:33.130Z</time>
      </trkpt>
      <trkpt lat="47.364096" lon="7.891355">
        <ele>427.544980</ele>
        <time>2021-11-22T10:21:34.514Z</time>
      </trkpt>
      <trkpt lat="47.364052" lon="7.891533">
        <ele>427.135837</ele>
        <time>2021-11-22T10:21:35.830Z</time>
      </trkpt>
      <trkpt lat="47.363935" lon="7.892057">
        <ele>425.952239</ele>
        <time>2021-11-22T10:21:39.550Z</time>
      </trkpt>
      <trkpt lat="47.363897" lon="7.892240">
        <ele>425.541629</ele>
        <time>2021-11-22T10:21:40.782Z</time>
      </trkpt>
      <trkpt lat="47.363886" lon="7.892295">
        <ele>425.418606</ele>
        <time>2021-11-22T10:21:41.222Z</time>
      </trkpt>
      <trkpt lat="47.363838" lon="7.892520">
        <ele>424.912555</ele>
        <time>2021-11-22T10:21:42.978Z</time>
      </trkpt>
      <trkpt lat="47.363797" lon="7.892711">
        <ele>424.482732</ele>
        <time>2021-11-22T10:21:44.282Z</time>
      </trkpt>
      <trkpt lat="47.363683" lon="7.893247">
        <ele>423.277534</ele>
        <time>2021-11-22T10:21:48.177Z</time>
      </trkpt>
      <trkpt lat="47.363594" lon="7.893669">
        <ele>422.329376</ele>
        <time>2021-11-22T10:21:51.497Z</time>
      </trkpt>
      <trkpt lat="47.363582" lon="7.893727">
        <ele>422.199277</ele>
        <time>2021-11-22T10:21:51.859Z</time>
      </trkpt>
      <trkpt lat="47.363562" lon="7.893823">
        <ele>421.983813</ele>
        <time>2021-11-22T10:21:52.606Z</time>
      </trkpt>
      <trkpt lat="47.363531" lon="7.893966">
        <ele>421.704584</ele>
        <time>2021-11-22T10:21:53.613Z</time>
      </trkpt>
      <trkpt lat="47.363505" lon="7.894096">
        <ele>421.494891</ele>
        <time>2021-11-22T10:21:54.631Z</time>
      </trkpt>
      <trkpt lat="47.363473" lon="7.894233">
        <ele>421.270706</ele>
        <time>2021-11-22T10:21:55.583Z</time>
      </trkpt>
      <trkpt lat="47.363446" lon="7.894343">
        <ele>421.089708</ele>
        <time>2021-11-22T10:21:56.493Z</time>
      </trkpt>
      <trkpt lat="47.363408" lon="7.894474">
        <ele>420.869250</ele>
        <time>2021-11-22T10:21:57.466Z</time>
      </trkpt>
      <trkpt lat="47.363399" lon="7.894505">
        <ele>420.817074</ele>
        <time>2021-11-22T10:21:57.740Z</time>
      </trkpt>
      <trkpt lat="47.362957" lon="7.895788">
        <ele>418.590303</ele>
        <time>2021-11-22T10:22:08.510Z</time>
      </trkpt>
      <trkpt lat="47.362890" lon="7.895942">
        <ele>418.307153</ele>
        <time>2021-11-22T10:22:09.734Z</time>
      </trkpt>
      <trkpt lat="47.362505" lon="7.896852">
        <ele>417.063776</ele>
        <time>2021-11-22T10:22:17.545Z</time>
      </trkpt>
      <trkpt lat="47.362472" lon="7.896930">
        <ele>416.977391</ele>
        <time>2021-11-22T10:22:18.276Z</time>
      </trkpt>
      <trkpt lat="47.362330" lon="7.897288">
        <ele>416.587695</ele>
        <time>2021-11-22T10:22:21.580Z</time>
      </trkpt>
      <trkpt lat="47.362248" lon="7.897504">
        <ele>416.355105</ele>
        <time>2021-11-22T10:22:23.504Z</time>
      </trkpt>
      <trkpt lat="47.362166" lon="7.897746">
        <ele>416.100930</ele>
        <time>2021-11-22T10:22:25.555Z</time>
      </trkpt>
      <trkpt lat="47.362122" lon="7.897885">
        <ele>415.956808</ele>
        <time>2021-11-22T10:22:26.688Z</time>
      </trkpt>
      <trkpt lat="47.362082" lon="7.898011">
        <ele>415.826097</ele>
        <time>2021-11-22T10:22:27.826Z</time>
      </trkpt>
      <trkpt lat="47.361971" lon="7.898351">
        <ele>415.471562</ele>
        <time>2021-11-22T10:22:31.860Z</time>
      </trkpt>
      <trkpt lat="47.361883" lon="7.898598">
        <ele>415.211300</ele>
        <time>2021-11-22T10:22:34.767Z</time>
      </trkpt>
      <trkpt lat="47.361853" lon="7.898673">
        <ele>415.170106</ele>
        <time>2021-11-22T10:22:35.549Z</time>
      </trkpt>
      <trkpt lat="47.361834" lon="7.898718">
        <ele>415.145028</ele>
        <time>2021-11-22T10:22:35.976Z</time>
      </trkpt>
      <trkpt lat="47.361807" lon="7.898775">
        <ele>415.112133</ele>
        <time>2021-11-22T10:22:36.505Z</time>
      </trkpt>
      <trkpt lat="47.361773" lon="7.898845">
        <ele>415.071395</ele>
        <time>2021-11-22T10:22:37.262Z</time>
      </trkpt>
      <trkpt lat="47.361729" lon="7.898932">
        <ele>415.020046</ele>
        <time>2021-11-22T10:22:38.079Z</time>
      </trkpt>
      <trkpt lat="47.361681" lon="7.899018">
        <ele>414.967344</ele>
        <time>2021-11-22T10:22:40.006Z</time>
      </trkpt>
      <trkpt lat="47.361398" lon="7.899405">
        <ele>414.698007</ele>
        <time>2021-11-22T10:22:44.792Z</time>
      </trkpt>
      <trkpt lat="47.361310" lon="7.899513">
        <ele>414.618107</ele>
        <time>2021-11-22T10:22:46.045Z</time>
      </trkpt>
      <trkpt lat="47.361267" lon="7.899569">
        <ele>414.578072</ele>
        <time>2021-11-22T10:22:47.008Z</time>
      </trkpt>
      <trkpt lat="47.361141" lon="7.899776">
        <ele>414.446452</ele>
        <time>2021-11-22T10:22:49.983Z</time>
      </trkpt>
      <trkpt lat="47.361124" lon="7.899822">
        <ele>414.421669</ele>
        <time>2021-11-22T10:22:50.340Z</time>
      </trkpt>
      <trkpt lat="47.361106" lon="7.899813">
        <ele>414.408400</ele>
        <time>2021-11-22T10:22:50.612Z</time>
      </trkpt>
      <trkpt lat="47.361087" lon="7.899811">
        <ele>414.395101</ele>
        <time>2021-11-22T10:22:50.802Z</time>
      </trkpt>
      <trkpt lat="47.361068" lon="7.899819">
        <ele>414.381306</ele>
        <time>2021-11-22T10:22:51.162Z</time>
      </trkpt>
      <trkpt lat="47.361051" lon="7.899836">
        <ele>414.366969</ele>
        <time>2021-11-22T10:22:51.373Z</time>
      </trkpt>
      <trkpt lat="47.361032" lon="7.899891">
        <ele>414.337770</ele>
        <time>2021-11-22T10:22:52.210Z</time>
      </trkpt>
      <trkpt lat="47.361033" lon="7.899922">
        <ele>414.323092</ele>
        <time>2021-11-22T10:22:52.511Z</time>
      </trkpt>
      <trkpt lat="47.360991" lon="7.899932">
        <ele>414.293388</ele>
        <time>2021-11-22T10:22:53.022Z</time>
      </trkpt>
      <trkpt lat="47.360578" lon="7.900312">
        <ele>413.948948</ele>
        <time>2021-11-22T10:22:59.834Z</time>
      </trkpt>
      <trkpt lat="47.360538" lon="7.900340">
        <ele>413.880014</ele>
        <time>2021-11-22T10:23:00.265Z</time>
      </trkpt>
      <trkpt lat="47.360151" lon="7.900584">
        <ele>413.224729</ele>
        <time>2021-11-22T10:23:04.971Z</time>
      </trkpt>
      <trkpt lat="47.360015" lon="7.900644">
        <ele>413.003699</ele>
        <time>2021-11-22T10:23:06.756Z</time>
      </trkpt>
      <trkpt lat="47.359927" lon="7.900682">
        <ele>412.860926</ele>
        <time>2021-11-22T10:23:07.762Z</time>
      </trkpt>
      <trkpt lat="47.359826" lon="7.900719">
        <ele>412.698881</ele>
        <time>2021-11-22T10:23:08.974Z</time>
      </trkpt>
      <trkpt lat="47.359249" lon="7.900841">
        <ele>411.791223</ele>
        <time>2021-11-22T10:23:15.717Z</time>
      </trkpt>
      <trkpt lat="47.359216" lon="7.900844">
        <ele>411.739739</ele>
        <time>2021-11-22T10:23:16.041Z</time>
      </trkpt>
      <trkpt lat="47.358996" lon="7.900857">
        <ele>411.396887</ele>
        <time>2021-11-22T10:23:18.435Z</time>
      </trkpt>
      <trkpt lat="47.358712" lon="7.900858">
        <ele>410.868374</ele>
        <time>2021-11-22T10:23:21.537Z</time>
      </trkpt>
      <trkpt lat="47.357962" lon="7.900839">
        <ele>409.201324</ele>
        <time>2021-11-22T10:23:29.781Z</time>
      </trkpt>
      <trkpt lat="47.357870" lon="7.900842">
        <ele>408.996813</ele>
        <time>2021-11-22T10:23:30.785Z</time>
      </trkpt>
      <trkpt lat="47.357514" lon="7.900879">
        <ele>408.203677</ele>
        <time>2021-11-22T10:23:34.566Z</time>
      </trkpt>
      <trkpt lat="47.357378" lon="7.900903">
        <ele>407.899278</ele>
        <time>2021-11-22T10:23:36.029Z</time>
      </trkpt>
      <trkpt lat="47.357127" lon="7.900944">
        <ele>407.338049</ele>
        <time>2021-11-22T10:23:38.713Z</time>
      </trkpt>
      <trkpt lat="47.356850" lon="7.901012">
        <ele>406.671723</ele>
        <time>2021-11-22T10:23:41.690Z</time>
      </trkpt>
      <trkpt lat="47.356476" lon="7.901128">
        <ele>405.741780</ele>
        <time>2021-11-22T10:23:45.684Z</time>
      </trkpt>
      <trkpt lat="47.356126" lon="7.901324">
        <ele>404.830882</ele>
        <time>2021-11-22T10:23:49.638Z</time>
      </trkpt>
      <trkpt lat="47.355990" lon="7.901411">
        <ele>404.470208</ele>
        <time>2021-11-22T10:23:51.171Z</time>
      </trkpt>
      <trkpt lat="47.355968" lon="7.901424">
        <ele>404.412544</ele>
        <time>2021-11-22T10:23:51.392Z</time>
      </trkpt>
      <trkpt lat="47.355804" lon="7.901521">
        <ele>403.982633</ele>
        <time>2021-11-22T10:23:53.327Z</time>
      </trkpt>
      <trkpt lat="47.355687" lon="7.901586">
        <ele>403.678436</ele>
        <time>2021-11-22T10:23:54.597Z</time>
      </trkpt>
      <trkpt lat="47.355633" lon="7.901615">
        <ele>403.538609</ele>
        <time>2021-11-22T10:23:55.236Z</time>
      </trkpt>
      <trkpt lat="47.355355" lon="7.901751">
        <ele>402.825956</ele>
        <time>2021-11-22T10:23:58.387Z</time>
      </trkpt>
      <trkpt lat="47.354787" lon="7.901986">
        <ele>402.351643</ele>
        <time>2021-11-22T10:24:05.026Z</time>
      </trkpt>
      <trkpt lat="47.354602" lon="7.902061">
        <ele>402.207127</ele>
        <time>2021-11-22T10:24:07.322Z</time>
      </trkpt>
      <trkpt lat="47.354574" lon="7.902073">
        <ele>402.185164</ele>
        <time>2021-11-22T10:24:07.626Z</time>
      </trkpt>
      <trkpt lat="47.353910" lon="7.902360">
        <ele>401.663986</ele>
        <time>2021-11-22T10:24:18.085Z</time>
      </trkpt>
      <trkpt lat="47.353817" lon="7.902400">
        <ele>401.591018</ele>
        <time>2021-11-22T10:24:19.860Z</time>
      </trkpt>
      <trkpt lat="47.353719" lon="7.902433">
        <ele>401.515301</ele>
        <time>2021-11-22T10:24:21.178Z</time>
      </trkpt>
      <trkpt lat="47.353603" lon="7.902453">
        <ele>401.427990</ele>
        <time>2021-11-22T10:24:22.715Z</time>
      </trkpt>
      <trkpt lat="47.353496" lon="7.902466">
        <ele>401.497645</ele>
        <time>2021-11-22T10:24:24.717Z</time>
      </trkpt>
      <trkpt lat="47.353027" lon="7.902518">
        <ele>401.802780</ele>
        <time>2021-11-22T10:24:32.046Z</time>
      </trkpt>
      <trkpt lat="47.352956" lon="7.902525">
        <ele>401.848946</ele>
        <time>2021-11-22T10:24:32.958Z</time>
      </trkpt>
      <trkpt lat="47.352874" lon="7.902531">
        <ele>401.902212</ele>
        <time>2021-11-22T10:24:34.129Z</time>
      </trkpt>
      <trkpt lat="47.352738" lon="7.902548">
        <ele>401.990762</ele>
        <time>2021-11-22T10:24:37.170Z</time>
      </trkpt>
      <trkpt lat="47.352156" lon="7.902615">
        <ele>402.369499</ele>
        <time>2021-11-22T10:24:47.535Z</time>
      </trkpt>
      <trkpt lat="47.352026" lon="7.902602">
        <ele>402.454034</ele>
        <time>2021-11-22T10:24:50.753Z</time>
      </trkpt>
      <trkpt lat="47.352026" lon="7.902602">
        <ele>402.454034</ele>
        <time>2021-11-22T10:24:50.804Z</time>
      </trkpt>
      <trkpt lat="47.352007" lon="7.902413">
        <ele>402.538017</ele>
        <time>2021-11-22T10:24:53.111Z</time>
      </trkpt>
      <trkpt lat="47.351989" lon="7.901552">
        <ele>402.941156</ele>
        <time>2021-11-22T10:25:03.813Z</time>
      </trkpt>
      <trkpt lat="47.351997" lon="7.901326">
        <ele>403.048200</ele>
        <time>2021-11-22T10:25:06.947Z</time>
      </trkpt>
      <trkpt lat="47.352016" lon="7.901126">
        <ele>403.143725</ele>
        <time>2021-11-22T10:25:08.858Z</time>
      </trkpt>
      <trkpt lat="47.352196" lon="7.900205">
        <ele>403.597121</ele>
        <time>2021-11-22T10:25:20.172Z</time>
      </trkpt>
      <trkpt lat="47.352196" lon="7.900094">
        <ele>403.649624</ele>
        <time>2021-11-22T10:25:21.473Z</time>
      </trkpt>
      <trkpt lat="47.352186" lon="7.900007">
        <ele>403.691363</ele>
        <time>2021-11-22T10:25:22.365Z</time>
      </trkpt>
      <trkpt lat="47.352163" lon="7.899927">
        <ele>403.732469</ele>
        <time>2021-11-22T10:25:23.399Z</time>
      </trkpt>
      <trkpt lat="47.352159" lon="7.899913">
        <ele>403.739656</ele>
        <time>2021-11-22T10:25:23.658Z</time>
      </trkpt>
      <trkpt lat="47.351852" lon="7.898825">
        <ele>403.867088</ele>
        <time>2021-11-22T10:25:36.595Z</time>
      </trkpt>
      <trkpt lat="47.351805" lon="7.898660">
        <ele>403.870259</ele>
        <time>2021-11-22T10:25:38.335Z</time>
      </trkpt>
      <trkpt lat="47.351528" lon="7.897718">
        <ele>403.888452</ele>
        <time>2021-11-22T10:25:48.135Z</time>
      </trkpt>
      <trkpt lat="47.351509" lon="7.897653">
        <ele>403.889707</ele>
        <time>2021-11-22T10:25:48.706Z</time>
      </trkpt>
      <trkpt lat="47.351461" lon="7.897490">
        <ele>403.892855</ele>
        <time>2021-11-22T10:25:50.356Z</time>
      </trkpt>
      <trkpt lat="47.351383" lon="7.896973">
        <ele>403.991733</ele>
        <time>2021-11-22T10:25:55.001Z</time>
      </trkpt>
      <trkpt lat="47.351379" lon="7.896859">
        <ele>404.031068</ele>
        <time>2021-11-22T10:25:56.204Z</time>
      </trkpt>
      <trkpt lat="47.351298" lon="7.895047">
        <ele>404.656800</ele>
        <time>2021-11-22T10:26:17.216Z</time>
      </trkpt>
      <trkpt lat="47.351287" lon="7.894898">
        <ele>404.708446</ele>
        <time>2021-11-22T10:26:19.031Z</time>
      </trkpt>
      <trkpt lat="47.351213" lon="7.893413">
        <ele>405.657850</ele>
        <time>2021-11-22T10:26:39.600Z</time>
      </trkpt>
      <trkpt lat="47.351205" lon="7.893210">
        <ele>405.802603</ele>
        <time>2021-11-22T10:26:41.991Z</time>
      </trkpt>
      <trkpt lat="47.351201" lon="7.893092">
        <ele>405.886709</ele>
        <time>2021-11-22T10:26:44.899Z</time>
      </trkpt>
      <trkpt lat="47.351197" lon="7.892966">
        <ele>405.976502</ele>
        <time>2021-11-22T10:26:46.106Z</time>
      </trkpt>
      <trkpt lat="47.351151" lon="7.892679">
        <ele>406.186447</ele>
        <time>2021-11-22T10:26:48.923Z</time>
      </trkpt>
      <trkpt lat="47.351142" lon="7.892646">
        <ele>406.211771</ele>
        <time>2021-11-22T10:26:49.221Z</time>
      </trkpt>
      <trkpt lat="47.351112" lon="7.892561">
        <ele>406.279998</ele>
        <time>2021-11-22T10:26:52.411Z</time>
      </trkpt>
      <trkpt lat="47.351032" lon="7.892402">
        <ele>406.420983</ele>
        <time>2021-11-22T10:26:53.879Z</time>
      </trkpt>
      <trkpt lat="47.350695" lon="7.891995">
        <ele>406.774397</ele>
        <time>2021-11-22T10:27:01.596Z</time>
      </trkpt>
      <trkpt lat="47.349861" lon="7.891129">
        <ele>407.213680</ele>
        <time>2021-11-22T10:27:17.591Z</time>
      </trkpt>
      <trkpt lat="47.349446" lon="7.890700">
        <ele>407.431946</ele>
        <time>2021-11-22T10:27:26.071Z</time>
      </trkpt>
      <trkpt lat="47.349176" lon="7.890420">
        <ele>407.666373</ele>
        <time>2021-11-22T10:27:31.813Z</time>
      </trkpt>
      <trkpt lat="47.349153" lon="7.890391">
        <ele>407.691774</ele>
        <time>2021-11-22T10:27:32.240Z</time>
      </trkpt>
      <trkpt lat="47.348986" lon="7.890226">
        <ele>407.860527</ele>
        <time>2021-11-22T10:27:36.132Z</time>
      </trkpt>
      <trkpt lat="47.348913" lon="7.890121">
        <ele>407.946120</ele>
        <time>2021-11-22T10:27:38.401Z</time>
      </trkpt>
      <trkpt lat="47.348824" lon="7.889993">
        <ele>408.050468</ele>
        <time>2021-11-22T10:27:40.029Z</time>
      </trkpt>
      <trkpt lat="47.348688" lon="7.889741">
        <ele>408.233764</ele>
        <time>2021-11-22T10:27:45.258Z</time>
      </trkpt>
      <trkpt lat="47.348233" lon="7.888796">
        <ele>408.893342</ele>
        <time>2021-11-22T10:27:58.935Z</time>
      </trkpt>
      <trkpt lat="47.348057" lon="7.888436">
        <ele>409.057212</ele>
        <time>2021-11-22T10:28:04.750Z</time>
      </trkpt>
      <trkpt lat="47.348008" lon="7.888341">
        <ele>409.087166</ele>
        <time>2021-11-22T10:28:05.654Z</time>
      </trkpt>
      <trkpt lat="47.347839" lon="7.887996">
        <ele>409.193975</ele>
        <time>2021-11-22T10:28:11.636Z</time>
      </trkpt>
      <trkpt lat="47.347807" lon="7.887919">
        <ele>409.216638</ele>
        <time>2021-11-22T10:28:12.319Z</time>
      </trkpt>
      <trkpt lat="47.347757" lon="7.887812">
        <ele>409.249248</ele>
        <time>2021-11-22T10:28:13.566Z</time>
      </trkpt>
      <trkpt lat="47.347470" lon="7.887277">
        <ele>409.420451</ele>
        <time>2021-11-22T10:28:20.328Z</time>
      </trkpt>
      <trkpt lat="47.347422" lon="7.887185">
        <ele>409.449583</ele>
        <time>2021-11-22T10:28:21.695Z</time>
      </trkpt>
      <trkpt lat="47.347240" lon="7.886779">
        <ele>409.571720</ele>
        <time>2021-11-22T10:28:27.209Z</time>
      </trkpt>
      <trkpt lat="47.347110" lon="7.886435">
        <ele>409.658886</ele>
        <time>2021-11-22T10:28:31.572Z</time>
      </trkpt>
      <trkpt lat="47.346969" lon="7.885877">
        <ele>409.707520</ele>
        <time>2021-11-22T10:28:38.219Z</time>
      </trkpt>
      <trkpt lat="47.346802" lon="7.885061">
        <ele>409.777132</ele>
        <time>2021-11-22T10:28:47.304Z</time>
      </trkpt>
      <trkpt lat="47.346757" lon="7.884878">
        <ele>409.793030</ele>
        <time>2021-11-22T10:28:49.136Z</time>
      </trkpt>
      <trkpt lat="47.346510" lon="7.884054">
        <ele>409.866613</ele>
        <time>2021-11-22T10:28:58.181Z</time>
      </trkpt>
      <trkpt lat="47.346468" lon="7.883931">
        <ele>409.852725</ele>
        <time>2021-11-22T10:28:59.498Z</time>
      </trkpt>
      <trkpt lat="47.346207" lon="7.883299">
        <ele>409.718767</ele>
        <time>2021-11-22T10:29:06.716Z</time>
      </trkpt>
      <trkpt lat="47.345948" lon="7.882741">
        <ele>409.596351</ele>
        <time>2021-11-22T10:29:13.005Z</time>
      </trkpt>
      <trkpt lat="47.345731" lon="7.882249">
        <ele>409.490099</ele>
        <time>2021-11-22T10:29:18.315Z</time>
      </trkpt>
      <trkpt lat="47.345382" lon="7.881375">
        <ele>409.392758</ele>
        <time>2021-11-22T10:29:27.394Z</time>
      </trkpt>
      <trkpt lat="47.344887" lon="7.879763">
        <ele>409.404943</ele>
        <time>2021-11-22T10:29:45.685Z</time>
      </trkpt>
      <trkpt lat="47.344808" lon="7.879456">
        <ele>409.407204</ele>
        <time>2021-11-22T10:29:48.912Z</time>
      </trkpt>
      <trkpt lat="47.344777" lon="7.879329">
        <ele>409.433447</ele>
        <time>2021-11-22T10:29:50.451Z</time>
      </trkpt>
      <trkpt lat="47.344612" lon="7.878522">
        <ele>410.002552</ele>
        <time>2021-11-22T10:30:00.173Z</time>
      </trkpt>
      <trkpt lat="47.344591" lon="7.878404">
        <ele>410.084921</ele>
        <time>2021-11-22T10:30:01.495Z</time>
      </trkpt>
      <trkpt lat="47.344538" lon="7.878091">
        <ele>410.302740</ele>
        <time>2021-11-22T10:30:05.614Z</time>
      </trkpt>
      <trkpt lat="47.344476" lon="7.877643">
        <ele>410.611450</ele>
        <time>2021-11-22T10:30:11.464Z</time>
      </trkpt>
      <trkpt lat="47.344429" lon="7.877219">
        <ele>410.901517</ele>
        <time>2021-11-22T10:30:17.118Z</time>
      </trkpt>
      <trkpt lat="47.344421" lon="7.877117">
        <ele>410.970842</ele>
        <time>2021-11-22T10:30:18.520Z</time>
      </trkpt>
      <trkpt lat="47.344407" lon="7.876955">
        <ele>411.081102</ele>
        <time>2021-11-22T10:30:21.382Z</time>
      </trkpt>
      <trkpt lat="47.344383" lon="7.876551">
        <ele>411.420176</ele>
        <time>2021-11-22T10:30:27.333Z</time>
      </trkpt>
      <trkpt lat="47.344367" lon="7.876062">
        <ele>411.890001</ele>
        <time>2021-11-22T10:30:34.858Z</time>
      </trkpt>
      <trkpt lat="47.344362" lon="7.875838">
        <ele>412.105083</ele>
        <time>2021-11-22T10:30:38.858Z</time>
      </trkpt>
      <trkpt lat="47.344358" lon="7.875415">
        <ele>412.511063</ele>
        <time>2021-11-22T10:30:44.729Z</time>
      </trkpt>
      <trkpt lat="47.344330" lon="7.874895">
        <ele>413.011665</ele>
        <time>2021-11-22T10:30:52.010Z</time>
      </trkpt>
      <trkpt lat="47.344324" lon="7.874843">
        <ele>413.062286</ele>
        <time>2021-11-22T10:30:53.085Z</time>
      </trkpt>
      <trkpt lat="47.344314" lon="7.874774">
        <ele>413.130001</ele>
        <time>2021-11-22T10:30:54.068Z</time>
      </trkpt>
      <trkpt lat="47.344298" lon="7.874648">
        <ele>413.253024</ele>
        <time>2021-11-22T10:30:55.795Z</time>
      </trkpt>
      <trkpt lat="47.344184" lon="7.873960">
        <ele>413.792949</ele>
        <time>2021-11-22T10:31:03.713Z</time>
      </trkpt>
      <trkpt lat="47.344153" lon="7.873821">
        <ele>413.827437</ele>
        <time>2021-11-22T10:31:05.904Z</time>
      </trkpt>
      <trkpt lat="47.344085" lon="7.873557">
        <ele>413.894000</ele>
        <time>2021-11-22T10:31:08.818Z</time>
      </trkpt>
      <trkpt lat="47.344049" lon="7.873443">
        <ele>413.923643</ele>
        <time>2021-11-22T10:31:09.842Z</time>
      </trkpt>
      <trkpt lat="47.343857" lon="7.872943">
        <ele>414.059090</ele>
        <time>2021-11-22T10:31:16.177Z</time>
      </trkpt>
      <trkpt lat="47.343582" lon="7.872499">
        <ele>414.200862</ele>
        <time>2021-11-22T10:31:22.954Z</time>
      </trkpt>
      <trkpt lat="47.343433" lon="7.872283">
        <ele>414.273508</ele>
        <time>2021-11-22T10:31:25.796Z</time>
      </trkpt>
      <trkpt lat="47.343378" lon="7.872187">
        <ele>414.303137</ele>
        <time>2021-11-22T10:31:27.148Z</time>
      </trkpt>
      <trkpt lat="47.343185" lon="7.871551">
        <ele>414.695110</ele>
        <time>2021-11-22T10:31:34.208Z</time>
      </trkpt>
      <trkpt lat="47.343157" lon="7.871413">
        <ele>414.811029</ele>
        <time>2021-11-22T10:31:35.670Z</time>
      </trkpt>
      <trkpt lat="47.343101" lon="7.871151">
        <ele>415.032097</ele>
        <time>2021-11-22T10:31:39.369Z</time>
      </trkpt>
      <trkpt lat="47.342808" lon="7.869978">
        <ele>416.038089</ele>
        <time>2021-11-22T10:31:56.657Z</time>
      </trkpt>
      <trkpt lat="47.342775" lon="7.869865">
        <ele>416.137105</ele>
        <time>2021-11-22T10:31:58.323Z</time>
      </trkpt>
      <trkpt lat="47.342747" lon="7.869739">
        <ele>416.243810</ele>
        <time>2021-11-22T10:32:00.611Z</time>
      </trkpt>
      <trkpt lat="47.342725" lon="7.869601">
        <ele>416.357889</ele>
        <time>2021-11-22T10:32:03.093Z</time>
      </trkpt>
      <trkpt lat="47.342722" lon="7.869510">
        <ele>416.431203</ele>
        <time>2021-11-22T10:32:04.410Z</time>
      </trkpt>
      <trkpt lat="47.342724" lon="7.869422">
        <ele>416.502056</ele>
        <time>2021-11-22T10:32:05.674Z</time>
      </trkpt>
      <trkpt lat="47.342746" lon="7.869202">
        <ele>416.690585</ele>
        <time>2021-11-22T10:32:09.276Z</time>
      </trkpt>
      <trkpt lat="47.342840" lon="7.868637">
        <ele>417.184814</ele>
        <time>2021-11-22T10:32:17.685Z</time>
      </trkpt>
      <trkpt lat="47.342882" lon="7.868466">
        <ele>417.339329</ele>
        <time>2021-11-22T10:32:20.361Z</time>
      </trkpt>
      <trkpt lat="47.342924" lon="7.868257">
        <ele>417.524520</ele>
        <time>2021-11-22T10:32:22.988Z</time>
      </trkpt>
      <trkpt lat="47.342936" lon="7.868112">
        <ele>417.648614</ele>
        <time>2021-11-22T10:32:24.986Z</time>
      </trkpt>
      <trkpt lat="47.342932" lon="7.868019">
        <ele>417.727777</ele>
        <time>2021-11-22T10:32:26.218Z</time>
      </trkpt>
      <trkpt lat="47.342772" lon="7.867360">
        <ele>418.322456</ele>
        <time>2021-11-22T10:32:34.915Z</time>
      </trkpt>
      <trkpt lat="47.342730" lon="7.867199">
        <ele>418.469013</ele>
        <time>2021-11-22T10:32:36.809Z</time>
      </trkpt>
      <trkpt lat="47.342548" lon="7.866516">
        <ele>418.842426</ele>
        <time>2021-11-22T10:32:47.218Z</time>
      </trkpt>
      <trkpt lat="47.342490" lon="7.866232">
        <ele>418.902615</ele>
        <time>2021-11-22T10:32:50.077Z</time>
      </trkpt>
      <trkpt lat="47.342478" lon="7.866167">
        <ele>418.916286</ele>
        <time>2021-11-22T10:32:50.677Z</time>
      </trkpt>
      <trkpt lat="47.342436" lon="7.865931">
        <ele>418.965799</ele>
        <time>2021-11-22T10:32:53.904Z</time>
      </trkpt>
      <trkpt lat="47.342383" lon="7.865605">
        <ele>419.033828</ele>
        <time>2021-11-22T10:32:56.778Z</time>
      </trkpt>
      <trkpt lat="47.342301" lon="7.865156">
        <ele>419.128189</ele>
        <time>2021-11-22T10:33:01.295Z</time>
      </trkpt>
      <trkpt lat="47.342244" lon="7.864849">
        <ele>419.192782</ele>
        <time>2021-11-22T10:33:05.387Z</time>
      </trkpt>
      <trkpt lat="47.342195" lon="7.864565">
        <ele>419.252250</ele>
        <time>2021-11-22T10:33:07.778Z</time>
      </trkpt>
      <trkpt lat="47.342087" lon="7.863983">
        <ele>419.519267</ele>
        <time>2021-11-22T10:33:14.157Z</time>
      </trkpt>
      <trkpt lat="47.342011" lon="7.863595">
        <ele>419.765504</ele>
        <time>2021-11-22T10:33:18.356Z</time>
      </trkpt>
      <trkpt lat="47.341845" lon="7.862790">
        <ele>420.278513</ele>
        <time>2021-11-22T10:33:29.591Z</time>
      </trkpt>
      <trkpt lat="47.341452" lon="7.861373">
        <ele>421.727114</ele>
        <time>2021-11-22T10:33:49.340Z</time>
      </trkpt>
      <trkpt lat="47.341366" lon="7.861082">
        <ele>422.263153</ele>
        <time>2021-11-22T10:33:55.100Z</time>
      </trkpt>
      <trkpt lat="47.341010" lon="7.859843">
        <ele>424.535461</ele>
        <time>2021-11-22T10:34:19.525Z</time>
      </trkpt>
      <trkpt lat="47.340985" lon="7.859674">
        <ele>424.827534</ele>
        <time>2021-11-22T10:34:23.006Z</time>
      </trkpt>
      <trkpt lat="47.340911" lon="7.859350">
        <ele>425.404605</ele>
        <time>2021-11-22T10:34:28.877Z</time>
      </trkpt>
      <trkpt lat="47.340872" lon="7.859181">
        <ele>425.674965</ele>
        <time>2021-11-22T10:34:32.278Z</time>
      </trkpt>
      <trkpt lat="47.340887" lon="7.859132">
        <ele>425.756389</ele>
        <time>2021-11-22T10:34:33.113Z</time>
      </trkpt>
      <trkpt lat="47.340890" lon="7.859079">
        <ele>425.836930</ele>
        <time>2021-11-22T10:34:33.766Z</time>
      </trkpt>
      <trkpt lat="47.340882" lon="7.859027">
        <ele>425.917681</ele>
        <time>2021-11-22T10:34:34.585Z</time>
      </trkpt>
      <trkpt lat="47.340978" lon="7.858978">
        <ele>426.144689</ele>
        <time>2021-11-22T10:34:37.553Z</time>
      </trkpt>
      <trkpt lat="47.341194" lon="7.858765">
        <ele>426.725251</ele>
        <time>2021-11-22T10:34:43.644Z</time>
      </trkpt>
      <trkpt lat="47.341216" lon="7.858711">
        <ele>426.820668</ele>
        <time>2021-11-22T10:34:44.965Z</time>
      </trkpt>
      <trkpt lat="47.341246" lon="7.858602">
        <ele>426.998828</ele>
        <time>2021-11-22T10:34:46.808Z</time>
      </trkpt>
      <trkpt lat="47.341197" lon="7.858257">
        <ele>427.532631</ele>
        <time>2021-11-22T10:34:52.531Z</time>
      </trkpt>
      <trkpt lat="47.341134" lon="7.858111">
        <ele>427.794748</ele>
        <time>2021-11-22T10:34:55.440Z</time>
      </trkpt>
      <trkpt lat="47.341095" lon="7.858020">
        <ele>427.957802</ele>
        <time>2021-11-22T10:34:57.338Z</time>
      </trkpt>
      <trkpt lat="47.340885" lon="7.857513">
        <ele>428.857651</ele>
        <time>2021-11-22T10:35:06.723Z</time>
      </trkpt>
      <trkpt lat="47.340604" lon="7.856829">
        <ele>429.906484</ele>
        <time>2021-11-22T10:35:17.828Z</time>
      </trkpt>
      <trkpt lat="47.340564" lon="7.856728">
        <ele>430.039141</ele>
        <time>2021-11-22T10:35:19.282Z</time>
      </trkpt>
      <trkpt lat="47.340491" lon="7.856550">
        <ele>430.275075</ele>
        <time>2021-11-22T10:35:21.707Z</time>
      </trkpt>
      <trkpt lat="47.340199" lon="7.856113">
        <ele>430.971014</ele>
        <time>2021-11-22T10:35:29.292Z</time>
      </trkpt>
      <trkpt lat="47.340107" lon="7.856010">
        <ele>431.164259</ele>
        <time>2021-11-22T10:35:31.304Z</time>
      </trkpt>
      <trkpt lat="47.340031" lon="7.855909">
        <ele>431.335409</ele>
        <time>2021-11-22T10:35:33.611Z</time>
      </trkpt>
      <trkpt lat="47.339888" lon="7.855710">
        <ele>431.664326</ele>
        <time>2021-11-22T10:35:39.525Z</time>
      </trkpt>
      <trkpt lat="47.339869" lon="7.855686">
        <ele>431.706178</ele>
        <time>2021-11-22T10:35:40.299Z</time>
      </trkpt>
      <trkpt lat="47.339366" lon="7.854935">
        <ele>433.369173</ele>
        <time>2021-11-22T10:36:02.651Z</time>
      </trkpt>
      <trkpt lat="47.339278" lon="7.854786">
        <ele>433.814592</ele>
        <time>2021-11-22T10:36:06.372Z</time>
      </trkpt>
      <trkpt lat="47.339307" lon="7.854723">
        <ele>433.986227</ele>
        <time>2021-11-22T10:36:08.598Z</time>
      </trkpt>
      <trkpt lat="47.339463" lon="7.854140">
        <ele>435.398792</ele>
        <time>2021-11-22T10:36:22.475Z</time>
      </trkpt>
      <trkpt lat="47.339510" lon="7.854044">
        <ele>435.665692</ele>
        <time>2021-11-22T10:36:25.394Z</time>
      </trkpt>
      <trkpt lat="47.339552" lon="7.853957">
        <ele>435.906420</ele>
        <time>2021-11-22T10:36:27.800Z</time>
      </trkpt>
      <trkpt lat="47.339622" lon="7.853856">
        <ele>436.231995</ele>
        <time>2021-11-22T10:36:30.199Z</time>
      </trkpt>
      <trkpt lat="47.339646" lon="7.853806">
        <ele>436.370078</ele>
        <time>2021-11-22T10:36:32.071Z</time>
      </trkpt>
      <trkpt lat="47.339642" lon="7.853600">
        <ele>436.834508</ele>
        <time>2021-11-22T10:36:36.559Z</time>
      </trkpt>
      <trkpt lat="47.339613" lon="7.853269">
        <ele>437.586654</ele>
        <time>2021-11-22T10:36:42.642Z</time>
      </trkpt>
      <trkpt lat="47.339603" lon="7.853091">
        <ele>437.989169</ele>
        <time>2021-11-22T10:36:46.840Z</time>
      </trkpt>
      <trkpt lat="47.339601" lon="7.852927">
        <ele>438.358818</ele>
        <time>2021-11-22T10:36:50.310Z</time>
      </trkpt>
      <trkpt lat="47.339601" lon="7.852525">
        <ele>439.399236</ele>
        <time>2021-11-22T10:36:59.403Z</time>
      </trkpt>
      <trkpt lat="47.339542" lon="7.852225">
        <ele>440.214423</ele>
        <time>2021-11-22T10:37:05.346Z</time>
      </trkpt>
      <trkpt lat="47.339506" lon="7.852137">
        <ele>440.482671</ele>
        <time>2021-11-22T10:37:07.638Z</time>
      </trkpt>
      <trkpt lat="47.339466" lon="7.852058">
        <ele>440.740023</ele>
        <time>2021-11-22T10:37:10.147Z</time>
      </trkpt>
      <trkpt lat="47.339359" lon="7.851917">
        <ele>441.292454</ele>
        <time>2021-11-22T10:37:14.510Z</time>
      </trkpt>
      <trkpt lat="47.339273" lon="7.851839">
        <ele>441.681189</ele>
        <time>2021-11-22T10:37:17.644Z</time>
      </trkpt>
      <trkpt lat="47.339251" lon="7.851821">
        <ele>441.778061</ele>
        <time>2021-11-22T10:37:18.350Z</time>
      </trkpt>
      <trkpt lat="47.339179" lon="7.851767">
        <ele>442.089087</ele>
        <time>2021-11-22T10:37:20.918Z</time>
      </trkpt>
      <trkpt lat="47.339084" lon="7.851554">
        <ele>442.754528</ele>
        <time>2021-11-22T10:37:25.967Z</time>
      </trkpt>
      <trkpt lat="47.338996" lon="7.851269">
        <ele>443.571842</ele>
        <time>2021-11-22T10:37:32.218Z</time>
      </trkpt>
      <trkpt lat="47.338979" lon="7.851219">
        <ele>443.717827</ele>
        <time>2021-11-22T10:37:33.282Z</time>
      </trkpt>
      <trkpt lat="47.338917" lon="7.851028">
        <ele>444.270503</ele>
        <time>2021-11-22T10:37:37.757Z</time>
      </trkpt>
      <trkpt lat="47.338708" lon="7.850240">
        <ele>446.241457</ele>
        <time>2021-11-22T10:37:54.016Z</time>
      </trkpt>
      <trkpt lat="47.338658" lon="7.849999">
        <ele>446.762107</ele>
        <time>2021-11-22T10:37:59.204Z</time>
      </trkpt>
      <trkpt lat="47.338635" lon="7.849875">
        <ele>447.027680</ele>
        <time>2021-11-22T10:38:01.818Z</time>
      </trkpt>
      <trkpt lat="47.338565" lon="7.849463">
        <ele>447.905105</ele>
        <time>2021-11-22T10:38:11.799Z</time>
      </trkpt>
      <trkpt lat="47.338442" lon="7.848576">
        <ele>449.775385</ele>
        <time>2021-11-22T10:38:31.874Z</time>
      </trkpt>
      <trkpt lat="47.338170" lon="7.847526">
        <ele>451.554039</ele>
        <time>2021-11-22T10:38:53.918Z</time>
      </trkpt>
      <trkpt lat="47.337941" lon="7.846833">
        <ele>452.467654</ele>
        <time>2021-11-22T10:39:07.114Z</time>
      </trkpt>
      <trkpt lat="47.337935" lon="7.846707">
        <ele>452.617330</ele>
        <time>2021-11-22T10:39:09.893Z</time>
      </trkpt>
      <trkpt lat="47.337904" lon="7.846625">
        <ele>452.728595</ele>
        <time>2021-11-22T10:39:11.530Z</time>
      </trkpt>
      <trkpt lat="47.337830" lon="7.846501">
        <ele>452.924386</ele>
        <time>2021-11-22T10:39:14.190Z</time>
      </trkpt>
      <trkpt lat="47.337778" lon="7.846407">
        <ele>453.068174</ele>
        <time>2021-11-22T10:39:16.361Z</time>
      </trkpt>
      <trkpt lat="47.337718" lon="7.846302">
        <ele>453.230927</ele>
        <time>2021-11-22T10:39:19.182Z</time>
      </trkpt>
      <trkpt lat="47.337632" lon="7.846241">
        <ele>453.397777</ele>
        <time>2021-11-22T10:39:21.627Z</time>
      </trkpt>
      <trkpt lat="47.337573" lon="7.846253">
        <ele>453.501920</ele>
        <time>2021-11-22T10:39:22.985Z</time>
      </trkpt>
      <trkpt lat="47.337490" lon="7.846284">
        <ele>453.651630</ele>
        <time>2021-11-22T10:39:25.166Z</time>
      </trkpt>
      <trkpt lat="47.337429" lon="7.846324">
        <ele>453.768352</ele>
        <time>2021-11-22T10:39:27.333Z</time>
      </trkpt>
      <trkpt lat="47.337370" lon="7.846246">
        <ele>453.906868</ele>
        <time>2021-11-22T10:39:29.762Z</time>
      </trkpt>
      <trkpt lat="47.337232" lon="7.845997">
        <ele>454.351474</ele>
        <time>2021-11-22T10:39:35.030Z</time>
      </trkpt>
      <trkpt lat="47.337160" lon="7.845902">
        <ele>454.553838</ele>
        <time>2021-11-22T10:39:38.092Z</time>
      </trkpt>
      <trkpt lat="47.337093" lon="7.845720">
        <ele>454.847922</ele>
        <time>2021-11-22T10:39:41.501Z</time>
      </trkpt>
      <trkpt lat="47.337134" lon="7.845642">
        <ele>454.988082</ele>
        <time>2021-11-22T10:39:42.978Z</time>
      </trkpt>
      <trkpt lat="47.337146" lon="7.845589">
        <ele>455.067424</ele>
        <time>2021-11-22T10:39:43.887Z</time>
      </trkpt>
      <trkpt lat="47.337173" lon="7.845465">
        <ele>455.252353</ele>
        <time>2021-11-22T10:39:46.656Z</time>
      </trkpt>
      <trkpt lat="47.337306" lon="7.844941">
        <ele>456.046836</ele>
        <time>2021-11-22T10:39:56.081Z</time>
      </trkpt>
      <trkpt lat="47.337324" lon="7.844567">
        <ele>456.579204</ele>
        <time>2021-11-22T10:40:02.255Z</time>
      </trkpt>
      <trkpt lat="47.337317" lon="7.844438">
        <ele>456.762953</ele>
        <time>2021-11-22T10:40:04.948Z</time>
      </trkpt>
      <trkpt lat="47.337406" lon="7.844334">
        <ele>457.000812</ele>
        <time>2021-11-22T10:40:07.821Z</time>
      </trkpt>
      <trkpt lat="47.337437" lon="7.844290">
        <ele>457.090932</ele>
        <time>2021-11-22T10:40:08.957Z</time>
      </trkpt>
      <trkpt lat="47.337510" lon="7.844188">
        <ele>457.301569</ele>
        <time>2021-11-22T10:40:11.918Z</time>
      </trkpt>
      <trkpt lat="47.337631" lon="7.844026">
        <ele>457.643883</ele>
        <time>2021-11-22T10:40:16.952Z</time>
      </trkpt>
      <trkpt lat="47.337723" lon="7.843871">
        <ele>458.303809</ele>
        <time>2021-11-22T10:40:20.949Z</time>
      </trkpt>
      <trkpt lat="47.337877" lon="7.843614">
        <ele>459.685844</ele>
        <time>2021-11-22T10:40:28.355Z</time>
      </trkpt>
      <trkpt lat="47.337900" lon="7.843503">
        <ele>460.153447</ele>
        <time>2021-11-22T10:40:30.596Z</time>
      </trkpt>
      <trkpt lat="47.337907" lon="7.843369">
        <ele>460.694873</ele>
        <time>2021-11-22T10:40:33.218Z</time>
      </trkpt>
      <trkpt lat="47.337893" lon="7.843241">
        <ele>461.217198</ele>
        <time>2021-11-22T10:40:35.893Z</time>
      </trkpt>
      <trkpt lat="47.337887" lon="7.843180">
        <ele>461.465514</ele>
        <time>2021-11-22T10:40:37.536Z</time>
      </trkpt>
      <trkpt lat="47.337883" lon="7.843156">
        <ele>461.565080</ele>
        <time>2021-11-22T10:40:38.544Z</time>
      </trkpt>
      <trkpt lat="47.337879" lon="7.843125">
        <ele>461.692208</ele>
        <time>2021-11-22T10:40:39.329Z</time>
      </trkpt>
      <trkpt lat="47.337801" lon="7.842585">
        <ele>463.916488</ele>
        <time>2021-11-22T10:40:53.961Z</time>
      </trkpt>
      <trkpt lat="47.337752" lon="7.842239">
        <ele>465.340476</ele>
        <time>2021-11-22T10:41:03.429Z</time>
      </trkpt>
      <trkpt lat="47.337663" lon="7.841555">
        <ele>468.146338</ele>
        <time>2021-11-22T10:41:25.420Z</time>
      </trkpt>
      <trkpt lat="47.337655" lon="7.841149">
        <ele>470.448660</ele>
        <time>2021-11-22T10:41:37.150Z</time>
      </trkpt>
      <trkpt lat="47.337652" lon="7.840972">
        <ele>471.512850</ele>
        <time>2021-11-22T10:41:45.513Z</time>
      </trkpt>
      <trkpt lat="47.337653" lon="7.840888">
        <ele>472.017809</ele>
        <time>2021-11-22T10:41:48.264Z</time>
      </trkpt>
      <trkpt lat="47.337661" lon="7.840801">
        <ele>472.545513</ele>
        <time>2021-11-22T10:41:51.121Z</time>
      </trkpt>
      <trkpt lat="47.337681" lon="7.840594">
        <ele>473.802265</ele>
        <time>2021-11-22T10:41:57.456Z</time>
      </trkpt>
      <trkpt lat="47.337679" lon="7.840593">
        <ele>473.820995</ele>
        <time>2021-11-22T10:41:57.700Z</time>
      </trkpt>
      <trkpt lat="47.337735" lon="7.840206">
        <ele>476.199488</ele>
        <time>2021-11-22T10:42:11.977Z</time>
      </trkpt>
      <trkpt lat="47.337809" lon="7.839635">
        <ele>479.693663</ele>
        <time>2021-11-22T10:42:30.585Z</time>
      </trkpt>
      <trkpt lat="47.337827" lon="7.839499">
        <ele>480.526531</ele>
        <time>2021-11-22T10:42:36.351Z</time>
      </trkpt>
      <trkpt lat="47.337830" lon="7.839424">
        <ele>480.978101</ele>
        <time>2021-11-22T10:42:39.522Z</time>
      </trkpt>
      <trkpt lat="47.337818" lon="7.839076">
        <ele>483.072450</ele>
        <time>2021-11-22T10:42:51.178Z</time>
      </trkpt>
      <trkpt lat="47.337798" lon="7.838939">
        <ele>483.914774</ele>
        <time>2021-11-22T10:42:57.669Z</time>
      </trkpt>
      <trkpt lat="47.337736" lon="7.838665">
        <ele>485.618722</ele>
        <time>2021-11-22T10:43:07.036Z</time>
      </trkpt>
      <trkpt lat="47.337473" lon="7.837404">
        <ele>493.347018</ele>
        <time>2021-11-22T10:43:50.563Z</time>
      </trkpt>
      <trkpt lat="47.337519" lon="7.837172">
        <ele>494.762948</ele>
        <time>2021-11-22T10:43:57.187Z</time>
      </trkpt>
      <trkpt lat="47.337558" lon="7.837132">
        <ele>495.173478</ele>
        <time>2021-11-22T10:44:00.323Z</time>
      </trkpt>
      <trkpt lat="47.337612" lon="7.837111">
        <ele>495.656169</ele>
        <time>2021-11-22T10:44:03.312Z</time>
      </trkpt>
      <trkpt lat="47.337707" lon="7.837162">
        <ele>496.529963</ele>
        <time>2021-11-22T10:44:09.046Z</time>
      </trkpt>
      <trkpt lat="47.337913" lon="7.837561">
        <ele>499.468124</ele>
        <time>2021-11-22T10:44:25.952Z</time>
      </trkpt>
      <trkpt lat="47.338135" lon="7.837793">
        <ele>502.132741</ele>
        <time>2021-11-22T10:44:37.640Z</time>
      </trkpt>
      <trkpt lat="47.338309" lon="7.837925">
        <ele>504.103947</ele>
        <time>2021-11-22T10:44:46.338Z</time>
      </trkpt>
      <trkpt lat="47.338823" lon="7.838289">
        <ele>509.848137</ele>
        <time>2021-11-22T10:45:19.477Z</time>
      </trkpt>
      <trkpt lat="47.338847" lon="7.838306">
        <ele>510.116359</ele>
        <time>2021-11-22T10:45:22.122Z</time>
      </trkpt>
      <trkpt lat="47.339649" lon="7.838833">
        <ele>519.068250</ele>
        <time>2021-11-22T10:46:10.454Z</time>
      </trkpt>
      <trkpt lat="47.339758" lon="7.838858">
        <ele>520.309577</ele>
        <time>2021-11-22T10:46:18.739Z</time>
      </trkpt>
      <trkpt lat="47.339758" lon="7.838858">
        <ele>520.309577</ele>
        <time>2021-11-22T10:46:18.987Z</time>
      </trkpt>
      <trkpt lat="47.339914" lon="7.838880">
        <ele>522.073077</ele>
        <time>2021-11-22T10:46:29.143Z</time>
      </trkpt>
      <trkpt lat="47.340351" lon="7.838828">
        <ele>527.006692</ele>
        <time>2021-11-22T10:46:52.740Z</time>
      </trkpt>
      <trkpt lat="47.340418" lon="7.838794">
        <ele>527.803991</ele>
        <time>2021-11-22T10:46:57.595Z</time>
      </trkpt>
      <trkpt lat="47.340450" lon="7.838777">
        <ele>528.186718</ele>
        <time>2021-11-22T10:47:00.423Z</time>
      </trkpt>
      <trkpt lat="47.340796" lon="7.838524">
        <ele>532.532098</ele>
        <time>2021-11-22T10:47:25.194Z</time>
      </trkpt>
      <trkpt lat="47.340847" lon="7.838470">
        <ele>533.238456</ele>
        <time>2021-11-22T10:47:30.348Z</time>
      </trkpt>
      <trkpt lat="47.340886" lon="7.838420">
        <ele>533.819821</ele>
        <time>2021-11-22T10:47:33.204Z</time>
      </trkpt>
      <trkpt lat="47.340996" lon="7.838283">
        <ele>535.439600</ele>
        <time>2021-11-22T10:47:38.661Z</time>
      </trkpt>
      <trkpt lat="47.341068" lon="7.838186">
        <ele>536.536686</ele>
        <time>2021-11-22T10:47:47.033Z</time>
      </trkpt>
      <trkpt lat="47.341102" lon="7.838135">
        <ele>537.082246</ele>
        <time>2021-11-22T10:47:51.395Z</time>
      </trkpt>
      <trkpt lat="47.341508" lon="7.837426">
        <ele>542.436891</ele>
        <time>2021-11-22T10:48:22.464Z</time>
      </trkpt>
      <trkpt lat="47.341536" lon="7.837315">
        <ele>543.074842</ele>
        <time>2021-11-22T10:48:28.363Z</time>
      </trkpt>
      <trkpt lat="47.341543" lon="7.837141">
        <ele>544.013692</ele>
        <time>2021-11-22T10:48:34.231Z</time>
      </trkpt>
      <trkpt lat="47.341482" lon="7.836789">
        <ele>545.970656</ele>
        <time>2021-11-22T10:48:44.633Z</time>
      </trkpt>
      <trkpt lat="47.340739" lon="7.834302">
        <ele>559.192750</ele>
        <time>2021-11-22T10:49:58.471Z</time>
      </trkpt>
      <trkpt lat="47.340694" lon="7.834086">
        <ele>560.194862</ele>
        <time>2021-11-22T10:50:04.026Z</time>
      </trkpt>
      <trkpt lat="47.340661" lon="7.833894">
        <ele>561.073260</ele>
        <time>2021-11-22T10:50:09.898Z</time>
      </trkpt>
      <trkpt lat="47.340662" lon="7.833559">
        <ele>562.558854</ele>
        <time>2021-11-22T10:50:18.564Z</time>
      </trkpt>
      <trkpt lat="47.340704" lon="7.833385">
        <ele>563.377960</ele>
        <time>2021-11-22T10:50:24.351Z</time>
      </trkpt>
      <trkpt lat="47.340896" lon="7.833095">
        <ele>565.462994</ele>
        <time>2021-11-22T10:50:35.813Z</time>
      </trkpt>
      <trkpt lat="47.341164" lon="7.832933">
        <ele>568.023501</ele>
        <time>2021-11-22T10:50:49.376Z</time>
      </trkpt>
      <trkpt lat="47.341472" lon="7.832843">
        <ele>570.799451</ele>
        <time>2021-11-22T10:51:05.372Z</time>
      </trkpt>
      <trkpt lat="47.341872" lon="7.832955">
        <ele>574.399013</ele>
        <time>2021-11-22T10:51:27.213Z</time>
      </trkpt>
      <trkpt lat="47.342013" lon="7.832923">
        <ele>575.660274</ele>
        <time>2021-11-22T10:51:34.500Z</time>
      </trkpt>
      <trkpt lat="47.342196" lon="7.832742">
        <ele>577.607979</ele>
        <time>2021-11-22T10:51:45.629Z</time>
      </trkpt>
      <trkpt lat="47.342348" lon="7.832471">
        <ele>579.715548</ele>
        <time>2021-11-22T10:51:57.809Z</time>
      </trkpt>
      <trkpt lat="47.342500" lon="7.832197">
        <ele>581.973046</ele>
        <time>2021-11-22T10:52:11.713Z</time>
      </trkpt>
      <trkpt lat="47.342728" lon="7.831854">
        <ele>585.099937</ele>
        <time>2021-11-22T10:52:29.285Z</time>
      </trkpt>
      <trkpt lat="47.342932" lon="7.831603">
        <ele>587.650759</ele>
        <time>2021-11-22T10:52:43.644Z</time>
      </trkpt>
      <trkpt lat="47.343089" lon="7.831399">
        <ele>589.659743</ele>
        <time>2021-11-22T10:52:54.677Z</time>
      </trkpt>
      <trkpt lat="47.343234" lon="7.831211">
        <ele>591.513420</ele>
        <time>2021-11-22T10:53:05.764Z</time>
      </trkpt>
      <trkpt lat="47.343432" lon="7.830961">
        <ele>594.016008</ele>
        <time>2021-11-22T10:53:20.548Z</time>
      </trkpt>
      <trkpt lat="47.343511" lon="7.830820">
        <ele>595.206643</ele>
        <time>2021-11-22T10:53:26.279Z</time>
      </trkpt>
      <trkpt lat="47.343537" lon="7.830746">
        <ele>595.749101</ele>
        <time>2021-11-22T10:53:29.984Z</time>
      </trkpt>
      <trkpt lat="47.343551" lon="7.830694">
        <ele>596.113234</ele>
        <time>2021-11-22T10:53:31.941Z</time>
      </trkpt>
      <trkpt lat="47.343565" lon="7.830623">
        <ele>596.594445</ele>
        <time>2021-11-22T10:53:33.793Z</time>
      </trkpt>
      <trkpt lat="47.343574" lon="7.830553">
        <ele>597.058111</ele>
        <time>2021-11-22T10:53:36.635Z</time>
      </trkpt>
      <trkpt lat="47.343609" lon="7.830032">
        <ele>599.920150</ele>
        <time>2021-11-22T10:53:53.568Z</time>
      </trkpt>
      <trkpt lat="47.343636" lon="7.829556">
        <ele>602.450540</ele>
        <time>2021-11-22T10:54:08.730Z</time>
      </trkpt>
      <trkpt lat="47.343646" lon="7.829499">
        <ele>602.762449</ele>
        <time>2021-11-22T10:54:11.384Z</time>
      </trkpt>
      <trkpt lat="47.343689" lon="7.829402">
        <ele>603.376494</ele>
        <time>2021-11-22T10:54:16.256Z</time>
      </trkpt>
      <trkpt lat="47.344182" lon="7.828761">
        <ele>608.513161</ele>
        <time>2021-11-22T10:54:45.760Z</time>
      </trkpt>
      <trkpt lat="47.344311" lon="7.828371">
        <ele>610.812143</ele>
        <time>2021-11-22T10:54:56.137Z</time>
      </trkpt>
      <trkpt lat="47.344375" lon="7.828177">
        <ele>611.930810</ele>
        <time>2021-11-22T10:55:03.825Z</time>
      </trkpt>
      <trkpt lat="47.344594" lon="7.827628">
        <ele>615.076888</ele>
        <time>2021-11-22T10:55:20.622Z</time>
      </trkpt>
      <trkpt lat="47.344972" lon="7.826631">
        <ele>620.718713</ele>
        <time>2021-11-22T10:55:52.406Z</time>
      </trkpt>
      <trkpt lat="47.345010" lon="7.826147">
        <ele>623.124833</ele>
        <time>2021-11-22T10:56:08.320Z</time>
      </trkpt>
      <trkpt lat="47.344933" lon="7.825532">
        <ele>627.288919</ele>
        <time>2021-11-22T10:56:28.841Z</time>
      </trkpt>
      <trkpt lat="47.344683" lon="7.824857">
        <ele>633.796084</ele>
        <time>2021-11-22T10:56:58.302Z</time>
      </trkpt>
      <trkpt lat="47.344588" lon="7.824376">
        <ele>638.034219</ele>
        <time>2021-11-22T10:57:20.527Z</time>
      </trkpt>
      <trkpt lat="47.344576" lon="7.823827">
        <ele>642.680666</ele>
        <time>2021-11-22T10:57:47.679Z</time>
      </trkpt>
      <trkpt lat="47.344668" lon="7.822494">
        <ele>655.667862</ele>
        <time>2021-11-22T10:58:59.856Z</time>
      </trkpt>
      <trkpt lat="47.344659" lon="7.822343">
        <ele>657.259254</ele>
        <time>2021-11-22T10:59:08.160Z</time>
      </trkpt>
      <trkpt lat="47.344520" lon="7.821905">
        <ele>662.336950</ele>
        <time>2021-11-22T10:59:34.695Z</time>
      </trkpt>
      <trkpt lat="47.344471" lon="7.820925">
        <ele>672.653470</ele>
        <time>2021-11-22T11:00:25.646Z</time>
      </trkpt>
      <trkpt lat="47.344530" lon="7.820567">
        <ele>676.181019</ele>
        <time>2021-11-22T11:00:43.051Z</time>
      </trkpt>
      <trkpt lat="47.344414" lon="7.819740">
        <ele>683.027245</ele>
        <time>2021-11-22T11:01:22.982Z</time>
      </trkpt>
      <trkpt lat="47.344433" lon="7.819174">
        <ele>687.621165</ele>
        <time>2021-11-22T11:01:47.275Z</time>
      </trkpt>
      <trkpt lat="47.344346" lon="7.818231">
        <ele>695.336156</ele>
        <time>2021-11-22T11:02:23.933Z</time>
      </trkpt>
      <trkpt lat="47.344324" lon="7.818141">
        <ele>696.111769</ele>
        <time>2021-11-22T11:02:27.295Z</time>
      </trkpt>
      <trkpt lat="47.344303" lon="7.818078">
        <ele>696.634730</ele>
        <time>2021-11-22T11:02:29.468Z</time>
      </trkpt>
      <trkpt lat="47.344273" lon="7.818012">
        <ele>697.058977</ele>
        <time>2021-11-22T11:02:31.906Z</time>
      </trkpt>
      <trkpt lat="47.344203" lon="7.817903">
        <ele>697.860648</ele>
        <time>2021-11-22T11:02:38.758Z</time>
      </trkpt>
      <trkpt lat="47.343873" lon="7.817395">
        <ele>701.617330</ele>
        <time>2021-11-22T11:03:01.786Z</time>
      </trkpt>
      <trkpt lat="47.343897" lon="7.816527">
        <ele>706.254732</ele>
        <time>2021-11-22T11:03:30.030Z</time>
      </trkpt>
      <trkpt lat="47.343818" lon="7.815263">
        <ele>711.996409</ele>
        <time>2021-11-22T11:04:04.247Z</time>
      </trkpt>
      <trkpt lat="47.343636" lon="7.814350">
        <ele>714.806909</ele>
        <time>2021-11-22T11:04:25.547Z</time>
      </trkpt>
      <trkpt lat="47.343591" lon="7.813348">
        <ele>717.772482</ele>
        <time>2021-11-22T11:04:45.424Z</time>
      </trkpt>
      <trkpt lat="47.343623" lon="7.813055">
        <ele>718.617360</ele>
        <time>2021-11-22T11:04:50.549Z</time>
      </trkpt>
      <trkpt lat="47.343645" lon="7.812967">
        <ele>718.801693</ele>
        <time>2021-11-22T11:04:52.541Z</time>
      </trkpt>
      <trkpt lat="47.343735" lon="7.812609">
        <ele>719.552094</ele>
        <time>2021-11-22T11:04:58.872Z</time>
      </trkpt>
      <trkpt lat="47.343783" lon="7.812357">
        <ele>720.066517</ele>
        <time>2021-11-22T11:05:03.582Z</time>
      </trkpt>
      <trkpt lat="47.343858" lon="7.810961">
        <ele>722.818535</ele>
        <time>2021-11-22T11:05:28.332Z</time>
      </trkpt>
      <trkpt lat="47.343543" lon="7.809210">
        <ele>725.764093</ele>
        <time>2021-11-22T11:06:00.797Z</time>
      </trkpt>
      <trkpt lat="47.343491" lon="7.808920">
        <ele>726.214653</ele>
        <time>2021-11-22T11:06:06.364Z</time>
      </trkpt>
      <trkpt lat="47.343477" lon="7.808674">
        <ele>726.585436</ele>
        <time>2021-11-22T11:06:10.239Z</time>
      </trkpt>
      <trkpt lat="47.343282" lon="7.804807">
        <ele>729.346948</ele>
        <time>2021-11-22T11:06:59.053Z</time>
      </trkpt>
      <trkpt lat="47.343276" lon="7.804626">
        <ele>729.355821</ele>
        <time>2021-11-22T11:07:00.628Z</time>
      </trkpt>
      <trkpt lat="47.343200" lon="7.804075">
        <ele>729.383352</ele>
        <time>2021-11-22T11:07:05.227Z</time>
      </trkpt>
      <trkpt lat="47.342753" lon="7.802308">
        <ele>730.839937</ele>
        <time>2021-11-22T11:07:22.897Z</time>
      </trkpt>
      <trkpt lat="47.342555" lon="7.801719">
        <ele>733.018600</ele>
        <time>2021-11-22T11:07:36.428Z</time>
      </trkpt>
      <trkpt lat="47.342350" lon="7.801273">
        <ele>734.804375</ele>
        <time>2021-11-22T11:07:49.107Z</time>
      </trkpt>
      <trkpt lat="47.342304" lon="7.801173">
        <ele>735.204873</ele>
        <time>2021-11-22T11:07:52.757Z</time>
      </trkpt>
      <trkpt lat="47.342120" lon="7.800763">
        <ele>736.834385</ele>
        <time>2021-11-22T11:08:05.447Z</time>
      </trkpt>
      <trkpt lat="47.342040" lon="7.800542">
        <ele>737.664635</ele>
        <time>2021-11-22T11:08:11.787Z</time>
      </trkpt>
      <trkpt lat="47.341933" lon="7.800266">
        <ele>739.308086</ele>
        <time>2021-11-22T11:08:23.856Z</time>
      </trkpt>
      <trkpt lat="47.341295" lon="7.798559">
        <ele>753.916162</ele>
        <time>2021-11-22T11:09:45.970Z</time>
      </trkpt>
      <trkpt lat="47.341233" lon="7.798428">
        <ele>755.113542</ele>
        <time>2021-11-22T11:09:53.831Z</time>
      </trkpt>
      <trkpt lat="47.341139" lon="7.798248">
        <ele>756.816452</ele>
        <time>2021-11-22T11:10:04.001Z</time>
      </trkpt>
      <trkpt lat="47.340877" lon="7.797698">
        <ele>761.160754</ele>
        <time>2021-11-22T11:10:28.851Z</time>
      </trkpt>
      <trkpt lat="47.340795" lon="7.797342">
        <ele>763.452078</ele>
        <time>2021-11-22T11:10:44.533Z</time>
      </trkpt>
      <trkpt lat="47.340600" lon="7.796294">
        <ele>770.074861</ele>
        <time>2021-11-22T11:11:24.792Z</time>
      </trkpt>
      <trkpt lat="47.340422" lon="7.795302">
        <ele>775.065418</ele>
        <time>2021-11-22T11:11:51.023Z</time>
      </trkpt>
      <trkpt lat="47.339979" lon="7.793658">
        <ele>779.081115</ele>
        <time>2021-11-22T11:12:25.693Z</time>
      </trkpt>
      <trkpt lat="47.339343" lon="7.788972">
        <ele>780.900738</ele>
        <time>2021-11-22T11:13:22.322Z</time>
      </trkpt>
      <trkpt lat="47.339330" lon="7.788877">
        <ele>780.846631</ele>
        <time>2021-11-22T11:13:23.629Z</time>
      </trkpt>
      <trkpt lat="47.339295" lon="7.788663">
        <ele>780.723729</ele>
        <time>2021-11-22T11:13:25.164Z</time>
      </trkpt>
      <trkpt lat="47.339286" lon="7.788558">
        <ele>780.664643</ele>
        <time>2021-11-22T11:13:25.905Z</time>
      </trkpt>
      <trkpt lat="47.339285" lon="7.788421">
        <ele>780.588154</ele>
        <time>2021-11-22T11:13:26.853Z</time>
      </trkpt>
      <trkpt lat="47.339284" lon="7.787585">
        <ele>779.282797</ele>
        <time>2021-11-22T11:13:32.638Z</time>
      </trkpt>
      <trkpt lat="47.339283" lon="7.787466">
        <ele>778.896183</ele>
        <time>2021-11-22T11:13:33.414Z</time>
      </trkpt>
      <trkpt lat="47.339301" lon="7.786846">
        <ele>776.880197</ele>
        <time>2021-11-22T11:13:37.451Z</time>
      </trkpt>
      <trkpt lat="47.339352" lon="7.785813">
        <ele>773.515491</ele>
        <time>2021-11-22T11:13:43.927Z</time>
      </trkpt>
      <trkpt lat="47.339442" lon="7.785250">
        <ele>771.640449</ele>
        <time>2021-11-22T11:13:47.548Z</time>
      </trkpt>
      <trkpt lat="47.339692" lon="7.784069">
        <ele>768.073424</ele>
        <time>2021-11-22T11:13:55.544Z</time>
      </trkpt>
      <trkpt lat="47.340170" lon="7.781791">
        <ele>761.775622</ele>
        <time>2021-11-22T11:14:11.564Z</time>
      </trkpt>
      <trkpt lat="47.340192" lon="7.781684">
        <ele>761.519182</ele>
        <time>2021-11-22T11:14:12.309Z</time>
      </trkpt>
      <trkpt lat="47.340207" lon="7.781563">
        <ele>761.237076</ele>
        <time>2021-11-22T11:14:13.142Z</time>
      </trkpt>
      <trkpt lat="47.340153" lon="7.779719">
        <ele>756.894224</ele>
        <time>2021-11-22T11:14:25.956Z</time>
      </trkpt>
      <trkpt lat="47.340429" lon="7.776997">
        <ele>749.688967</ele>
        <time>2021-11-22T11:14:44.178Z</time>
      </trkpt>
      <trkpt lat="47.340191" lon="7.774536">
        <ele>742.550410</ele>
        <time>2021-11-22T11:15:00.445Z</time>
      </trkpt>
      <trkpt lat="47.340256" lon="7.774156">
        <ele>741.387097</ele>
        <time>2021-11-22T11:15:03.000Z</time>
      </trkpt>
      <trkpt lat="47.340398" lon="7.774030">
        <ele>740.661320</ele>
        <time>2021-11-22T11:15:04.642Z</time>
      </trkpt>
      <trkpt lat="47.340460" lon="7.774022">
        <ele>740.388709</ele>
        <time>2021-11-22T11:15:05.195Z</time>
      </trkpt>
      <trkpt lat="47.340560" lon="7.774027">
        <ele>739.950433</ele>
        <time>2021-11-22T11:15:06.174Z</time>
      </trkpt>
      <trkpt lat="47.341082" lon="7.774273">
        <ele>737.550185</ele>
        <time>2021-11-22T11:15:11.424Z</time>
      </trkpt>
      <trkpt lat="47.341123" lon="7.774286">
        <ele>737.366496</ele>
        <time>2021-11-22T11:15:12.197Z</time>
      </trkpt>
      <trkpt lat="47.341178" lon="7.774292">
        <ele>737.124925</ele>
        <time>2021-11-22T11:15:12.665Z</time>
      </trkpt>
      <trkpt lat="47.341325" lon="7.774204">
        <ele>736.430067</ele>
        <time>2021-11-22T11:15:14.274Z</time>
      </trkpt>
      <trkpt lat="47.341374" lon="7.774058">
        <ele>735.946473</ele>
        <time>2021-11-22T11:15:15.365Z</time>
      </trkpt>
      <trkpt lat="47.341474" lon="7.773020">
        <ele>733.840919</ele>
        <time>2021-11-22T11:15:22.249Z</time>
      </trkpt>
      <trkpt lat="47.341728" lon="7.771392">
        <ele>730.644538</ele>
        <time>2021-11-22T11:15:33.996Z</time>
      </trkpt>
      <trkpt lat="47.342216" lon="7.770720">
        <ele>730.535526</ele>
        <time>2021-11-22T11:15:46.578Z</time>
      </trkpt>
      <trkpt lat="47.342315" lon="7.770663">
        <ele>730.526949</ele>
        <time>2021-11-22T11:15:49.295Z</time>
      </trkpt>
      <trkpt lat="47.342432" lon="7.770693">
        <ele>730.517364</ele>
        <time>2021-11-22T11:15:52.659Z</time>
      </trkpt>
      <trkpt lat="47.343478" lon="7.771550">
        <ele>728.267879</ele>
        <time>2021-11-22T11:16:10.796Z</time>
      </trkpt>
      <trkpt lat="47.343761" lon="7.771721">
        <ele>725.805843</ele>
        <time>2021-11-22T11:16:13.624Z</time>
      </trkpt>
      <trkpt lat="47.344064" lon="7.771784">
        <ele>723.342272</ele>
        <time>2021-11-22T11:16:16.286Z</time>
      </trkpt>
      <trkpt lat="47.344162" lon="7.771780">
        <ele>722.552964</ele>
        <time>2021-11-22T11:16:17.140Z</time>
      </trkpt>
      <trkpt lat="47.344250" lon="7.771775">
        <ele>721.843944</ele>
        <time>2021-11-22T11:16:17.862Z</time>
      </trkpt>
      <trkpt lat="47.344482" lon="7.771725">
        <ele>719.956280</ele>
        <time>2021-11-22T11:16:20.027Z</time>
      </trkpt>
      <trkpt lat="47.344594" lon="7.771683">
        <ele>719.025904</ele>
        <time>2021-11-22T11:16:20.975Z</time>
      </trkpt>
      <trkpt lat="47.344681" lon="7.771648">
        <ele>718.299902</ele>
        <time>2021-11-22T11:16:21.751Z</time>
      </trkpt>
      <trkpt lat="47.344932" lon="7.771527">
        <ele>716.174004</ele>
        <time>2021-11-22T11:16:23.979Z</time>
      </trkpt>
      <trkpt lat="47.344999" lon="7.771491">
        <ele>715.564913</ele>
        <time>2021-11-22T11:16:24.581Z</time>
      </trkpt>
      <trkpt lat="47.345050" lon="7.771455">
        <ele>715.065670</ele>
        <time>2021-11-22T11:16:25.080Z</time>
      </trkpt>
      <trkpt lat="47.345182" lon="7.771346">
        <ele>713.729922</ele>
        <time>2021-11-22T11:16:26.404Z</time>
      </trkpt>
      <trkpt lat="47.345199" lon="7.771332">
        <ele>713.558005</ele>
        <time>2021-11-22T11:16:26.572Z</time>
      </trkpt>
      <trkpt lat="47.345428" lon="7.771129">
        <ele>711.198954</ele>
        <time>2021-11-22T11:16:28.827Z</time>
      </trkpt>
      <trkpt lat="47.345714" lon="7.770880">
        <ele>708.266580</ele>
        <time>2021-11-22T11:16:31.599Z</time>
      </trkpt>
      <trkpt lat="47.346177" lon="7.770480">
        <ele>703.528825</ele>
        <time>2021-11-22T11:16:36.296Z</time>
      </trkpt>
      <trkpt lat="47.346471" lon="7.770258">
        <ele>700.612440</ele>
        <time>2021-11-22T11:16:39.492Z</time>
      </trkpt>
      <trkpt lat="47.346822" lon="7.769994">
        <ele>700.315933</ele>
        <time>2021-11-22T11:16:44.277Z</time>
      </trkpt>
      <trkpt lat="47.346932" lon="7.769911">
        <ele>700.404163</ele>
        <time>2021-11-22T11:16:46.247Z</time>
      </trkpt>
      <trkpt lat="47.347037" lon="7.769831">
        <ele>700.488553</ele>
        <time>2021-11-22T11:16:48.265Z</time>
      </trkpt>
      <trkpt lat="47.347296" lon="7.769669">
        <ele>700.689447</ele>
        <time>2021-11-22T11:16:53.716Z</time>
      </trkpt>
      <trkpt lat="47.347266" lon="7.769493">
        <ele>700.777264</ele>
        <time>2021-11-22T11:16:56.750Z</time>
      </trkpt>
      <trkpt lat="47.347257" lon="7.769445">
        <ele>700.801364</ele>
        <time>2021-11-22T11:16:57.633Z</time>
      </trkpt>
      <trkpt lat="47.347215" lon="7.769194">
        <ele>700.926468</ele>
        <time>2021-11-22T11:17:02.790Z</time>
      </trkpt>
      <trkpt lat="47.347207" lon="7.769113">
        <ele>700.966077</ele>
        <time>2021-11-22T11:17:04.577Z</time>
      </trkpt>
      <trkpt lat="47.347474" lon="7.769064">
        <ele>701.158228</ele>
        <time>2021-11-22T11:17:10.999Z</time>
      </trkpt>
      <trkpt lat="47.347598" lon="7.769044">
        <ele>701.247312</ele>
        <time>2021-11-22T11:17:14.150Z</time>
      </trkpt>
      <trkpt lat="47.347733" lon="7.769019">
        <ele>701.344480</ele>
        <time>2021-11-22T11:17:17.882Z</time>
      </trkpt>
      <trkpt lat="47.347883" lon="7.768952">
        <ele>701.891590</ele>
        <time>2021-11-22T11:17:21.971Z</time>
      </trkpt>
      <trkpt lat="47.348034" lon="7.768874">
        <ele>702.534502</ele>
        <time>2021-11-22T11:17:25.888Z</time>
      </trkpt>
      <trkpt lat="47.348359" lon="7.768664">
        <ele>703.960253</ele>
        <time>2021-11-22T11:17:36.284Z</time>
      </trkpt>
      <trkpt lat="47.348411" lon="7.768632">
        <ele>704.186661</ele>
        <time>2021-11-22T11:17:38.074Z</time>
      </trkpt>
      <trkpt lat="47.348432" lon="7.768618">
        <ele>704.279263</ele>
        <time>2021-11-22T11:17:38.996Z</time>
      </trkpt>
      <trkpt lat="47.348470" lon="7.768595">
        <ele>704.444314</ele>
        <time>2021-11-22T11:17:40.647Z</time>
      </trkpt>
      <trkpt lat="47.348999" lon="7.768255">
        <ele>706.763016</ele>
        <time>2021-11-22T11:17:58.262Z</time>
      </trkpt>
      <trkpt lat="47.349069" lon="7.768196">
        <ele>707.086960</ele>
        <time>2021-11-22T11:18:01.400Z</time>
      </trkpt>
      <trkpt lat="47.349336" lon="7.767844">
        <ele>708.525660</ele>
        <time>2021-11-22T11:18:13.763Z</time>
      </trkpt>
      <trkpt lat="47.349388" lon="7.767753">
        <ele>708.912547</ele>
        <time>2021-11-22T11:18:16.904Z</time>
      </trkpt>
      <trkpt lat="47.349457" lon="7.767605">
        <ele>709.520104</ele>
        <time>2021-11-22T11:18:20.949Z</time>
      </trkpt>
      <trkpt lat="47.349526" lon="7.767381">
        <ele>710.352247</ele>
        <time>2021-11-22T11:18:26.531Z</time>
      </trkpt>
      <trkpt lat="47.349550" lon="7.767265">
        <ele>710.762420</ele>
        <time>2021-11-22T11:18:29.825Z</time>
      </trkpt>
      <trkpt lat="47.349614" lon="7.766878">
        <ele>712.109600</ele>
        <time>2021-11-22T11:18:38.919Z</time>
      </trkpt>
      <trkpt lat="47.349692" lon="7.766459">
        <ele>713.579087</ele>
        <time>2021-11-22T11:18:49.068Z</time>
      </trkpt>
      <trkpt lat="47.349705" lon="7.766380">
        <ele>713.854016</ele>
        <time>2021-11-22T11:18:51.414Z</time>
      </trkpt>
      <trkpt lat="47.349721" lon="7.766282">
        <ele>714.194919</ele>
        <time>2021-11-22T11:18:54.066Z</time>
      </trkpt>
      <trkpt lat="47.349780" lon="7.765953">
        <ele>715.345843</ele>
        <time>2021-11-22T11:19:01.883Z</time>
      </trkpt>
      <trkpt lat="47.349912" lon="7.765369">
        <ele>717.427810</ele>
        <time>2021-11-22T11:19:16.639Z</time>
      </trkpt>
      <trkpt lat="47.350098" lon="7.765068">
        <ele>718.698195</ele>
        <time>2021-11-22T11:19:25.978Z</time>
      </trkpt>
      <trkpt lat="47.351146" lon="7.764519">
        <ele>723.767394</ele>
        <time>2021-11-22T11:20:03.327Z</time>
      </trkpt>
      <trkpt lat="47.351382" lon="7.764309">
        <ele>725.023557</ele>
        <time>2021-11-22T11:20:13.731Z</time>
      </trkpt>
      <trkpt lat="47.351451" lon="7.764228">
        <ele>725.425437</ele>
        <time>2021-11-22T11:20:14.695Z</time>
      </trkpt>
      <trkpt lat="47.351629" lon="7.764018">
        <ele>726.140596</ele>
        <time>2021-11-22T11:20:22.102Z</time>
      </trkpt>
      <trkpt lat="47.351658" lon="7.763983">
        <ele>726.232068</ele>
        <time>2021-11-22T11:20:24.857Z</time>
      </trkpt>
      <trkpt lat="47.351735" lon="7.763895">
        <ele>726.469862</ele>
        <time>2021-11-22T11:20:25.966Z</time>
      </trkpt>
      <trkpt lat="47.351748" lon="7.763878">
        <ele>726.512272</ele>
        <time>2021-11-22T11:20:26.848Z</time>
      </trkpt>
      <trkpt lat="47.351826" lon="7.763777">
        <ele>726.765638</ele>
        <time>2021-11-22T11:20:29.469Z</time>
      </trkpt>
      <trkpt lat="47.351930" lon="7.763646">
        <ele>727.099491</ele>
        <time>2021-11-22T11:20:34.738Z</time>
      </trkpt>
      <trkpt lat="47.352148" lon="7.763507">
        <ele>727.679355</ele>
        <time>2021-11-22T11:20:39.317Z</time>
      </trkpt>
      <trkpt lat="47.352189" lon="7.763487">
        <ele>727.784796</ele>
        <time>2021-11-22T11:20:40.430Z</time>
      </trkpt>
      <trkpt lat="47.352407" lon="7.763381">
        <ele>728.345256</ele>
        <time>2021-11-22T11:20:46.429Z</time>
      </trkpt>
      <trkpt lat="47.352908" lon="7.763033">
        <ele>729.697305</ele>
        <time>2021-11-22T11:20:59.464Z</time>
      </trkpt>
      <trkpt lat="47.353000" lon="7.762937">
        <ele>729.972421</ele>
        <time>2021-11-22T11:21:00.665Z</time>
      </trkpt>
      <trkpt lat="47.353062" lon="7.762868">
        <ele>730.162261</ele>
        <time>2021-11-22T11:21:02.005Z</time>
      </trkpt>
      <trkpt lat="47.353138" lon="7.762778">
        <ele>730.420677</ele>
        <time>2021-11-22T11:21:03.087Z</time>
      </trkpt>
      <trkpt lat="47.353949" lon="7.761596">
        <ele>733.443410</ele>
        <time>2021-11-22T11:21:29.552Z</time>
      </trkpt>
      <trkpt lat="47.354217" lon="7.761201">
        <ele>734.447857</ele>
        <time>2021-11-22T11:21:40.360Z</time>
      </trkpt>
      <trkpt lat="47.354330" lon="7.761048">
        <ele>734.854538</ele>
        <time>2021-11-22T11:21:47.214Z</time>
      </trkpt>
      <trkpt lat="47.354515" lon="7.760905">
        <ele>735.717745</ele>
        <time>2021-11-22T11:21:54.096Z</time>
      </trkpt>
      <trkpt lat="47.354960" lon="7.760707">
        <ele>737.746851</ele>
        <time>2021-11-22T11:22:15.812Z</time>
      </trkpt>
      <trkpt lat="47.355423" lon="7.760365">
        <ele>740.007156</ele>
        <time>2021-11-22T11:22:38.659Z</time>
      </trkpt>
      <trkpt lat="47.356127" lon="7.760648">
        <ele>742.304092</ele>
        <time>2021-11-22T11:23:04.841Z</time>
      </trkpt>
      <trkpt lat="47.356389" lon="7.760772">
        <ele>740.905621</ele>
        <time>2021-11-22T11:23:12.282Z</time>
      </trkpt>
      <trkpt lat="47.357676" lon="7.761373">
        <ele>734.044518</ele>
        <time>2021-11-22T11:23:29.791Z</time>
      </trkpt>
      <trkpt lat="47.358226" lon="7.761547">
        <ele>727.844830</ele>
        <time>2021-11-22T11:23:36.482Z</time>
      </trkpt>
      <trkpt lat="47.358297" lon="7.761558">
        <ele>726.988077</ele>
        <time>2021-11-22T11:23:37.290Z</time>
      </trkpt>
      <trkpt lat="47.358537" lon="7.761582">
        <ele>724.101227</ele>
        <time>2021-11-22T11:23:40.185Z</time>
      </trkpt>
      <trkpt lat="47.358603" lon="7.761580">
        <ele>723.308991</ele>
        <time>2021-11-22T11:23:40.948Z</time>
      </trkpt>
      <trkpt lat="47.358694" lon="7.761576">
        <ele>722.216413</ele>
        <time>2021-11-22T11:23:41.989Z</time>
      </trkpt>
      <trkpt lat="47.359034" lon="7.761428">
        <ele>717.962367</ele>
        <time>2021-11-22T11:23:46.197Z</time>
      </trkpt>
      <trkpt lat="47.359296" lon="7.761144">
        <ele>714.061481</ele>
        <time>2021-11-22T11:23:50.134Z</time>
      </trkpt>
      <trkpt lat="47.359346" lon="7.761072">
        <ele>713.223230</ele>
        <time>2021-11-22T11:23:50.948Z</time>
      </trkpt>
      <trkpt lat="47.359560" lon="7.760802">
        <ele>711.125107</ele>
        <time>2021-11-22T11:23:54.428Z</time>
      </trkpt>
      <trkpt lat="47.359646" lon="7.760729">
        <ele>710.624427</ele>
        <time>2021-11-22T11:23:55.596Z</time>
      </trkpt>
      <trkpt lat="47.359796" lon="7.760632">
        <ele>709.797929</ele>
        <time>2021-11-22T11:23:57.189Z</time>
      </trkpt>
      <trkpt lat="47.359972" lon="7.760553">
        <ele>708.869503</ele>
        <time>2021-11-22T11:23:58.776Z</time>
      </trkpt>
      <trkpt lat="47.360138" lon="7.760481">
        <ele>707.996288</ele>
        <time>2021-11-22T11:24:00.759Z</time>
      </trkpt>
      <trkpt lat="47.360456" lon="7.760322">
        <ele>706.301785</ele>
        <time>2021-11-22T11:24:04.152Z</time>
      </trkpt>
      <trkpt lat="47.361491" lon="7.759613">
        <ele>701.560415</ele>
        <time>2021-11-22T11:24:16.478Z</time>
      </trkpt>
      <trkpt lat="47.361763" lon="7.759323">
        <ele>700.574955</ele>
        <time>2021-11-22T11:24:20.137Z</time>
      </trkpt>
      <trkpt lat="47.362144" lon="7.758772">
        <ele>699.008437</ele>
        <time>2021-11-22T11:24:25.501Z</time>
      </trkpt>
      <trkpt lat="47.362432" lon="7.758068">
        <ele>697.166268</ele>
        <time>2021-11-22T11:24:31.018Z</time>
      </trkpt>
      <trkpt lat="47.362768" lon="7.757595">
        <ele>694.929043</ele>
        <time>2021-11-22T11:24:35.556Z</time>
      </trkpt>
      <trkpt lat="47.362977" lon="7.757393">
        <ele>693.725283</ele>
        <time>2021-11-22T11:24:37.996Z</time>
      </trkpt>
      <trkpt lat="47.364665" lon="7.756398">
        <ele>683.759967</ele>
        <time>2021-11-22T11:24:54.834Z</time>
      </trkpt>
      <trkpt lat="47.365144" lon="7.756010">
        <ele>680.344524</ele>
        <time>2021-11-22T11:24:59.727Z</time>
      </trkpt>
      <trkpt lat="47.365223" lon="7.755923">
        <ele>679.728417</ele>
        <time>2021-11-22T11:25:00.624Z</time>
      </trkpt>
      <trkpt lat="47.365347" lon="7.755739">
        <ele>678.629397</ele>
        <time>2021-11-22T11:25:02.201Z</time>
      </trkpt>
      <trkpt lat="47.365453" lon="7.755538">
        <ele>677.613691</ele>
        <time>2021-11-22T11:25:03.766Z</time>
      </trkpt>
      <trkpt lat="47.365506" lon="7.755428">
        <ele>677.197295</ele>
        <time>2021-11-22T11:25:04.593Z</time>
      </trkpt>
      <trkpt lat="47.365610" lon="7.755187">
        <ele>676.315853</ele>
        <time>2021-11-22T11:25:06.358Z</time>
      </trkpt>
      <trkpt lat="47.365712" lon="7.754953">
        <ele>675.457506</ele>
        <time>2021-11-22T11:25:08.081Z</time>
      </trkpt>
      <trkpt lat="47.366228" lon="7.753823">
        <ele>671.253800</ele>
        <time>2021-11-22T11:25:16.734Z</time>
      </trkpt>
      <trkpt lat="47.366610" lon="7.753012">
        <ele>668.925826</ele>
        <time>2021-11-22T11:25:25.002Z</time>
      </trkpt>
      <trkpt lat="47.366818" lon="7.752705">
        <ele>668.282047</ele>
        <time>2021-11-22T11:25:28.579Z</time>
      </trkpt>
      <trkpt lat="47.366892" lon="7.752633">
        <ele>668.088058</ele>
        <time>2021-11-22T11:25:29.753Z</time>
      </trkpt>
      <trkpt lat="47.367142" lon="7.752434">
        <ele>667.466365</ele>
        <time>2021-11-22T11:25:32.961Z</time>
      </trkpt>
      <trkpt lat="47.367647" lon="7.751948">
        <ele>666.146873</ele>
        <time>2021-11-22T11:25:39.506Z</time>
      </trkpt>
      <trkpt lat="47.367842" lon="7.751673">
        <ele>665.416504</ele>
        <time>2021-11-22T11:25:42.272Z</time>
      </trkpt>
      <trkpt lat="47.368671" lon="7.750109">
        <ele>658.244288</ele>
        <time>2021-11-22T11:25:54.901Z</time>
      </trkpt>
      <trkpt lat="47.369180" lon="7.749821">
        <ele>655.109206</ele>
        <time>2021-11-22T11:25:59.800Z</time>
      </trkpt>
      <trkpt lat="47.370155" lon="7.748818">
        <ele>646.777638</ele>
        <time>2021-11-22T11:26:10.339Z</time>
      </trkpt>
      <trkpt lat="47.370406" lon="7.748697">
        <ele>644.926382</ele>
        <time>2021-11-22T11:26:12.730Z</time>
      </trkpt>
      <trkpt lat="47.371101" lon="7.748488">
        <ele>641.543399</ele>
        <time>2021-11-22T11:26:19.288Z</time>
      </trkpt>
      <trkpt lat="47.371183" lon="7.748465">
        <ele>641.224079</ele>
        <time>2021-11-22T11:26:20.053Z</time>
      </trkpt>
      <trkpt lat="47.371219" lon="7.748456">
        <ele>641.084392</ele>
        <time>2021-11-22T11:26:20.430Z</time>
      </trkpt>
      <trkpt lat="47.371502" lon="7.748381">
        <ele>639.984410</ele>
        <time>2021-11-22T11:26:23.211Z</time>
      </trkpt>
      <trkpt lat="47.372648" lon="7.748213">
        <ele>636.019886</ele>
        <time>2021-11-22T11:26:35.474Z</time>
      </trkpt>
      <trkpt lat="47.373513" lon="7.747993">
        <ele>634.154125</ele>
        <time>2021-11-22T11:26:46.346Z</time>
      </trkpt>
      <trkpt lat="47.374049" lon="7.748038">
        <ele>633.012938</ele>
        <time>2021-11-22T11:26:52.245Z</time>
      </trkpt>
      <trkpt lat="47.374630" lon="7.748215">
        <ele>629.548550</ele>
        <time>2021-11-22T11:26:57.853Z</time>
      </trkpt>
      <trkpt lat="47.374819" lon="7.748274">
        <ele>628.229951</ele>
        <time>2021-11-22T11:26:59.655Z</time>
      </trkpt>
      <trkpt lat="47.374946" lon="7.748312">
        <ele>627.345450</ele>
        <time>2021-11-22T11:27:00.824Z</time>
      </trkpt>
      <trkpt lat="47.375486" lon="7.748472">
        <ele>623.586020</ele>
        <time>2021-11-22T11:27:05.791Z</time>
      </trkpt>
      <trkpt lat="47.375845" lon="7.748573">
        <ele>621.091461</ele>
        <time>2021-11-22T11:27:09.024Z</time>
      </trkpt>
      <trkpt lat="47.376182" lon="7.748757">
        <ele>617.572728</ele>
        <time>2021-11-22T11:27:12.056Z</time>
      </trkpt>
      <trkpt lat="47.376617" lon="7.749424">
        <ele>610.801356</ele>
        <time>2021-11-22T11:27:17.343Z</time>
      </trkpt>
      <trkpt lat="47.376861" lon="7.749523">
        <ele>608.068971</ele>
        <time>2021-11-22T11:27:19.466Z</time>
      </trkpt>
      <trkpt lat="47.377100" lon="7.749472">
        <ele>605.461413</ele>
        <time>2021-11-22T11:27:21.624Z</time>
      </trkpt>
      <trkpt lat="47.377124" lon="7.749452">
        <ele>605.163842</ele>
        <time>2021-11-22T11:27:21.849Z</time>
      </trkpt>
      <trkpt lat="47.377148" lon="7.749427">
        <ele>604.846700</ele>
        <time>2021-11-22T11:27:22.091Z</time>
      </trkpt>
      <trkpt lat="47.377472" lon="7.748880">
        <ele>599.959561</ele>
        <time>2021-11-22T11:27:26.417Z</time>
      </trkpt>
      <trkpt lat="47.377963" lon="7.748725">
        <ele>596.063931</ele>
        <time>2021-11-22T11:27:30.871Z</time>
      </trkpt>
      <trkpt lat="47.378159" lon="7.748462">
        <ele>594.009203</ele>
        <time>2021-11-22T11:27:33.160Z</time>
      </trkpt>
      <trkpt lat="47.378290" lon="7.748370">
        <ele>592.883723</ele>
        <time>2021-11-22T11:27:34.445Z</time>
      </trkpt>
      <trkpt lat="47.380210" lon="7.747910">
        <ele>580.076536</ele>
        <time>2021-11-22T11:27:52.151Z</time>
      </trkpt>
      <trkpt lat="47.380350" lon="7.747778">
        <ele>579.104309</ele>
        <time>2021-11-22T11:27:53.828Z</time>
      </trkpt>
      <trkpt lat="47.380395" lon="7.747571">
        <ele>578.242635</ele>
        <time>2021-11-22T11:27:55.372Z</time>
      </trkpt>
      <trkpt lat="47.380390" lon="7.747520">
        <ele>578.038393</ele>
        <time>2021-11-22T11:27:55.658Z</time>
      </trkpt>
      <trkpt lat="47.380381" lon="7.747474">
        <ele>577.848617</ele>
        <time>2021-11-22T11:27:55.941Z</time>
      </trkpt>
      <trkpt lat="47.380277" lon="7.747302">
        <ele>576.934673</ele>
        <time>2021-11-22T11:27:57.654Z</time>
      </trkpt>
      <trkpt lat="47.380129" lon="7.747267">
        <ele>576.025044</ele>
        <time>2021-11-22T11:27:59.117Z</time>
      </trkpt>
      <trkpt lat="47.378745" lon="7.747711">
        <ele>567.208511</ele>
        <time>2021-11-22T11:28:12.010Z</time>
      </trkpt>
      <trkpt lat="47.378579" lon="7.747764">
        <ele>566.151263</ele>
        <time>2021-11-22T11:28:13.692Z</time>
      </trkpt>
      <trkpt lat="47.378432" lon="7.747810">
        <ele>565.184483</ele>
        <time>2021-11-22T11:28:14.994Z</time>
      </trkpt>
      <trkpt lat="47.378243" lon="7.747826">
        <ele>563.764750</ele>
        <time>2021-11-22T11:28:16.742Z</time>
      </trkpt>
      <trkpt lat="47.378095" lon="7.747758">
        <ele>562.602344</ele>
        <time>2021-11-22T11:28:18.074Z</time>
      </trkpt>
      <trkpt lat="47.378047" lon="7.747688">
        <ele>562.096428</ele>
        <time>2021-11-22T11:28:18.656Z</time>
      </trkpt>
      <trkpt lat="47.378014" lon="7.747587">
        <ele>561.526930</ele>
        <time>2021-11-22T11:28:19.363Z</time>
      </trkpt>
      <trkpt lat="47.377977" lon="7.747459">
        <ele>560.820153</ele>
        <time>2021-11-22T11:28:20.239Z</time>
      </trkpt>
      <trkpt lat="47.377966" lon="7.747320">
        <ele>560.109457</ele>
        <time>2021-11-22T11:28:21.040Z</time>
      </trkpt>
      <trkpt lat="47.378022" lon="7.746968">
        <ele>558.273206</ele>
        <time>2021-11-22T11:28:23.262Z</time>
      </trkpt>
      <trkpt lat="47.378097" lon="7.746822">
        <ele>557.342564</ele>
        <time>2021-11-22T11:28:24.318Z</time>
      </trkpt>
      <trkpt lat="47.378182" lon="7.746723">
        <ele>556.530705</ele>
        <time>2021-11-22T11:28:25.660Z</time>
      </trkpt>
      <trkpt lat="47.378447" lon="7.746546">
        <ele>554.349516</ele>
        <time>2021-11-22T11:28:29.328Z</time>
      </trkpt>
      <trkpt lat="47.378807" lon="7.746334">
        <ele>551.726341</ele>
        <time>2021-11-22T11:28:34.242Z</time>
      </trkpt>
      <trkpt lat="47.378965" lon="7.746248">
        <ele>551.282071</ele>
        <time>2021-11-22T11:28:36.473Z</time>
      </trkpt>
      <trkpt lat="47.379208" lon="7.746134">
        <ele>550.609382</ele>
        <time>2021-11-22T11:28:39.843Z</time>
      </trkpt>
      <trkpt lat="47.379458" lon="7.746042">
        <ele>549.929628</ele>
        <time>2021-11-22T11:28:43.755Z</time>
      </trkpt>
      <trkpt lat="47.379874" lon="7.746053">
        <ele>548.831903</ele>
        <time>2021-11-22T11:28:50.789Z</time>
      </trkpt>
      <trkpt lat="47.379998" lon="7.746071">
        <ele>548.503172</ele>
        <time>2021-11-22T11:28:52.825Z</time>
      </trkpt>
      <trkpt lat="47.380116" lon="7.746085">
        <ele>548.190845</ele>
        <time>2021-11-22T11:28:54.709Z</time>
      </trkpt>
      <trkpt lat="47.380341" lon="7.746169">
        <ele>547.578544</ele>
        <time>2021-11-22T11:28:57.494Z</time>
      </trkpt>
      <trkpt lat="47.380455" lon="7.746245">
        <ele>547.248548</ele>
        <time>2021-11-22T11:28:59.942Z</time>
      </trkpt>
      <trkpt lat="47.380602" lon="7.746339">
        <ele>547.130213</ele>
        <time>2021-11-22T11:29:02.174Z</time>
      </trkpt>
      <trkpt lat="47.380930" lon="7.746559">
        <ele>547.116355</ele>
        <time>2021-11-22T11:29:07.957Z</time>
      </trkpt>
      <trkpt lat="47.381241" lon="7.746772">
        <ele>547.103168</ele>
        <time>2021-11-22T11:29:14.331Z</time>
      </trkpt>
      <trkpt lat="47.381267" lon="7.746790">
        <ele>547.102063</ele>
        <time>2021-11-22T11:29:14.894Z</time>
      </trkpt>
      <trkpt lat="47.381381" lon="7.746868">
        <ele>547.097230</ele>
        <time>2021-11-22T11:29:18.113Z</time>
      </trkpt>
      <trkpt lat="47.381527" lon="7.746969">
        <ele>547.091028</ele>
        <time>2021-11-22T11:29:21.743Z</time>
      </trkpt>
      <trkpt lat="47.381676" lon="7.747081">
        <ele>547.084596</ele>
        <time>2021-11-22T11:29:25.067Z</time>
      </trkpt>
      <trkpt lat="47.381814" lon="7.747196">
        <ele>547.078501</ele>
        <time>2021-11-22T11:29:27.636Z</time>
      </trkpt>
      <trkpt lat="47.382043" lon="7.747403">
        <ele>547.068173</ele>
        <time>2021-11-22T11:29:31.045Z</time>
      </trkpt>
      <trkpt lat="47.382062" lon="7.747423">
        <ele>547.067275</ele>
        <time>2021-11-22T11:29:31.281Z</time>
      </trkpt>
      <trkpt lat="47.382239" lon="7.747642">
        <ele>546.371052</ele>
        <time>2021-11-22T11:29:33.357Z</time>
      </trkpt>
      <trkpt lat="47.382312" lon="7.747733">
        <ele>546.013233</ele>
        <time>2021-11-22T11:29:36.003Z</time>
      </trkpt>
      <trkpt lat="47.382449" lon="7.747914">
        <ele>545.324709</ele>
        <time>2021-11-22T11:29:37.886Z</time>
      </trkpt>
      <trkpt lat="47.382597" lon="7.748100">
        <ele>544.596799</ele>
        <time>2021-11-22T11:29:39.724Z</time>
      </trkpt>
      <trkpt lat="47.382685" lon="7.748193">
        <ele>544.191480</ele>
        <time>2021-11-22T11:29:40.918Z</time>
      </trkpt>
      <trkpt lat="47.382743" lon="7.748269">
        <ele>543.901047</ele>
        <time>2021-11-22T11:29:41.672Z</time>
      </trkpt>
      <trkpt lat="47.382803" lon="7.748331">
        <ele>543.626758</ele>
        <time>2021-11-22T11:29:42.287Z</time>
      </trkpt>
      <trkpt lat="47.382849" lon="7.748375">
        <ele>543.421475</ele>
        <time>2021-11-22T11:29:43.707Z</time>
      </trkpt>
      <trkpt lat="47.383061" lon="7.748496">
        <ele>542.570153</ele>
        <time>2021-11-22T11:29:46.286Z</time>
      </trkpt>
      <trkpt lat="47.383151" lon="7.748589">
        <ele>542.158719</ele>
        <time>2021-11-22T11:29:47.259Z</time>
      </trkpt>
      <trkpt lat="47.383199" lon="7.748630">
        <ele>541.951022</ele>
        <time>2021-11-22T11:29:48.324Z</time>
      </trkpt>
      <trkpt lat="47.383374" lon="7.748782">
        <ele>541.190571</ele>
        <time>2021-11-22T11:29:50.446Z</time>
      </trkpt>
      <trkpt lat="47.383404" lon="7.748808">
        <ele>541.060281</ele>
        <time>2021-11-22T11:29:50.752Z</time>
      </trkpt>
      <trkpt lat="47.383423" lon="7.748826">
        <ele>540.975730</ele>
        <time>2021-11-22T11:29:53.186Z</time>
      </trkpt>
      <trkpt lat="47.383567" lon="7.748952">
        <ele>540.348795</ele>
        <time>2021-11-22T11:29:55.972Z</time>
      </trkpt>
      <trkpt lat="47.383709" lon="7.749053">
        <ele>539.328222</ele>
        <time>2021-11-22T11:29:57.297Z</time>
      </trkpt>
      <trkpt lat="47.383842" lon="7.749130">
        <ele>538.389210</ele>
        <time>2021-11-22T11:29:59.547Z</time>
      </trkpt>
      <trkpt lat="47.383995" lon="7.749183">
        <ele>537.356210</ele>
        <time>2021-11-22T11:30:01.041Z</time>
      </trkpt>
      <trkpt lat="47.384156" lon="7.749222">
        <ele>536.283777</ele>
        <time>2021-11-22T11:30:02.403Z</time>
      </trkpt>
      <trkpt lat="47.384325" lon="7.749225">
        <ele>535.172817</ele>
        <time>2021-11-22T11:30:03.973Z</time>
      </trkpt>
      <trkpt lat="47.384579" lon="7.749203">
        <ele>533.500342</ele>
        <time>2021-11-22T11:30:06.113Z</time>
      </trkpt>
      <trkpt lat="47.384926" lon="7.749167">
        <ele>531.213803</ele>
        <time>2021-11-22T11:30:09.219Z</time>
      </trkpt>
      <trkpt lat="47.385161" lon="7.749138">
        <ele>529.663706</ele>
        <time>2021-11-22T11:30:11.608Z</time>
      </trkpt>
      <trkpt lat="47.385398" lon="7.749124">
        <ele>528.337591</ele>
        <time>2021-11-22T11:30:13.968Z</time>
      </trkpt>
      <trkpt lat="47.385514" lon="7.749117">
        <ele>528.018061</ele>
        <time>2021-11-22T11:30:15.113Z</time>
      </trkpt>
      <trkpt lat="47.385536" lon="7.749116">
        <ele>527.957482</ele>
        <time>2021-11-22T11:30:15.346Z</time>
      </trkpt>
      <trkpt lat="47.385581" lon="7.749115">
        <ele>527.833616</ele>
        <time>2021-11-22T11:30:15.720Z</time>
      </trkpt>
      <trkpt lat="47.385668" lon="7.749119">
        <ele>527.594052</ele>
        <time>2021-11-22T11:30:17.671Z</time>
      </trkpt>
      <trkpt lat="47.386064" lon="7.749150">
        <ele>526.502622</ele>
        <time>2021-11-22T11:30:21.586Z</time>
      </trkpt>
      <trkpt lat="47.386338" lon="7.749170">
        <ele>525.747579</ele>
        <time>2021-11-22T11:30:24.229Z</time>
      </trkpt>
      <trkpt lat="47.386374" lon="7.749172">
        <ele>525.648427</ele>
        <time>2021-11-22T11:30:25.957Z</time>
      </trkpt>
      <trkpt lat="47.386511" lon="7.749180">
        <ele>525.271071</ele>
        <time>2021-11-22T11:30:27.400Z</time>
      </trkpt>
      <trkpt lat="47.386821" lon="7.749197">
        <ele>524.417278</ele>
        <time>2021-11-22T11:30:30.787Z</time>
      </trkpt>
      <trkpt lat="47.386903" lon="7.749201">
        <ele>524.191469</ele>
        <time>2021-11-22T11:30:31.795Z</time>
      </trkpt>
      <trkpt lat="47.387396" lon="7.749237">
        <ele>522.956210</ele>
        <time>2021-11-22T11:30:37.355Z</time>
      </trkpt>
      <trkpt lat="47.387895" lon="7.749294">
        <ele>521.813867</ele>
        <time>2021-11-22T11:30:47.104Z</time>
      </trkpt>
      <trkpt lat="47.388136" lon="7.749319">
        <ele>521.262442</ele>
        <time>2021-11-22T11:30:49.747Z</time>
      </trkpt>
      <trkpt lat="47.388375" lon="7.749336">
        <ele>520.716305</ele>
        <time>2021-11-22T11:30:52.276Z</time>
      </trkpt>
      <trkpt lat="47.388452" lon="7.749336">
        <ele>520.540557</ele>
        <time>2021-11-22T11:30:52.962Z</time>
      </trkpt>
      <trkpt lat="47.388877" lon="7.749281">
        <ele>519.566800</ele>
        <time>2021-11-22T11:30:57.142Z</time>
      </trkpt>
      <trkpt lat="47.389085" lon="7.749218">
        <ele>518.518943</ele>
        <time>2021-11-22T11:30:59.163Z</time>
      </trkpt>
      <trkpt lat="47.389752" lon="7.748905">
        <ele>514.473944</ele>
        <time>2021-11-22T11:31:05.602Z</time>
      </trkpt>
      <trkpt lat="47.389856" lon="7.748856">
        <ele>513.843007</ele>
        <time>2021-11-22T11:31:06.533Z</time>
      </trkpt>
      <trkpt lat="47.390095" lon="7.748771">
        <ele>512.422160</ele>
        <time>2021-11-22T11:31:08.860Z</time>
      </trkpt>
      <trkpt lat="47.390406" lon="7.748760">
        <ele>510.624129</ele>
        <time>2021-11-22T11:31:11.719Z</time>
      </trkpt>
      <trkpt lat="47.390493" lon="7.748774">
        <ele>510.118312</ele>
        <time>2021-11-22T11:31:12.488Z</time>
      </trkpt>
      <trkpt lat="47.390565" lon="7.748791">
        <ele>509.696884</ele>
        <time>2021-11-22T11:31:13.123Z</time>
      </trkpt>
      <trkpt lat="47.390808" lon="7.748872">
        <ele>508.451352</ele>
        <time>2021-11-22T11:31:15.553Z</time>
      </trkpt>
      <trkpt lat="47.391080" lon="7.748952">
        <ele>507.239178</ele>
        <time>2021-11-22T11:31:18.130Z</time>
      </trkpt>
      <trkpt lat="47.391160" lon="7.748974">
        <ele>506.883513</ele>
        <time>2021-11-22T11:31:18.887Z</time>
      </trkpt>
      <trkpt lat="47.391228" lon="7.748985">
        <ele>506.584527</ele>
        <time>2021-11-22T11:31:19.484Z</time>
      </trkpt>
      <trkpt lat="47.391299" lon="7.748990">
        <ele>506.273853</ele>
        <time>2021-11-22T11:31:20.125Z</time>
      </trkpt>
      <trkpt lat="47.391408" lon="7.748990">
        <ele>505.797445</ele>
        <time>2021-11-22T11:31:21.268Z</time>
      </trkpt>
      <trkpt lat="47.391488" lon="7.748988">
        <ele>505.447737</ele>
        <time>2021-11-22T11:31:22.054Z</time>
      </trkpt>
      <trkpt lat="47.391698" lon="7.748986">
        <ele>504.529867</ele>
        <time>2021-11-22T11:31:24.048Z</time>
      </trkpt>
      <trkpt lat="47.392027" lon="7.748980">
        <ele>503.091791</ele>
        <time>2021-11-22T11:31:27.246Z</time>
      </trkpt>
      <trkpt lat="47.392247" lon="7.748975">
        <ele>502.130118</ele>
        <time>2021-11-22T11:31:29.564Z</time>
      </trkpt>
      <trkpt lat="47.392337" lon="7.748974">
        <ele>501.736743</ele>
        <time>2021-11-22T11:31:30.482Z</time>
      </trkpt>
      <trkpt lat="47.392456" lon="7.748972">
        <ele>501.216593</ele>
        <time>2021-11-22T11:31:31.742Z</time>
      </trkpt>
      <trkpt lat="47.392574" lon="7.748979">
        <ele>500.914271</ele>
        <time>2021-11-22T11:31:32.968Z</time>
      </trkpt>
      <trkpt lat="47.392688" lon="7.748995">
        <ele>500.631227</ele>
        <time>2021-11-22T11:31:34.142Z</time>
      </trkpt>
      <trkpt lat="47.392847" lon="7.749023">
        <ele>500.235442</ele>
        <time>2021-11-22T11:31:35.886Z</time>
      </trkpt>
      <trkpt lat="47.393071" lon="7.749070">
        <ele>499.676222</ele>
        <time>2021-11-22T11:31:38.271Z</time>
      </trkpt>
      <trkpt lat="47.393250" lon="7.749113">
        <ele>499.227974</ele>
        <time>2021-11-22T11:31:40.238Z</time>
      </trkpt>
      <trkpt lat="47.393591" lon="7.749263">
        <ele>498.348545</ele>
        <time>2021-11-22T11:31:44.016Z</time>
      </trkpt>
      <trkpt lat="47.393673" lon="7.749292">
        <ele>498.140137</ele>
        <time>2021-11-22T11:31:44.878Z</time>
      </trkpt>
      <trkpt lat="47.393784" lon="7.749301">
        <ele>497.865364</ele>
        <time>2021-11-22T11:31:46.041Z</time>
      </trkpt>
      <trkpt lat="47.393977" lon="7.749297">
        <ele>497.388277</ele>
        <time>2021-11-22T11:31:48.141Z</time>
      </trkpt>
      <trkpt lat="47.394104" lon="7.749291">
        <ele>497.074210</ele>
        <time>2021-11-22T11:31:49.457Z</time>
      </trkpt>
      <trkpt lat="47.394194" lon="7.749289">
        <ele>496.851730</ele>
        <time>2021-11-22T11:31:50.456Z</time>
      </trkpt>
      <trkpt lat="47.394291" lon="7.749282">
        <ele>496.635701</ele>
        <time>2021-11-22T11:31:51.513Z</time>
      </trkpt>
      <trkpt lat="47.394439" lon="7.749248">
        <ele>496.331250</ele>
        <time>2021-11-22T11:31:53.147Z</time>
      </trkpt>
      <trkpt lat="47.394509" lon="7.749215">
        <ele>496.181894</ele>
        <time>2021-11-22T11:31:53.958Z</time>
      </trkpt>
      <trkpt lat="47.394651" lon="7.749144">
        <ele>495.877169</ele>
        <time>2021-11-22T11:31:55.612Z</time>
      </trkpt>
      <trkpt lat="47.394768" lon="7.749104">
        <ele>495.633061</ele>
        <time>2021-11-22T11:31:56.951Z</time>
      </trkpt>
      <trkpt lat="47.395125" lon="7.749053">
        <ele>494.904013</ele>
        <time>2021-11-22T11:32:00.908Z</time>
      </trkpt>
      <trkpt lat="47.395380" lon="7.749021">
        <ele>494.383816</ele>
        <time>2021-11-22T11:32:03.720Z</time>
      </trkpt>
      <trkpt lat="47.395507" lon="7.749005">
        <ele>494.124730</ele>
        <time>2021-11-22T11:32:05.120Z</time>
      </trkpt>
      <trkpt lat="47.395539" lon="7.749002">
        <ele>494.059554</ele>
        <time>2021-11-22T11:32:05.481Z</time>
      </trkpt>
      <trkpt lat="47.395586" lon="7.748999">
        <ele>493.963929</ele>
        <time>2021-11-22T11:32:06.005Z</time>
      </trkpt>
      <trkpt lat="47.395694" lon="7.749002">
        <ele>493.744362</ele>
        <time>2021-11-22T11:32:07.164Z</time>
      </trkpt>
      <trkpt lat="47.396397" lon="7.749134">
        <ele>492.360686</ele>
        <time>2021-11-22T11:32:14.939Z</time>
      </trkpt>
      <trkpt lat="47.396567" lon="7.749140">
        <ele>492.039977</ele>
        <time>2021-11-22T11:32:16.815Z</time>
      </trkpt>
      <trkpt lat="47.396663" lon="7.749150">
        <ele>491.858473</ele>
        <time>2021-11-22T11:32:17.892Z</time>
      </trkpt>
      <trkpt lat="47.396748" lon="7.749161">
        <ele>491.697550</ele>
        <time>2021-11-22T11:32:18.807Z</time>
      </trkpt>
      <trkpt lat="47.397032" lon="7.749214">
        <ele>491.157673</ele>
        <time>2021-11-22T11:32:21.966Z</time>
      </trkpt>
      <trkpt lat="47.397558" lon="7.749325">
        <ele>490.155574</ele>
        <time>2021-11-22T11:32:27.883Z</time>
      </trkpt>
      <trkpt lat="47.398284" lon="7.749495">
        <ele>488.970667</ele>
        <time>2021-11-22T11:32:36.090Z</time>
      </trkpt>
      <trkpt lat="47.399500" lon="7.749781">
        <ele>487.151706</ele>
        <time>2021-11-22T11:32:50.406Z</time>
      </trkpt>
      <trkpt lat="47.399567" lon="7.749788">
        <ele>487.052482</ele>
        <time>2021-11-22T11:32:51.182Z</time>
      </trkpt>
      <trkpt lat="47.399717" lon="7.749806">
        <ele>486.897194</ele>
        <time>2021-11-22T11:32:53.052Z</time>
      </trkpt>
      <trkpt lat="47.400091" lon="7.749776">
        <ele>486.519329</ele>
        <time>2021-11-22T11:32:57.712Z</time>
      </trkpt>
      <trkpt lat="47.400244" lon="7.749736">
        <ele>486.362576</ele>
        <time>2021-11-22T11:32:59.633Z</time>
      </trkpt>
      <trkpt lat="47.400432" lon="7.749686">
        <ele>486.169864</ele>
        <time>2021-11-22T11:33:02.051Z</time>
      </trkpt>
      <trkpt lat="47.400598" lon="7.749617">
        <ele>485.995893</ele>
        <time>2021-11-22T11:33:04.210Z</time>
      </trkpt>
      <trkpt lat="47.400800" lon="7.749492">
        <ele>485.774951</ele>
        <time>2021-11-22T11:33:07.029Z</time>
      </trkpt>
      <trkpt lat="47.401019" lon="7.749360">
        <ele>485.536333</ele>
        <time>2021-11-22T11:33:10.016Z</time>
      </trkpt>
      <trkpt lat="47.401293" lon="7.749291">
        <ele>485.255922</ele>
        <time>2021-11-22T11:33:13.369Z</time>
      </trkpt>
      <trkpt lat="47.401590" lon="7.749360">
        <ele>484.645632</ele>
        <time>2021-11-22T11:33:16.917Z</time>
      </trkpt>
      <trkpt lat="47.402330" lon="7.749957">
        <ele>482.843409</ele>
        <time>2021-11-22T11:33:26.361Z</time>
      </trkpt>
      <trkpt lat="47.402454" lon="7.750070">
        <ele>482.531992</ele>
        <time>2021-11-22T11:33:27.889Z</time>
      </trkpt>
      <trkpt lat="47.403097" lon="7.750650">
        <ele>480.609609</ele>
        <time>2021-11-22T11:33:35.631Z</time>
      </trkpt>
      <trkpt lat="47.403730" lon="7.751223">
        <ele>477.948002</ele>
        <time>2021-11-22T11:33:42.910Z</time>
      </trkpt>
      <trkpt lat="47.404048" lon="7.751509">
        <ele>476.613245</ele>
        <time>2021-11-22T11:33:46.532Z</time>
      </trkpt>
      <trkpt lat="47.404214" lon="7.751646">
        <ele>475.931523</ele>
        <time>2021-11-22T11:33:48.415Z</time>
      </trkpt>
      <trkpt lat="47.404311" lon="7.751716">
        <ele>475.544479</ele>
        <time>2021-11-22T11:33:49.491Z</time>
      </trkpt>
      <trkpt lat="47.404398" lon="7.751774">
        <ele>475.202272</ele>
        <time>2021-11-22T11:33:50.426Z</time>
      </trkpt>
      <trkpt lat="47.404757" lon="7.751955">
        <ele>474.191065</ele>
        <time>2021-11-22T11:33:54.265Z</time>
      </trkpt>
      <trkpt lat="47.404962" lon="7.752020">
        <ele>473.679593</ele>
        <time>2021-11-22T11:33:56.416Z</time>
      </trkpt>
      <trkpt lat="47.405135" lon="7.752076">
        <ele>473.247559</ele>
        <time>2021-11-22T11:33:58.245Z</time>
      </trkpt>
      <trkpt lat="47.405318" lon="7.752130">
        <ele>472.792325</ele>
        <time>2021-11-22T11:34:00.188Z</time>
      </trkpt>
      <trkpt lat="47.405500" lon="7.752177">
        <ele>472.341615</ele>
        <time>2021-11-22T11:34:02.138Z</time>
      </trkpt>
      <trkpt lat="47.406028" lon="7.752259">
        <ele>471.046491</ele>
        <time>2021-11-22T11:34:07.935Z</time>
      </trkpt>
      <trkpt lat="47.406458" lon="7.752320">
        <ele>470.720017</ele>
        <time>2021-11-22T11:34:13.027Z</time>
      </trkpt>
      <trkpt lat="47.406667" lon="7.752359">
        <ele>470.881729</ele>
        <time>2021-11-22T11:34:15.734Z</time>
      </trkpt>
      <trkpt lat="47.406774" lon="7.752394">
        <ele>470.965855</ele>
        <time>2021-11-22T11:34:17.068Z</time>
      </trkpt>
      <trkpt lat="47.406921" lon="7.752457">
        <ele>471.083349</ele>
        <time>2021-11-22T11:34:19.367Z</time>
      </trkpt>
      <trkpt lat="47.407064" lon="7.752527">
        <ele>471.198989</ele>
        <time>2021-11-22T11:34:22.533Z</time>
      </trkpt>
      <trkpt lat="47.407314" lon="7.752624">
        <ele>471.397405</ele>
        <time>2021-11-22T11:34:27.270Z</time>
      </trkpt>
      <trkpt lat="47.407314" lon="7.752624">
        <ele>471.397405</ele>
        <time>2021-11-22T11:34:27.270Z</time>
      </trkpt>
      <trkpt lat="47.407673" lon="7.752793">
        <ele>471.686637</ele>
        <time>2021-11-22T11:34:35.532Z</time>
      </trkpt>
      <trkpt lat="47.408184" lon="7.753119">
        <ele>472.228674</ele>
        <time>2021-11-22T11:34:49.673Z</time>
      </trkpt>
      <trkpt lat="47.408293" lon="7.753211">
        <ele>472.384095</ele>
        <time>2021-11-22T11:34:54.102Z</time>
      </trkpt>
      <trkpt lat="47.408436" lon="7.753348">
        <ele>472.595107</ele>
        <time>2021-11-22T11:34:59.444Z</time>
      </trkpt>
      <trkpt lat="47.409359" lon="7.754282">
        <ele>473.980193</ele>
        <time>2021-11-22T11:35:21.219Z</time>
      </trkpt>
      <trkpt lat="47.409489" lon="7.754401">
        <ele>474.103663</ele>
        <time>2021-11-22T11:35:22.988Z</time>
      </trkpt>
      <trkpt lat="47.409608" lon="7.754510">
        <ele>473.560579</ele>
        <time>2021-11-22T11:35:25.484Z</time>
      </trkpt>
      <trkpt lat="47.409760" lon="7.754676">
        <ele>472.827426</ele>
        <time>2021-11-22T11:35:27.344Z</time>
      </trkpt>
      <trkpt lat="47.410249" lon="7.755193">
        <ele>470.495109</ele>
        <time>2021-11-22T11:35:33.221Z</time>
      </trkpt>
      <trkpt lat="47.410819" lon="7.755776">
        <ele>467.806137</ele>
        <time>2021-11-22T11:35:39.731Z</time>
      </trkpt>
      <trkpt lat="47.411231" lon="7.756194">
        <ele>465.869191</ele>
        <time>2021-11-22T11:35:44.273Z</time>
      </trkpt>
      <trkpt lat="47.411318" lon="7.756282">
        <ele>465.460734</ele>
        <time>2021-11-22T11:35:45.257Z</time>
      </trkpt>
      <trkpt lat="47.412140" lon="7.757109">
        <ele>461.608106</ele>
        <time>2021-11-22T11:35:55.052Z</time>
      </trkpt>
      <trkpt lat="47.412976" lon="7.757506">
        <ele>459.151418</ele>
        <time>2021-11-22T11:36:04.871Z</time>
      </trkpt>
      <trkpt lat="47.413130" lon="7.757630">
        <ele>458.792729</ele>
        <time>2021-11-22T11:36:06.908Z</time>
      </trkpt>
      <trkpt lat="47.413354" lon="7.757794">
        <ele>458.281448</ele>
        <time>2021-11-22T11:36:09.704Z</time>
      </trkpt>
      <trkpt lat="47.414242" lon="7.758407">
        <ele>456.198665</ele>
        <time>2021-11-22T11:36:20.402Z</time>
      </trkpt>
      <trkpt lat="47.415402" lon="7.758996">
        <ele>452.914271</ele>
        <time>2021-11-22T11:36:33.195Z</time>
      </trkpt>
      <trkpt lat="47.415747" lon="7.759291">
        <ele>451.846961</ele>
        <time>2021-11-22T11:36:37.290Z</time>
      </trkpt>
      <trkpt lat="47.416052" lon="7.759740">
        <ele>450.661147</ele>
        <time>2021-11-22T11:36:41.690Z</time>
      </trkpt>
      <trkpt lat="47.416792" lon="7.761347">
        <ele>447.024953</ele>
        <time>2021-11-22T11:36:55.324Z</time>
      </trkpt>
      <trkpt lat="47.417126" lon="7.761784">
        <ele>446.033473</ele>
        <time>2021-11-22T11:37:00.105Z</time>
      </trkpt>
      <trkpt lat="47.417666" lon="7.762248">
        <ele>444.746314</ele>
        <time>2021-11-22T11:37:06.887Z</time>
      </trkpt>
      <trkpt lat="47.417792" lon="7.762365">
        <ele>444.439676</ele>
        <time>2021-11-22T11:37:08.542Z</time>
      </trkpt>
      <trkpt lat="47.418108" lon="7.762666">
        <ele>443.664980</ele>
        <time>2021-11-22T11:37:12.779Z</time>
      </trkpt>
      <trkpt lat="47.418350" lon="7.762893">
        <ele>443.074340</ele>
        <time>2021-11-22T11:37:16.032Z</time>
      </trkpt>
      <trkpt lat="47.418427" lon="7.762968">
        <ele>442.900838</ele>
        <time>2021-11-22T11:37:17.028Z</time>
      </trkpt>
      <trkpt lat="47.419279" lon="7.763797">
        <ele>441.029681</ele>
        <time>2021-11-22T11:37:28.411Z</time>
      </trkpt>
      <trkpt lat="47.419772" lon="7.764298">
        <ele>439.932196</ele>
        <time>2021-11-22T11:37:35.034Z</time>
      </trkpt>
      <trkpt lat="47.420157" lon="7.764659">
        <ele>439.072238</ele>
        <time>2021-11-22T11:37:40.087Z</time>
      </trkpt>
      <trkpt lat="47.421282" lon="7.765827">
        <ele>436.457293</ele>
        <time>2021-11-22T11:37:55.244Z</time>
      </trkpt>
      <trkpt lat="47.421552" lon="7.766115">
        <ele>435.815421</ele>
        <time>2021-11-22T11:37:59.031Z</time>
      </trkpt>
      <trkpt lat="47.422000" lon="7.766596">
        <ele>434.743852</ele>
        <time>2021-11-22T11:38:05.249Z</time>
      </trkpt>
      <trkpt lat="47.422420" lon="7.767061">
        <ele>433.728329</ele>
        <time>2021-11-22T11:38:11.005Z</time>
      </trkpt>
      <trkpt lat="47.422830" lon="7.767512">
        <ele>432.720417</ele>
        <time>2021-11-22T11:38:16.582Z</time>
      </trkpt>
      <trkpt lat="47.423119" lon="7.767830">
        <ele>431.883959</ele>
        <time>2021-11-22T11:38:20.499Z</time>
      </trkpt>
      <trkpt lat="47.423232" lon="7.767959">
        <ele>431.552478</ele>
        <time>2021-11-22T11:38:22.005Z</time>
      </trkpt>
      <trkpt lat="47.423761" lon="7.768539">
        <ele>430.023340</ele>
        <time>2021-11-22T11:38:29.105Z</time>
      </trkpt>
      <trkpt lat="47.423979" lon="7.768752">
        <ele>429.416645</ele>
        <time>2021-11-22T11:38:31.858Z</time>
      </trkpt>
      <trkpt lat="47.424097" lon="7.768835">
        <ele>429.113258</ele>
        <time>2021-11-22T11:38:33.180Z</time>
      </trkpt>
      <trkpt lat="47.424202" lon="7.768896">
        <ele>428.851336</ele>
        <time>2021-11-22T11:38:34.418Z</time>
      </trkpt>
      <trkpt lat="47.424384" lon="7.769015">
        <ele>428.415097</ele>
        <time>2021-11-22T11:38:36.484Z</time>
      </trkpt>
      <trkpt lat="47.424448" lon="7.769050">
        <ele>428.271874</ele>
        <time>2021-11-22T11:38:37.209Z</time>
      </trkpt>
      <trkpt lat="47.424599" lon="7.769145">
        <ele>427.927440</ele>
        <time>2021-11-22T11:38:38.978Z</time>
      </trkpt>
      <trkpt lat="47.424704" lon="7.769209">
        <ele>427.689063</ele>
        <time>2021-11-22T11:38:40.172Z</time>
      </trkpt>
      <trkpt lat="47.424861" lon="7.769306">
        <ele>427.331923</ele>
        <time>2021-11-22T11:38:42.058Z</time>
      </trkpt>
      <trkpt lat="47.424876" lon="7.769315">
        <ele>427.297946</ele>
        <time>2021-11-22T11:38:42.213Z</time>
      </trkpt>
      <trkpt lat="47.425140" lon="7.769501">
        <ele>426.684136</ele>
        <time>2021-11-22T11:38:45.413Z</time>
      </trkpt>
      <trkpt lat="47.425372" lon="7.769666">
        <ele>426.143779</ele>
        <time>2021-11-22T11:38:48.206Z</time>
      </trkpt>
      <trkpt lat="47.425665" lon="7.769858">
        <ele>425.471107</ele>
        <time>2021-11-22T11:38:51.840Z</time>
      </trkpt>
      <trkpt lat="47.425937" lon="7.770017">
        <ele>424.864247</ele>
        <time>2021-11-22T11:38:55.149Z</time>
      </trkpt>
      <trkpt lat="47.426137" lon="7.770135">
        <ele>424.535438</ele>
        <time>2021-11-22T11:38:57.565Z</time>
      </trkpt>
      <trkpt lat="47.426442" lon="7.770325">
        <ele>424.030063</ele>
        <time>2021-11-22T11:39:01.195Z</time>
      </trkpt>
      <trkpt lat="47.426561" lon="7.770421">
        <ele>423.823061</ele>
        <time>2021-11-22T11:39:02.724Z</time>
      </trkpt>
      <trkpt lat="47.426586" lon="7.770441">
        <ele>423.779656</ele>
        <time>2021-11-22T11:39:03.063Z</time>
      </trkpt>
      <trkpt lat="47.426821" lon="7.770734">
        <ele>423.310229</ele>
        <time>2021-11-22T11:39:06.583Z</time>
      </trkpt>
      <trkpt lat="47.426977" lon="7.770973">
        <ele>422.967169</ele>
        <time>2021-11-22T11:39:09.267Z</time>
      </trkpt>
      <trkpt lat="47.426997" lon="7.771000">
        <ele>422.925811</ele>
        <time>2021-11-22T11:39:09.557Z</time>
      </trkpt>
      <trkpt lat="47.427112" lon="7.771125">
        <ele>422.707852</ele>
        <time>2021-11-22T11:39:11.304Z</time>
      </trkpt>
      <trkpt lat="47.427175" lon="7.771179">
        <ele>422.596654</ele>
        <time>2021-11-22T11:39:12.208Z</time>
      </trkpt>
      <trkpt lat="47.427296" lon="7.771252">
        <ele>422.397102</ele>
        <time>2021-11-22T11:39:13.722Z</time>
      </trkpt>
      <trkpt lat="47.427593" lon="7.771328">
        <ele>421.877839</ele>
        <time>2021-11-22T11:39:17.398Z</time>
      </trkpt>
      <trkpt lat="47.427702" lon="7.771335">
        <ele>421.662037</ele>
        <time>2021-11-22T11:39:18.618Z</time>
      </trkpt>
      <trkpt lat="47.427740" lon="7.771340">
        <ele>421.586577</ele>
        <time>2021-11-22T11:39:19.064Z</time>
      </trkpt>
      <trkpt lat="47.427870" lon="7.771359">
        <ele>421.328187</ele>
        <time>2021-11-22T11:39:20.625Z</time>
      </trkpt>
      <trkpt lat="47.428770" lon="7.771707">
        <ele>419.488115</ele>
        <time>2021-11-22T11:39:30.799Z</time>
      </trkpt>
      <trkpt lat="47.429020" lon="7.771862">
        <ele>418.951887</ele>
        <time>2021-11-22T11:39:33.703Z</time>
      </trkpt>
      <trkpt lat="47.430283" lon="7.772555">
        <ele>416.234442</ele>
        <time>2021-11-22T11:39:47.859Z</time>
      </trkpt>
      <trkpt lat="47.431011" lon="7.772908">
        <ele>415.058861</ele>
        <time>2021-11-22T11:39:56.678Z</time>
      </trkpt>
      <trkpt lat="47.431423" lon="7.773118">
        <ele>415.470947</ele>
        <time>2021-11-22T11:40:02.823Z</time>
      </trkpt>
      <trkpt lat="47.432060" lon="7.773355">
        <ele>416.092065</ele>
        <time>2021-11-22T11:40:14.841Z</time>
      </trkpt>
      <trkpt lat="47.432741" lon="7.773429">
        <ele>416.964839</ele>
        <time>2021-11-22T11:40:31.549Z</time>
      </trkpt>
      <trkpt lat="47.433246" lon="7.773363">
        <ele>418.561187</ele>
        <time>2021-11-22T11:40:46.530Z</time>
      </trkpt>
      <trkpt lat="47.433941" lon="7.773088">
        <ele>420.826639</ele>
        <time>2021-11-22T11:41:07.469Z</time>
      </trkpt>
      <trkpt lat="47.434119" lon="7.772984">
        <ele>421.429312</ele>
        <time>2021-11-22T11:41:12.279Z</time>
      </trkpt>
      <trkpt lat="47.434141" lon="7.773072">
        <ele>421.629141</ele>
        <time>2021-11-22T11:41:15.110Z</time>
      </trkpt>
      <trkpt lat="47.434841" lon="7.772600">
        <ele>422.881076</ele>
        <time>2021-11-22T11:41:34.544Z</time>
      </trkpt>
      <trkpt lat="47.435116" lon="7.772391">
        <ele>423.202614</ele>
        <time>2021-11-22T11:41:41.528Z</time>
      </trkpt>
      <trkpt lat="47.435305" lon="7.772248">
        <ele>423.423392</ele>
        <time>2021-11-22T11:41:45.339Z</time>
      </trkpt>
      <trkpt lat="47.435758" lon="7.771905">
        <ele>423.952640</ele>
        <time>2021-11-22T11:41:54.461Z</time>
      </trkpt>
      <trkpt lat="47.437200" lon="7.770210">
        <ele>420.274417</ele>
        <time>2021-11-22T11:42:14.068Z</time>
      </trkpt>
      <trkpt lat="47.437408" lon="7.770018">
        <ele>419.621301</ele>
        <time>2021-11-22T11:42:16.489Z</time>
      </trkpt>
      <trkpt lat="47.437853" lon="7.769608">
        <ele>417.908334</ele>
        <time>2021-11-22T11:42:21.681Z</time>
      </trkpt>
      <trkpt lat="47.438768" lon="7.768399">
        <ele>413.945881</ele>
        <time>2021-11-22T11:42:33.903Z</time>
      </trkpt>
      <trkpt lat="47.439506" lon="7.767200">
        <ele>412.148767</ele>
        <time>2021-11-22T11:42:46.346Z</time>
      </trkpt>
      <trkpt lat="47.439603" lon="7.767042">
        <ele>411.912228</ele>
        <time>2021-11-22T11:42:47.958Z</time>
      </trkpt>
      <trkpt lat="47.440245" lon="7.765985">
        <ele>410.600914</ele>
        <time>2021-11-22T11:43:00.239Z</time>
      </trkpt>
      <trkpt lat="47.440724" lon="7.765190">
        <ele>409.860262</ele>
        <time>2021-11-22T11:43:09.094Z</time>
      </trkpt>
      <trkpt lat="47.441114" lon="7.764541">
        <ele>409.256338</ele>
        <time>2021-11-22T11:43:16.438Z</time>
      </trkpt>
      <trkpt lat="47.441500" lon="7.763896">
        <ele>407.729119</ele>
        <time>2021-11-22T11:43:23.114Z</time>
      </trkpt>
      <trkpt lat="47.442382" lon="7.762437">
        <ele>403.965494</ele>
        <time>2021-11-22T11:43:36.294Z</time>
      </trkpt>
      <trkpt lat="47.442389" lon="7.762334">
        <ele>403.691529</ele>
        <time>2021-11-22T11:43:37.032Z</time>
      </trkpt>
      <trkpt lat="47.442562" lon="7.762024">
        <ele>402.627871</ele>
        <time>2021-11-22T11:43:39.685Z</time>
      </trkpt>
      <trkpt lat="47.442837" lon="7.761465">
        <ele>400.798499</ele>
        <time>2021-11-22T11:43:44.690Z</time>
      </trkpt>
      <trkpt lat="47.442878" lon="7.761382">
        <ele>400.526488</ele>
        <time>2021-11-22T11:43:45.325Z</time>
      </trkpt>
      <trkpt lat="47.443049" lon="7.760704">
        <ele>398.611456</ele>
        <time>2021-11-22T11:43:49.939Z</time>
      </trkpt>
      <trkpt lat="47.443112" lon="7.760477">
        <ele>397.962088</ele>
        <time>2021-11-22T11:43:51.830Z</time>
      </trkpt>
      <trkpt lat="47.443178" lon="7.760281">
        <ele>397.382638</ele>
        <time>2021-11-22T11:43:53.129Z</time>
      </trkpt>
      <trkpt lat="47.443255" lon="7.760116">
        <ele>396.815257</ele>
        <time>2021-11-22T11:43:54.472Z</time>
      </trkpt>
      <trkpt lat="47.443311" lon="7.760032">
        <ele>396.459159</ele>
        <time>2021-11-22T11:43:55.692Z</time>
      </trkpt>
      <trkpt lat="47.443553" lon="7.759787">
        <ele>395.149912</ele>
        <time>2021-11-22T11:43:58.434Z</time>
      </trkpt>
      <trkpt lat="47.443616" lon="7.759700">
        <ele>394.765100</ele>
        <time>2021-11-22T11:43:59.470Z</time>
      </trkpt>
      <trkpt lat="47.443690" lon="7.759577">
        <ele>394.268092</ele>
        <time>2021-11-22T11:44:00.434Z</time>
      </trkpt>
      <trkpt lat="47.443867" lon="7.758907">
        <ele>392.096486</ele>
        <time>2021-11-22T11:44:05.104Z</time>
      </trkpt>
      <trkpt lat="47.444252" lon="7.758365">
        <ele>389.723464</ele>
        <time>2021-11-22T11:44:10.367Z</time>
      </trkpt>
      <trkpt lat="47.444749" lon="7.757695">
        <ele>387.508309</ele>
        <time>2021-11-22T11:44:16.740Z</time>
      </trkpt>
      <trkpt lat="47.444843" lon="7.757585">
        <ele>387.151396</ele>
        <time>2021-11-22T11:44:17.926Z</time>
      </trkpt>
      <trkpt lat="47.445278" lon="7.757084">
        <ele>385.509725</ele>
        <time>2021-11-22T11:44:23.486Z</time>
      </trkpt>
      <trkpt lat="47.445858" lon="7.756435">
        <ele>383.837680</ele>
        <time>2021-11-22T11:44:31.675Z</time>
      </trkpt>
      <trkpt lat="47.446148" lon="7.756104">
        <ele>384.143809</ele>
        <time>2021-11-22T11:44:37.283Z</time>
      </trkpt>
      <trkpt lat="47.446380" lon="7.755845">
        <ele>384.386723</ele>
        <time>2021-11-22T11:44:42.533Z</time>
      </trkpt>
      <trkpt lat="47.446908" lon="7.755161">
        <ele>384.973308</ele>
        <time>2021-11-22T11:44:57.085Z</time>
      </trkpt>
      <trkpt lat="47.447682" lon="7.753856">
        <ele>386.911551</ele>
        <time>2021-11-22T11:45:25.309Z</time>
      </trkpt>
      <trkpt lat="47.448053" lon="7.753318">
        <ele>387.921756</ele>
        <time>2021-11-22T11:45:37.474Z</time>
      </trkpt>
      <trkpt lat="47.448903" lon="7.752305">
        <ele>388.048834</ele>
        <time>2021-11-22T11:45:59.224Z</time>
      </trkpt>
      <trkpt lat="47.450098" lon="7.751078">
        <ele>385.322631</ele>
        <time>2021-11-22T11:46:14.931Z</time>
      </trkpt>
      <trkpt lat="47.450300" lon="7.750889">
        <ele>384.174485</ele>
        <time>2021-11-22T11:46:17.201Z</time>
      </trkpt>
      <trkpt lat="47.450534" lon="7.750678">
        <ele>382.858066</ele>
        <time>2021-11-22T11:46:19.759Z</time>
      </trkpt>
      <trkpt lat="47.450829" lon="7.750425">
        <ele>381.220073</ele>
        <time>2021-11-22T11:46:22.913Z</time>
      </trkpt>
      <trkpt lat="47.451102" lon="7.750197">
        <ele>379.714131</ele>
        <time>2021-11-22T11:46:25.818Z</time>
      </trkpt>
      <trkpt lat="47.451310" lon="7.750030">
        <ele>378.577314</ele>
        <time>2021-11-22T11:46:28.000Z</time>
      </trkpt>
      <trkpt lat="47.451732" lon="7.749739">
        <ele>376.436244</ele>
        <time>2021-11-22T11:46:32.235Z</time>
      </trkpt>
      <trkpt lat="47.452067" lon="7.749491">
        <ele>374.725335</ele>
        <time>2021-11-22T11:46:35.719Z</time>
      </trkpt>
      <trkpt lat="47.452651" lon="7.749069">
        <ele>371.756890</ele>
        <time>2021-11-22T11:46:41.987Z</time>
      </trkpt>
      <trkpt lat="47.452785" lon="7.748985">
        <ele>371.092214</ele>
        <time>2021-11-22T11:46:43.391Z</time>
      </trkpt>
      <trkpt lat="47.453184" lon="7.748733">
        <ele>369.723878</ele>
        <time>2021-11-22T11:46:47.889Z</time>
      </trkpt>
      <trkpt lat="47.455618" lon="7.747172">
        <ele>365.644914</ele>
        <time>2021-11-22T11:47:19.407Z</time>
      </trkpt>
      <trkpt lat="47.456072" lon="7.746683">
        <ele>364.864407</ele>
        <time>2021-11-22T11:47:26.027Z</time>
      </trkpt>
      <trkpt lat="47.457103" lon="7.745266">
        <ele>362.494559</ele>
        <time>2021-11-22T11:47:41.401Z</time>
      </trkpt>
      <trkpt lat="47.457302" lon="7.744993">
        <ele>362.026314</ele>
        <time>2021-11-22T11:47:44.379Z</time>
      </trkpt>
      <trkpt lat="47.457850" lon="7.744234">
        <ele>361.515507</ele>
        <time>2021-11-22T11:47:53.506Z</time>
      </trkpt>
      <trkpt lat="47.458097" lon="7.743895">
        <ele>361.511817</ele>
        <time>2021-11-22T11:47:59.029Z</time>
      </trkpt>
      <trkpt lat="47.458209" lon="7.743781">
        <ele>361.510327</ele>
        <time>2021-11-22T11:48:01.432Z</time>
      </trkpt>
      <trkpt lat="47.458441" lon="7.743496">
        <ele>361.507024</ele>
        <time>2021-11-22T11:48:05.890Z</time>
      </trkpt>
      <trkpt lat="47.458615" lon="7.743258">
        <ele>361.504428</ele>
        <time>2021-11-22T11:48:10.250Z</time>
      </trkpt>
      <trkpt lat="47.458936" lon="7.742817">
        <ele>361.471385</ele>
        <time>2021-11-22T11:48:18.132Z</time>
      </trkpt>
      <trkpt lat="47.459046" lon="7.742666">
        <ele>361.430701</ele>
        <time>2021-11-22T11:48:20.766Z</time>
      </trkpt>
      <trkpt lat="47.459076" lon="7.742623">
        <ele>361.419375</ele>
        <time>2021-11-22T11:48:21.371Z</time>
      </trkpt>
      <trkpt lat="47.459181" lon="7.742476">
        <ele>361.380181</ele>
        <time>2021-11-22T11:48:23.833Z</time>
      </trkpt>
      <trkpt lat="47.459214" lon="7.742435">
        <ele>361.368497</ele>
        <time>2021-11-22T11:48:24.399Z</time>
      </trkpt>
      <trkpt lat="47.459352" lon="7.742262">
        <ele>361.319456</ele>
        <time>2021-11-22T11:48:27.370Z</time>
      </trkpt>
      <trkpt lat="47.459421" lon="7.742151">
        <ele>361.291819</ele>
        <time>2021-11-22T11:48:29.026Z</time>
      </trkpt>
      <trkpt lat="47.459496" lon="7.742033">
        <ele>361.262134</ele>
        <time>2021-11-22T11:48:30.444Z</time>
      </trkpt>
      <trkpt lat="47.459941" lon="7.741395">
        <ele>361.094123</ele>
        <time>2021-11-22T11:48:38.710Z</time>
      </trkpt>
      <trkpt lat="47.459971" lon="7.741305">
        <ele>361.075731</ele>
        <time>2021-11-22T11:48:39.529Z</time>
      </trkpt>
      <trkpt lat="47.460198" lon="7.741001">
        <ele>360.904595</ele>
        <time>2021-11-22T11:48:43.182Z</time>
      </trkpt>
      <trkpt lat="47.460849" lon="7.740105">
        <ele>359.627380</ele>
        <time>2021-11-22T11:48:53.263Z</time>
      </trkpt>
      <trkpt lat="47.460986" lon="7.739937">
        <ele>359.371778</ele>
        <time>2021-11-22T11:48:55.223Z</time>
      </trkpt>
      <trkpt lat="47.461070" lon="7.739839">
        <ele>359.218117</ele>
        <time>2021-11-22T11:48:56.567Z</time>
      </trkpt>
      <trkpt lat="47.461511" lon="7.739436">
        <ele>358.473582</ele>
        <time>2021-11-22T11:49:02.482Z</time>
      </trkpt>
      <trkpt lat="47.461764" lon="7.739271">
        <ele>358.129339</ele>
        <time>2021-11-22T11:49:05.850Z</time>
      </trkpt>
      <trkpt lat="47.462058" lon="7.739121">
        <ele>357.749504</ele>
        <time>2021-11-22T11:49:09.536Z</time>
      </trkpt>
      <trkpt lat="47.462257" lon="7.739044">
        <ele>357.498279</ele>
        <time>2021-11-22T11:49:11.900Z</time>
      </trkpt>
      <trkpt lat="47.462428" lon="7.738996">
        <ele>357.285703</ele>
        <time>2021-11-22T11:49:14.144Z</time>
      </trkpt>
      <trkpt lat="47.462754" lon="7.738927">
        <ele>356.883491</ele>
        <time>2021-11-22T11:49:18.241Z</time>
      </trkpt>
      <trkpt lat="47.464246" lon="7.738800">
        <ele>354.898936</ele>
        <time>2021-11-22T11:49:35.667Z</time>
      </trkpt>
      <trkpt lat="47.464525" lon="7.738789">
        <ele>354.511842</ele>
        <time>2021-11-22T11:49:38.929Z</time>
      </trkpt>
      <trkpt lat="47.464818" lon="7.738771">
        <ele>354.105118</ele>
        <time>2021-11-22T11:49:42.335Z</time>
      </trkpt>
      <trkpt lat="47.465111" lon="7.738724">
        <ele>353.684356</ele>
        <time>2021-11-22T11:49:45.785Z</time>
      </trkpt>
      <trkpt lat="47.465278" lon="7.738667">
        <ele>353.378942</ele>
        <time>2021-11-22T11:49:47.752Z</time>
      </trkpt>
      <trkpt lat="47.466017" lon="7.738617">
        <ele>352.060666</ele>
        <time>2021-11-22T11:49:56.179Z</time>
      </trkpt>
      <trkpt lat="47.466070" lon="7.738615">
        <ele>351.966189</ele>
        <time>2021-11-22T11:49:56.779Z</time>
      </trkpt>
      <trkpt lat="47.466320" lon="7.738600">
        <ele>351.520322</ele>
        <time>2021-11-22T11:49:59.519Z</time>
      </trkpt>
      <trkpt lat="47.467080" lon="7.738726">
        <ele>350.075608</ele>
        <time>2021-11-22T11:50:07.894Z</time>
      </trkpt>
      <trkpt lat="47.467174" lon="7.738757">
        <ele>349.866580</ele>
        <time>2021-11-22T11:50:08.935Z</time>
      </trkpt>
      <trkpt lat="47.467405" lon="7.738857">
        <ele>349.344185</ele>
        <time>2021-11-22T11:50:11.528Z</time>
      </trkpt>
      <trkpt lat="47.467978" lon="7.739203">
        <ele>348.000911</ele>
        <time>2021-11-22T11:50:18.171Z</time>
      </trkpt>
      <trkpt lat="47.470256" lon="7.740990">
        <ele>342.669471</ele>
        <time>2021-11-22T11:50:46.073Z</time>
      </trkpt>
      <trkpt lat="47.470851" lon="7.741453">
        <ele>341.938938</ele>
        <time>2021-11-22T11:50:53.852Z</time>
      </trkpt>
      <trkpt lat="47.471834" lon="7.742207">
        <ele>340.825881</ele>
        <time>2021-11-22T11:51:08.211Z</time>
      </trkpt>
      <trkpt lat="47.471926" lon="7.742277">
        <ele>340.785813</ele>
        <time>2021-11-22T11:51:09.829Z</time>
      </trkpt>
      <trkpt lat="47.472097" lon="7.742408">
        <ele>340.711232</ele>
        <time>2021-11-22T11:51:12.498Z</time>
      </trkpt>
      <trkpt lat="47.472647" lon="7.742849">
        <ele>340.468943</ele>
        <time>2021-11-22T11:51:21.660Z</time>
      </trkpt>
      <trkpt lat="47.472975" lon="7.743113">
        <ele>340.324325</ele>
        <time>2021-11-22T11:51:26.915Z</time>
      </trkpt>
      <trkpt lat="47.473017" lon="7.743146">
        <ele>340.305907</ele>
        <time>2021-11-22T11:51:27.569Z</time>
      </trkpt>
      <trkpt lat="47.473167" lon="7.743264">
        <ele>340.240110</ele>
        <time>2021-11-22T11:51:30.015Z</time>
      </trkpt>
      <trkpt lat="47.474415" lon="7.744233">
        <ele>338.417487</ele>
        <time>2021-11-22T11:51:46.974Z</time>
      </trkpt>
      <trkpt lat="47.474802" lon="7.744534">
        <ele>337.802336</ele>
        <time>2021-11-22T11:51:51.735Z</time>
      </trkpt>
      <trkpt lat="47.474825" lon="7.744552">
        <ele>337.765728</ele>
        <time>2021-11-22T11:51:52.022Z</time>
      </trkpt>
      <trkpt lat="47.474911" lon="7.744614">
        <ele>337.613086</ele>
        <time>2021-11-22T11:51:53.129Z</time>
      </trkpt>
      <trkpt lat="47.475040" lon="7.744695">
        <ele>337.211963</ele>
        <time>2021-11-22T11:51:54.586Z</time>
      </trkpt>
      <trkpt lat="47.475240" lon="7.744800">
        <ele>336.604516</ele>
        <time>2021-11-22T11:51:56.869Z</time>
      </trkpt>
      <trkpt lat="47.475301" lon="7.744824">
        <ele>336.423844</ele>
        <time>2021-11-22T11:51:57.515Z</time>
      </trkpt>
      <trkpt lat="47.475512" lon="7.744926">
        <ele>335.788463</ele>
        <time>2021-11-22T11:51:59.792Z</time>
      </trkpt>
      <trkpt lat="47.476298" lon="7.745084">
        <ele>333.517976</ele>
        <time>2021-11-22T11:52:07.905Z</time>
      </trkpt>
      <trkpt lat="47.476587" lon="7.745147">
        <ele>332.681823</ele>
        <time>2021-11-22T11:52:10.832Z</time>
      </trkpt>
      <trkpt lat="47.476791" lon="7.745201">
        <ele>332.056337</ele>
        <time>2021-11-22T11:52:12.917Z</time>
      </trkpt>
      <trkpt lat="47.476839" lon="7.745235">
        <ele>331.892058</ele>
        <time>2021-11-22T11:52:13.449Z</time>
      </trkpt>
      <trkpt lat="47.477022" lon="7.745305">
        <ele>331.308573</ele>
        <time>2021-11-22T11:52:15.411Z</time>
      </trkpt>
      <trkpt lat="47.477122" lon="7.745341">
        <ele>330.990873</ele>
        <time>2021-11-22T11:52:16.435Z</time>
      </trkpt>
      <trkpt lat="47.477525" lon="7.745516">
        <ele>329.694361</ele>
        <time>2021-11-22T11:52:20.712Z</time>
      </trkpt>
      <trkpt lat="47.477688" lon="7.745598">
        <ele>329.162899</ele>
        <time>2021-11-22T11:52:22.486Z</time>
      </trkpt>
      <trkpt lat="47.477739" lon="7.745618">
        <ele>329.000029</ele>
        <time>2021-11-22T11:52:23.006Z</time>
      </trkpt>
      <trkpt lat="47.477786" lon="7.745592">
        <ele>328.845133</ele>
        <time>2021-11-22T11:52:23.491Z</time>
      </trkpt>
      <trkpt lat="47.477825" lon="7.745563">
        <ele>328.710393</ele>
        <time>2021-11-22T11:52:23.915Z</time>
      </trkpt>
      <trkpt lat="47.477880" lon="7.745253">
        <ele>328.041700</ele>
        <time>2021-11-22T11:52:26.121Z</time>
      </trkpt>
      <trkpt lat="47.477896" lon="7.745170">
        <ele>327.861624</ele>
        <time>2021-11-22T11:52:26.698Z</time>
      </trkpt>
      <trkpt lat="47.477909" lon="7.745102">
        <ele>327.714183</ele>
        <time>2021-11-22T11:52:27.171Z</time>
      </trkpt>
      <trkpt lat="47.478002" lon="7.744565">
        <ele>326.722302</ele>
        <time>2021-11-22T11:52:31.036Z</time>
      </trkpt>
      <trkpt lat="47.478055" lon="7.744302">
        <ele>326.391342</ele>
        <time>2021-11-22T11:52:33.074Z</time>
      </trkpt>
      <trkpt lat="47.478062" lon="7.744180">
        <ele>326.243689</ele>
        <time>2021-11-22T11:52:33.949Z</time>
      </trkpt>
      <trkpt lat="47.478089" lon="7.744093">
        <ele>326.128241</ele>
        <time>2021-11-22T11:52:34.667Z</time>
      </trkpt>
      <trkpt lat="47.478130" lon="7.743970">
        <ele>325.962852</ele>
        <time>2021-11-22T11:52:35.692Z</time>
      </trkpt>
      <trkpt lat="47.478208" lon="7.743779">
        <ele>325.693737</ele>
        <time>2021-11-22T11:52:37.324Z</time>
      </trkpt>
      <trkpt lat="47.478238" lon="7.743706">
        <ele>325.590708</ele>
        <time>2021-11-22T11:52:37.941Z</time>
      </trkpt>
      <trkpt lat="47.478402" lon="7.743393">
        <ele>325.113110</ele>
        <time>2021-11-22T11:52:40.974Z</time>
      </trkpt>
      <trkpt lat="47.478481" lon="7.743277">
        <ele>324.914521</ele>
        <time>2021-11-22T11:52:42.227Z</time>
      </trkpt>
      <trkpt lat="47.478673" lon="7.743018">
        <ele>324.450934</ele>
        <time>2021-11-22T11:52:45.305Z</time>
      </trkpt>
      <trkpt lat="47.478747" lon="7.742916">
        <ele>324.270480</ele>
        <time>2021-11-22T11:52:46.466Z</time>
      </trkpt>
      <trkpt lat="47.478848" lon="7.742778">
        <ele>324.025183</ele>
        <time>2021-11-22T11:52:48.128Z</time>
      </trkpt>
      <trkpt lat="47.478895" lon="7.742714">
        <ele>323.911213</ele>
        <time>2021-11-22T11:52:48.902Z</time>
      </trkpt>
      <trkpt lat="47.478949" lon="7.742644">
        <ele>323.783115</ele>
        <time>2021-11-22T11:52:49.805Z</time>
      </trkpt>
      <trkpt lat="47.479105" lon="7.742414">
        <ele>323.545343</ele>
        <time>2021-11-22T11:52:52.565Z</time>
      </trkpt>
      <trkpt lat="47.479130" lon="7.742380">
        <ele>323.511735</ele>
        <time>2021-11-22T11:52:52.966Z</time>
      </trkpt>
      <trkpt lat="47.479629" lon="7.741696">
        <ele>322.838495</ele>
        <time>2021-11-22T11:53:02.106Z</time>
      </trkpt>
      <trkpt lat="47.479843" lon="7.741440">
        <ele>322.566129</ele>
        <time>2021-11-22T11:53:05.448Z</time>
      </trkpt>
      <trkpt lat="47.479963" lon="7.741350">
        <ele>322.432975</ele>
        <time>2021-11-22T11:53:07.133Z</time>
      </trkpt>
      <trkpt lat="47.480104" lon="7.741241">
        <ele>322.275524</ele>
        <time>2021-11-22T11:53:08.978Z</time>
      </trkpt>
      <trkpt lat="47.480294" lon="7.741119">
        <ele>322.070532</ele>
        <time>2021-11-22T11:53:11.470Z</time>
      </trkpt>
      <trkpt lat="47.480539" lon="7.740961">
        <ele>321.699286</ele>
        <time>2021-11-22T11:53:14.556Z</time>
      </trkpt>
      <trkpt lat="47.480591" lon="7.740959">
        <ele>321.611758</ele>
        <time>2021-11-22T11:53:15.350Z</time>
      </trkpt>
      <trkpt lat="47.480648" lon="7.741012">
        <ele>321.498481</ele>
        <time>2021-11-22T11:53:16.016Z</time>
      </trkpt>
      <trkpt lat="47.481177" lon="7.741735">
        <ele>320.286734</ele>
        <time>2021-11-22T11:53:23.957Z</time>
      </trkpt>
      <trkpt lat="47.481605" lon="7.742324">
        <ele>319.303222</ele>
        <time>2021-11-22T11:53:30.580Z</time>
      </trkpt>
      <trkpt lat="47.481698" lon="7.742446">
        <ele>319.094090</ele>
        <time>2021-11-22T11:53:31.897Z</time>
      </trkpt>
      <trkpt lat="47.481898" lon="7.742719">
        <ele>318.734368</ele>
        <time>2021-11-22T11:53:35.078Z</time>
      </trkpt>
      <trkpt lat="47.481963" lon="7.742814">
        <ele>318.631650</ele>
        <time>2021-11-22T11:53:36.080Z</time>
      </trkpt>
      <trkpt lat="47.482182" lon="7.743222">
        <ele>318.235762</ele>
        <time>2021-11-22T11:53:40.258Z</time>
      </trkpt>
      <trkpt lat="47.482343" lon="7.743048">
        <ele>318.011611</ele>
        <time>2021-11-22T11:53:42.780Z</time>
      </trkpt>
      <trkpt lat="47.482599" lon="7.742771">
        <ele>317.655049</ele>
        <time>2021-11-22T11:53:46.576Z</time>
      </trkpt>
      <trkpt lat="47.482889" lon="7.742461">
        <ele>317.252825</ele>
        <time>2021-11-22T11:53:51.017Z</time>
      </trkpt>
      <trkpt lat="47.482927" lon="7.742421">
        <ele>317.200395</ele>
        <time>2021-11-22T11:53:51.720Z</time>
      </trkpt>
      <trkpt lat="47.483275" lon="7.742050">
        <ele>316.807087</ele>
        <time>2021-11-22T11:53:57.014Z</time>
      </trkpt>
      <trkpt lat="47.483828" lon="7.741475">
        <ele>316.399849</ele>
        <time>2021-11-22T11:54:05.835Z</time>
      </trkpt>
      <trkpt lat="47.483946" lon="7.741362">
        <ele>316.315160</ele>
        <time>2021-11-22T11:54:07.592Z</time>
      </trkpt>
      <trkpt lat="47.484154" lon="7.741142">
        <ele>316.161109</ele>
        <time>2021-11-22T11:54:10.821Z</time>
      </trkpt>
      <trkpt lat="47.484268" lon="7.741010">
        <ele>316.073890</ele>
        <time>2021-11-22T11:54:12.577Z</time>
      </trkpt>
      <trkpt lat="47.484365" lon="7.740878">
        <ele>315.994487</ele>
        <time>2021-11-22T11:54:14.155Z</time>
      </trkpt>
      <trkpt lat="47.484807" lon="7.739866">
        <ele>315.765634</ele>
        <time>2021-11-22T11:54:25.997Z</time>
      </trkpt>
      <trkpt lat="47.484997" lon="7.738871">
        <ele>315.686718</ele>
        <time>2021-11-22T11:54:37.551Z</time>
      </trkpt>
      <trkpt lat="47.485014" lon="7.738715">
        <ele>315.674658</ele>
        <time>2021-11-22T11:54:39.088Z</time>
      </trkpt>
      <trkpt lat="47.485032" lon="7.738535">
        <ele>315.660770</ele>
        <time>2021-11-22T11:54:41.041Z</time>
      </trkpt>
      <trkpt lat="47.485045" lon="7.738427">
        <ele>315.652397</ele>
        <time>2021-11-22T11:54:41.919Z</time>
      </trkpt>
      <trkpt lat="47.485067" lon="7.738278">
        <ele>315.640757</ele>
        <time>2021-11-22T11:54:43.372Z</time>
      </trkpt>
      <trkpt lat="47.485088" lon="7.738190">
        <ele>315.633634</ele>
        <time>2021-11-22T11:54:44.124Z</time>
      </trkpt>
      <trkpt lat="47.485121" lon="7.738124">
        <ele>315.627367</ele>
        <time>2021-11-22T11:54:45.127Z</time>
      </trkpt>
      <trkpt lat="47.485202" lon="7.737978">
        <ele>315.548190</ele>
        <time>2021-11-22T11:54:46.696Z</time>
      </trkpt>
      <trkpt lat="47.485384" lon="7.737678">
        <ele>315.316821</ele>
        <time>2021-11-22T11:54:50.090Z</time>
      </trkpt>
      <trkpt lat="47.485506" lon="7.737474">
        <ele>315.160484</ele>
        <time>2021-11-22T11:54:52.193Z</time>
      </trkpt>
      <trkpt lat="47.485631" lon="7.737265">
        <ele>315.000311</ele>
        <time>2021-11-22T11:54:54.601Z</time>
      </trkpt>
      <trkpt lat="47.485696" lon="7.737158">
        <ele>314.917740</ele>
        <time>2021-11-22T11:54:55.791Z</time>
      </trkpt>
      <trkpt lat="47.485750" lon="7.737070">
        <ele>314.849523</ele>
        <time>2021-11-22T11:54:56.797Z</time>
      </trkpt>
      <trkpt lat="47.485806" lon="7.737111">
        <ele>314.796463</ele>
        <time>2021-11-22T11:54:57.500Z</time>
      </trkpt>
      <trkpt lat="47.485875" lon="7.737156">
        <ele>314.732427</ele>
        <time>2021-11-22T11:54:58.803Z</time>
      </trkpt>
      <trkpt lat="47.485976" lon="7.737217">
        <ele>314.639785</ele>
        <time>2021-11-22T11:55:00.117Z</time>
      </trkpt>
      <trkpt lat="47.486087" lon="7.737329">
        <ele>314.525691</ele>
        <time>2021-11-22T11:55:01.755Z</time>
      </trkpt>
      <trkpt lat="47.486287" lon="7.737642">
        <ele>314.278477</ele>
        <time>2021-11-22T11:55:05.349Z</time>
      </trkpt>
      <trkpt lat="47.486314" lon="7.737686">
        <ele>314.244369</ele>
        <time>2021-11-22T11:55:05.761Z</time>
      </trkpt>
      <trkpt lat="47.486354" lon="7.737753">
        <ele>314.193062</ele>
        <time>2021-11-22T11:55:06.400Z</time>
      </trkpt>
      <trkpt lat="47.486384" lon="7.737805">
        <ele>314.153824</ele>
        <time>2021-11-22T11:55:07.131Z</time>
      </trkpt>
      <trkpt lat="47.486495" lon="7.737981">
        <ele>314.077238</ele>
        <time>2021-11-22T11:55:09.557Z</time>
      </trkpt>
      <trkpt lat="47.486621" lon="7.738169">
        <ele>314.042624</ele>
        <time>2021-11-22T11:55:11.581Z</time>
      </trkpt>
      <trkpt lat="47.486676" lon="7.738293">
        <ele>314.023234</ele>
        <time>2021-11-22T11:55:13.531Z</time>
      </trkpt>
      <trkpt lat="47.486689" lon="7.738358">
        <ele>314.014373</ele>
        <time>2021-11-22T11:55:14.048Z</time>
      </trkpt>
      <trkpt lat="47.486827" lon="7.738319">
        <ele>313.987194</ele>
        <time>2021-11-22T11:55:15.678Z</time>
      </trkpt>
      <trkpt lat="47.487288" lon="7.738117">
        <ele>313.894186</ele>
        <time>2021-11-22T11:55:22.165Z</time>
      </trkpt>
      <trkpt lat="47.487552" lon="7.737858">
        <ele>313.832911</ele>
        <time>2021-11-22T11:55:27.101Z</time>
      </trkpt>
      <trkpt lat="47.487621" lon="7.737779">
        <ele>313.816034</ele>
        <time>2021-11-22T11:55:29.100Z</time>
      </trkpt>
      <trkpt lat="47.487864" lon="7.737500">
        <ele>313.756536</ele>
        <time>2021-11-22T11:55:34.435Z</time>
      </trkpt>
      <trkpt lat="47.488046" lon="7.737266">
        <ele>313.668946</ele>
        <time>2021-11-22T11:55:38.943Z</time>
      </trkpt>
      <trkpt lat="47.488606" lon="7.735964">
        <ele>313.247216</ele>
        <time>2021-11-22T11:55:53.945Z</time>
      </trkpt>
      <trkpt lat="47.488804" lon="7.735382">
        <ele>313.069165</ele>
        <time>2021-11-22T11:55:59.104Z</time>
      </trkpt>
      <trkpt lat="47.488949" lon="7.734979">
        <ele>312.682479</ele>
        <time>2021-11-22T11:56:02.668Z</time>
      </trkpt>
      <trkpt lat="47.489032" lon="7.734791">
        <ele>312.408837</ele>
        <time>2021-11-22T11:56:04.345Z</time>
      </trkpt>
      <trkpt lat="47.489918" lon="7.732395">
        <ele>309.208217</ele>
        <time>2021-11-22T11:56:24.749Z</time>
      </trkpt>
      <trkpt lat="47.489972" lon="7.732312">
        <ele>309.093543</ele>
        <time>2021-11-22T11:56:25.563Z</time>
      </trkpt>
      <trkpt lat="47.491123" lon="7.730521">
        <ele>306.717734</ele>
        <time>2021-11-22T11:56:45.252Z</time>
      </trkpt>
      <trkpt lat="47.491189" lon="7.730425">
        <ele>306.604655</ele>
        <time>2021-11-22T11:56:46.409Z</time>
      </trkpt>
      <trkpt lat="47.491229" lon="7.730369">
        <ele>306.537374</ele>
        <time>2021-11-22T11:56:47.096Z</time>
      </trkpt>
      <trkpt lat="47.491274" lon="7.730304">
        <ele>306.460538</ele>
        <time>2021-11-22T11:56:47.883Z</time>
      </trkpt>
      <trkpt lat="47.491352" lon="7.730195">
        <ele>306.329452</ele>
        <time>2021-11-22T11:56:49.108Z</time>
      </trkpt>
      <trkpt lat="47.491749" lon="7.729641">
        <ele>305.662703</ele>
        <time>2021-11-22T11:56:55.665Z</time>
      </trkpt>
      <trkpt lat="47.491764" lon="7.729620">
        <ele>305.637473</ele>
        <time>2021-11-22T11:56:55.857Z</time>
      </trkpt>
      <trkpt lat="47.492018" lon="7.729265">
        <ele>305.210577</ele>
        <time>2021-11-22T11:57:00.049Z</time>
      </trkpt>
      <trkpt lat="47.492160" lon="7.729079">
        <ele>304.978864</ele>
        <time>2021-11-22T11:57:02.224Z</time>
      </trkpt>
      <trkpt lat="47.492253" lon="7.728955">
        <ele>304.846667</ele>
        <time>2021-11-22T11:57:03.764Z</time>
      </trkpt>
      <trkpt lat="47.492640" lon="7.728394">
        <ele>304.317183</ele>
        <time>2021-11-22T11:57:10.266Z</time>
      </trkpt>
      <trkpt lat="47.493051" lon="7.727844">
        <ele>303.775595</ele>
        <time>2021-11-22T11:57:17.010Z</time>
      </trkpt>
      <trkpt lat="47.493304" lon="7.727627">
        <ele>303.489782</ele>
        <time>2021-11-22T11:57:20.582Z</time>
      </trkpt>
      <trkpt lat="47.493736" lon="7.727441">
        <ele>303.125451</ele>
        <time>2021-11-22T11:57:26.378Z</time>
      </trkpt>
      <trkpt lat="47.493928" lon="7.727382">
        <ele>303.052672</ele>
        <time>2021-11-22T11:57:28.958Z</time>
      </trkpt>
      <trkpt lat="47.495388" lon="7.727405">
        <ele>302.510770</ele>
        <time>2021-11-22T11:57:49.517Z</time>
      </trkpt>
      <trkpt lat="47.495736" lon="7.727409">
        <ele>302.295235</ele>
        <time>2021-11-22T11:57:54.123Z</time>
      </trkpt>
      <trkpt lat="47.495777" lon="7.727410">
        <ele>302.269282</ele>
        <time>2021-11-22T11:57:54.674Z</time>
      </trkpt>
      <trkpt lat="47.495921" lon="7.727411">
        <ele>302.178140</ele>
        <time>2021-11-22T11:57:56.489Z</time>
      </trkpt>
      <trkpt lat="47.496039" lon="7.727411">
        <ele>302.103455</ele>
        <time>2021-11-22T11:57:58.057Z</time>
      </trkpt>
      <trkpt lat="47.496162" lon="7.727414">
        <ele>302.025594</ele>
        <time>2021-11-22T11:57:59.647Z</time>
      </trkpt>
      <trkpt lat="47.496367" lon="7.727420">
        <ele>301.895819</ele>
        <time>2021-11-22T11:58:02.236Z</time>
      </trkpt>
      <trkpt lat="47.496689" lon="7.727441">
        <ele>301.691820</ele>
        <time>2021-11-22T11:58:06.278Z</time>
      </trkpt>
      <trkpt lat="47.498171" lon="7.727736">
        <ele>300.829742</ele>
        <time>2021-11-22T11:58:25.406Z</time>
      </trkpt>
      <trkpt lat="47.499222" lon="7.727694">
        <ele>300.240417</ele>
        <time>2021-11-22T11:58:39.768Z</time>
      </trkpt>
      <trkpt lat="47.500808" lon="7.727366">
        <ele>299.224642</ele>
        <time>2021-11-22T11:59:01.255Z</time>
      </trkpt>
      <trkpt lat="47.501683" lon="7.727114">
        <ele>297.650719</ele>
        <time>2021-11-22T11:59:10.989Z</time>
      </trkpt>
      <trkpt lat="47.502070" lon="7.727002">
        <ele>296.954471</ele>
        <time>2021-11-22T11:59:15.291Z</time>
      </trkpt>
      <trkpt lat="47.502089" lon="7.726997">
        <ele>296.920398</ele>
        <time>2021-11-22T11:59:15.516Z</time>
      </trkpt>
      <trkpt lat="47.502204" lon="7.726964">
        <ele>296.713567</ele>
        <time>2021-11-22T11:59:16.830Z</time>
      </trkpt>
      <trkpt lat="47.502204" lon="7.726964">
        <ele>296.713567</ele>
        <time>2021-11-22T11:59:17.040Z</time>
      </trkpt>
      <trkpt lat="47.502204" lon="7.726964">
        <ele>296.713567</ele>
        <time>2021-11-22T11:59:17.121Z</time>
      </trkpt>
      <trkpt lat="47.502189" lon="7.726824">
        <ele>296.544486</ele>
        <time>2021-11-22T11:59:18.100Z</time>
      </trkpt>
      <trkpt lat="47.502177" lon="7.726706">
        <ele>296.402148</ele>
        <time>2021-11-22T11:59:19.084Z</time>
      </trkpt>
      <trkpt lat="47.502122" lon="7.726303">
        <ele>296.021994</ele>
        <time>2021-11-22T11:59:22.123Z</time>
      </trkpt>
      <trkpt lat="47.502115" lon="7.726246">
        <ele>295.991018</ele>
        <time>2021-11-22T11:59:22.792Z</time>
      </trkpt>
      <trkpt lat="47.502048" lon="7.725782">
        <ele>295.737327</ele>
        <time>2021-11-22T11:59:26.390Z</time>
      </trkpt>
      <trkpt lat="47.502031" lon="7.725427">
        <ele>295.547043</ele>
        <time>2021-11-22T11:59:29.431Z</time>
      </trkpt>
      <trkpt lat="47.502031" lon="7.725298">
        <ele>295.478070</ele>
        <time>2021-11-22T11:59:30.391Z</time>
      </trkpt>
      <trkpt lat="47.502029" lon="7.725074">
        <ele>295.358293</ele>
        <time>2021-11-22T11:59:32.319Z</time>
      </trkpt>
      <trkpt lat="47.502040" lon="7.724902">
        <ele>295.265919</ele>
        <time>2021-11-22T11:59:33.894Z</time>
      </trkpt>
      <trkpt lat="47.502055" lon="7.724669">
        <ele>295.140776</ele>
        <time>2021-11-22T11:59:35.822Z</time>
      </trkpt>
      <trkpt lat="47.502172" lon="7.724685">
        <ele>295.047782</ele>
        <time>2021-11-22T11:59:37.917Z</time>
      </trkpt>
      <trkpt lat="47.502179" lon="7.724686">
        <ele>295.042217</ele>
        <time>2021-11-22T11:59:38.052Z</time>
      </trkpt>
      <trkpt lat="47.502205" lon="7.724690">
        <ele>295.021528</ele>
        <time>2021-11-22T11:59:38.530Z</time>
      </trkpt>
      <trkpt lat="47.502283" lon="7.724703">
        <ele>294.959405</ele>
        <time>2021-11-22T11:59:40.008Z</time>
      </trkpt>
      <trkpt lat="47.502496" lon="7.724680">
        <ele>294.790380</ele>
        <time>2021-11-22T11:59:44.585Z</time>
      </trkpt>
      <trkpt lat="47.502584" lon="7.724671">
        <ele>294.720567</ele>
        <time>2021-11-22T11:59:46.617Z</time>
      </trkpt>
      <trkpt lat="47.502794" lon="7.724635">
        <ele>294.623777</ele>
        <time>2021-11-22T11:59:51.397Z</time>
      </trkpt>
      <trkpt lat="47.503201" lon="7.724541">
        <ele>294.468340</ele>
        <time>2021-11-22T12:00:00.871Z</time>
      </trkpt>
      <trkpt lat="47.503333" lon="7.724502">
        <ele>294.417548</ele>
        <time>2021-11-22T12:00:03.784Z</time>
      </trkpt>
      <trkpt lat="47.503457" lon="7.724469">
        <ele>294.370007</ele>
        <time>2021-11-22T12:00:06.388Z</time>
      </trkpt>
      <trkpt lat="47.503494" lon="7.724462">
        <ele>294.355931</ele>
        <time>2021-11-22T12:00:07.192Z</time>
      </trkpt>
      <trkpt lat="47.503945" lon="7.724377">
        <ele>294.184375</ele>
        <time>2021-11-22T12:00:15.439Z</time>
      </trkpt>
      <trkpt lat="47.504048" lon="7.724357">
        <ele>294.145175</ele>
        <time>2021-11-22T12:00:17.164Z</time>
      </trkpt>
      <trkpt lat="47.504396" lon="7.724291">
        <ele>294.012786</ele>
        <time>2021-11-22T12:00:23.077Z</time>
      </trkpt>
      <trkpt lat="47.504514" lon="7.724269">
        <ele>293.787534</ele>
        <time>2021-11-22T12:00:25.097Z</time>
      </trkpt>
      <trkpt lat="47.504610" lon="7.724250">
        <ele>293.591855</ele>
        <time>2021-11-22T12:00:26.761Z</time>
      </trkpt>
      <trkpt lat="47.504856" lon="7.724220">
        <ele>293.093166</ele>
        <time>2021-11-22T12:00:30.671Z</time>
      </trkpt>
      <trkpt lat="47.505012" lon="7.724231">
        <ele>292.777634</ele>
        <time>2021-11-22T12:00:33.226Z</time>
      </trkpt>
      <trkpt lat="47.505073" lon="7.724246">
        <ele>292.652704</ele>
        <time>2021-11-22T12:00:34.118Z</time>
      </trkpt>
      <trkpt lat="47.505161" lon="7.724267">
        <ele>292.472618</ele>
        <time>2021-11-22T12:00:35.538Z</time>
      </trkpt>
      <trkpt lat="47.505365" lon="7.724317">
        <ele>292.054856</ele>
        <time>2021-11-22T12:00:38.891Z</time>
      </trkpt>
      <trkpt lat="47.505646" lon="7.724350">
        <ele>291.485354</ele>
        <time>2021-11-22T12:00:43.190Z</time>
      </trkpt>
      <trkpt lat="47.505783" lon="7.724344">
        <ele>291.208445</ele>
        <time>2021-11-22T12:00:45.225Z</time>
      </trkpt>
      <trkpt lat="47.505851" lon="7.724341">
        <ele>291.071001</ele>
        <time>2021-11-22T12:00:46.306Z</time>
      </trkpt>
      <trkpt lat="47.505891" lon="7.724339">
        <ele>290.990141</ele>
        <time>2021-11-22T12:00:46.902Z</time>
      </trkpt>
      <trkpt lat="47.505930" lon="7.724337">
        <ele>290.911300</ele>
        <time>2021-11-22T12:00:47.505Z</time>
      </trkpt>
      <trkpt lat="47.506453" lon="7.724284">
        <ele>289.880480</ele>
        <time>2021-11-22T12:00:55.473Z</time>
      </trkpt>
      <trkpt lat="47.506607" lon="7.724268">
        <ele>289.585446</ele>
        <time>2021-11-22T12:00:57.790Z</time>
      </trkpt>
      <trkpt lat="47.506921" lon="7.724257">
        <ele>288.985193</ele>
        <time>2021-11-22T12:01:02.787Z</time>
      </trkpt>
      <trkpt lat="47.506945" lon="7.724261">
        <ele>288.939037</ele>
        <time>2021-11-22T12:01:03.167Z</time>
      </trkpt>
      <trkpt lat="47.507064" lon="7.724278">
        <ele>288.710559</ele>
        <time>2021-11-22T12:01:05.043Z</time>
      </trkpt>
      <trkpt lat="47.507444" lon="7.724343">
        <ele>287.979510</ele>
        <time>2021-11-22T12:01:11.167Z</time>
      </trkpt>
      <trkpt lat="47.507810" lon="7.724326">
        <ele>287.279703</ele>
        <time>2021-11-22T12:01:17.149Z</time>
      </trkpt>
      <trkpt lat="47.508175" lon="7.724311">
        <ele>286.770296</ele>
        <time>2021-11-22T12:01:23.189Z</time>
      </trkpt>
      <trkpt lat="47.508425" lon="7.724317">
        <ele>286.545229</ele>
        <time>2021-11-22T12:01:27.414Z</time>
      </trkpt>
      <trkpt lat="47.508629" lon="7.724301">
        <ele>286.361341</ele>
        <time>2021-11-22T12:01:30.783Z</time>
      </trkpt>
      <trkpt lat="47.508823" lon="7.724215">
        <ele>286.179051</ele>
        <time>2021-11-22T12:01:33.266Z</time>
      </trkpt>
      <trkpt lat="47.509150" lon="7.724070">
        <ele>285.871782</ele>
        <time>2021-11-22T12:01:37.441Z</time>
      </trkpt>
      <trkpt lat="47.509672" lon="7.723906">
        <ele>285.391439</ele>
        <time>2021-11-22T12:01:44.364Z</time>
      </trkpt>
      <trkpt lat="47.509849" lon="7.723882">
        <ele>285.323227</ele>
        <time>2021-11-22T12:01:47.967Z</time>
      </trkpt>
      <trkpt lat="47.510349" lon="7.724011">
        <ele>285.345227</ele>
        <time>2021-11-22T12:01:58.935Z</time>
      </trkpt>
      <trkpt lat="47.510952" lon="7.724263">
        <ele>285.372386</ele>
        <time>2021-11-22T12:02:12.995Z</time>
      </trkpt>
      <trkpt lat="47.511606" lon="7.724590">
        <ele>285.520117</ele>
        <time>2021-11-22T12:02:25.465Z</time>
      </trkpt>
      <trkpt lat="47.511791" lon="7.724622">
        <ele>285.706554</ele>
        <time>2021-11-22T12:02:29.034Z</time>
      </trkpt>
      <trkpt lat="47.511979" lon="7.724618">
        <ele>285.894754</ele>
        <time>2021-11-22T12:02:32.877Z</time>
      </trkpt>
      <trkpt lat="47.512214" lon="7.724543">
        <ele>286.135383</ele>
        <time>2021-11-22T12:02:38.945Z</time>
      </trkpt>
      <trkpt lat="47.512277" lon="7.724501">
        <ele>286.204542</ele>
        <time>2021-11-22T12:02:40.045Z</time>
      </trkpt>
      <trkpt lat="47.512857" lon="7.723931">
        <ele>286.901358</ele>
        <time>2021-11-22T12:03:00.801Z</time>
      </trkpt>
      <trkpt lat="47.512888" lon="7.724074">
        <ele>287.002895</ele>
        <time>2021-11-22T12:03:02.892Z</time>
      </trkpt>
      <trkpt lat="47.512910" lon="7.724174">
        <ele>287.073998</ele>
        <time>2021-11-22T12:03:04.729Z</time>
      </trkpt>
      <trkpt lat="47.512976" lon="7.724418">
        <ele>287.242015</ele>
        <time>2021-11-22T12:03:08.108Z</time>
      </trkpt>
      <trkpt lat="47.513078" lon="7.724821">
        <ele>287.481142</ele>
        <time>2021-11-22T12:03:14.008Z</time>
      </trkpt>
      <trkpt lat="47.513150" lon="7.725105">
        <ele>287.649692</ele>
        <time>2021-11-22T12:03:16.391Z</time>
      </trkpt>
      <trkpt lat="47.513193" lon="7.725244">
        <ele>287.734641</ele>
        <time>2021-11-22T12:03:19.372Z</time>
      </trkpt>
      <trkpt lat="47.513232" lon="7.725318">
        <ele>287.786794</ele>
        <time>2021-11-22T12:03:20.515Z</time>
      </trkpt>
      <trkpt lat="47.513538" lon="7.725582">
        <ele>288.078145</ele>
        <time>2021-11-22T12:03:27.612Z</time>
      </trkpt>
      <trkpt lat="47.513681" lon="7.725617">
        <ele>288.197380</ele>
        <time>2021-11-22T12:03:29.971Z</time>
      </trkpt>
      <trkpt lat="47.513892" lon="7.725581">
        <ele>288.372108</ele>
        <time>2021-11-22T12:03:35.193Z</time>
      </trkpt>
      <trkpt lat="47.514143" lon="7.725538">
        <ele>288.579971</ele>
        <time>2021-11-22T12:03:39.603Z</time>
      </trkpt>
      <trkpt lat="47.515140" lon="7.725368">
        <ele>287.165938</ele>
        <time>2021-11-22T12:03:51.520Z</time>
      </trkpt>
      <trkpt lat="47.515697" lon="7.725255">
        <ele>286.206719</ele>
        <time>2021-11-22T12:03:57.326Z</time>
      </trkpt>
      <trkpt lat="47.515959" lon="7.725102">
        <ele>285.726189</ele>
        <time>2021-11-22T12:04:00.308Z</time>
      </trkpt>
      <trkpt lat="47.516416" lon="7.724623">
        <ele>284.555363</ele>
        <time>2021-11-22T12:04:06.265Z</time>
      </trkpt>
      <trkpt lat="47.517269" lon="7.723372">
        <ele>281.979693</ele>
        <time>2021-11-22T12:04:19.329Z</time>
      </trkpt>
      <trkpt lat="47.517885" lon="7.722793">
        <ele>280.983740</ele>
        <time>2021-11-22T12:04:27.663Z</time>
      </trkpt>
      <trkpt lat="47.518038" lon="7.722700">
        <ele>280.780227</ele>
        <time>2021-11-22T12:04:29.543Z</time>
      </trkpt>
      <trkpt lat="47.518237" lon="7.722578">
        <ele>280.515199</ele>
        <time>2021-11-22T12:04:32.161Z</time>
      </trkpt>
      <trkpt lat="47.519305" lon="7.722165">
        <ele>279.660463</ele>
        <time>2021-11-22T12:04:45.760Z</time>
      </trkpt>
      <trkpt lat="47.520760" lon="7.721667">
        <ele>280.275240</ele>
        <time>2021-11-22T12:05:09.758Z</time>
      </trkpt>
      <trkpt lat="47.521121" lon="7.721544">
        <ele>282.069768</ele>
        <time>2021-11-22T12:05:19.200Z</time>
      </trkpt>
      <trkpt lat="47.521455" lon="7.721426">
        <ele>283.733213</ele>
        <time>2021-11-22T12:05:30.371Z</time>
      </trkpt>
      <trkpt lat="47.521722" lon="7.721283">
        <ele>285.108671</ele>
        <time>2021-11-22T12:05:39.969Z</time>
      </trkpt>
      <trkpt lat="47.521846" lon="7.721211">
        <ele>285.753907</ele>
        <time>2021-11-22T12:05:46.244Z</time>
      </trkpt>
      <trkpt lat="47.521984" lon="7.721168">
        <ele>286.437075</ele>
        <time>2021-11-22T12:05:50.998Z</time>
      </trkpt>
      <trkpt lat="47.522249" lon="7.721165">
        <ele>287.720880</ele>
        <time>2021-11-22T12:06:03.055Z</time>
      </trkpt>
      <trkpt lat="47.522498" lon="7.721207">
        <ele>288.934937</ele>
        <time>2021-11-22T12:06:13.692Z</time>
      </trkpt>
      <trkpt lat="47.522682" lon="7.721170">
        <ele>289.973106</ele>
        <time>2021-11-22T12:06:21.144Z</time>
      </trkpt>
      <trkpt lat="47.522888" lon="7.721170">
        <ele>291.131802</ele>
        <time>2021-11-22T12:06:30.877Z</time>
      </trkpt>
      <trkpt lat="47.523111" lon="7.721224">
        <ele>292.402779</ele>
        <time>2021-11-22T12:06:39.241Z</time>
      </trkpt>
      <trkpt lat="47.523300" lon="7.721328">
        <ele>293.536876</ele>
        <time>2021-11-22T12:06:48.566Z</time>
      </trkpt>
      <trkpt lat="47.523671" lon="7.721634">
        <ele>295.925507</ele>
        <time>2021-11-22T12:07:04.482Z</time>
      </trkpt>
      <trkpt lat="47.523902" lon="7.721670">
        <ele>297.231997</ele>
        <time>2021-11-22T12:07:13.297Z</time>
      </trkpt>
      <trkpt lat="47.524263" lon="7.721598">
        <ele>299.105940</ele>
        <time>2021-11-22T12:07:24.640Z</time>
      </trkpt>
      <trkpt lat="47.524632" lon="7.721805">
        <ele>299.282360</ele>
        <time>2021-11-22T12:07:34.000Z</time>
      </trkpt>
      <trkpt lat="47.524884" lon="7.722022">
        <ele>299.412693</ele>
        <time>2021-11-22T12:07:39.247Z</time>
      </trkpt>
      <trkpt lat="47.525258" lon="7.722384">
        <ele>299.612457</ele>
        <time>2021-11-22T12:07:45.385Z</time>
      </trkpt>
      <trkpt lat="47.525373" lon="7.722545">
        <ele>299.683213</ele>
        <time>2021-11-22T12:07:47.392Z</time>
      </trkpt>
      <trkpt lat="47.526099" lon="7.723563">
        <ele>299.233148</ele>
        <time>2021-11-22T12:07:58.795Z</time>
      </trkpt>
      <trkpt lat="47.526744" lon="7.724750">
        <ele>297.938838</ele>
        <time>2021-11-22T12:08:10.734Z</time>
      </trkpt>
      <trkpt lat="47.526894" lon="7.725042">
        <ele>297.633345</ele>
        <time>2021-11-22T12:08:13.771Z</time>
      </trkpt>
      <trkpt lat="47.527326" lon="7.725967">
        <ele>297.847716</ele>
        <time>2021-11-22T12:08:24.491Z</time>
      </trkpt>
      <trkpt lat="47.527425" lon="7.726179">
        <ele>297.896846</ele>
        <time>2021-11-22T12:08:27.446Z</time>
      </trkpt>
      <trkpt lat="47.527862" lon="7.727114">
        <ele>298.113586</ele>
        <time>2021-11-22T12:08:42.005Z</time>
      </trkpt>
      <trkpt lat="47.528009" lon="7.727429">
        <ele>298.137891</ele>
        <time>2021-11-22T12:08:46.869Z</time>
      </trkpt>
      <trkpt lat="47.528065" lon="7.727556">
        <ele>298.136630</ele>
        <time>2021-11-22T12:08:48.643Z</time>
      </trkpt>
      <trkpt lat="47.528164" lon="7.727824">
        <ele>298.134090</ele>
        <time>2021-11-22T12:08:52.199Z</time>
      </trkpt>
      <trkpt lat="47.528320" lon="7.728136">
        <ele>298.130862</ele>
        <time>2021-11-22T12:08:56.341Z</time>
      </trkpt>
      <trkpt lat="47.528408" lon="7.728307">
        <ele>298.129074</ele>
        <time>2021-11-22T12:08:58.499Z</time>
      </trkpt>
      <trkpt lat="47.528552" lon="7.728411">
        <ele>298.127101</ele>
        <time>2021-11-22T12:09:00.772Z</time>
      </trkpt>
      <trkpt lat="47.528614" lon="7.728431">
        <ele>298.126320</ele>
        <time>2021-11-22T12:09:01.679Z</time>
      </trkpt>
      <trkpt lat="47.528688" lon="7.728441">
        <ele>298.125405</ele>
        <time>2021-11-22T12:09:02.678Z</time>
      </trkpt>
      <trkpt lat="47.528715" lon="7.728334">
        <ele>298.124455</ele>
        <time>2021-11-22T12:09:03.688Z</time>
      </trkpt>
      <trkpt lat="47.528746" lon="7.728265">
        <ele>298.123766</ele>
        <time>2021-11-22T12:09:04.459Z</time>
      </trkpt>
      <trkpt lat="47.528803" lon="7.728159">
        <ele>298.122639</ele>
        <time>2021-11-22T12:09:05.694Z</time>
      </trkpt>
      <trkpt lat="47.528848" lon="7.728118">
        <ele>298.121988</ele>
        <time>2021-11-22T12:09:06.399Z</time>
      </trkpt>
      <trkpt lat="47.528941" lon="7.728048">
        <ele>298.120704</ele>
        <time>2021-11-22T12:09:07.748Z</time>
      </trkpt>
      <trkpt lat="47.529269" lon="7.727844">
        <ele>298.011429</ele>
        <time>2021-11-22T12:09:12.212Z</time>
      </trkpt>
      <trkpt lat="47.529976" lon="7.727410">
        <ele>297.322078</ele>
        <time>2021-11-22T12:09:21.501Z</time>
      </trkpt>
      <trkpt lat="47.530372" lon="7.727161">
        <ele>296.934573</ele>
        <time>2021-11-22T12:09:26.848Z</time>
      </trkpt>
      <trkpt lat="47.530756" lon="7.726844">
        <ele>296.538591</ele>
        <time>2021-11-22T12:09:32.235Z</time>
      </trkpt>
      <trkpt lat="47.531031" lon="7.726569">
        <ele>296.335727</ele>
        <time>2021-11-22T12:09:36.370Z</time>
      </trkpt>
      <trkpt lat="47.531193" lon="7.726888">
        <ele>296.183322</ele>
        <time>2021-11-22T12:09:39.768Z</time>
      </trkpt>
      <trkpt lat="47.531296" lon="7.727089">
        <ele>296.086977</ele>
        <time>2021-11-22T12:09:42.318Z</time>
      </trkpt>
      <trkpt lat="47.531623" lon="7.727725">
        <ele>295.781753</ele>
        <time>2021-11-22T12:09:49.377Z</time>
      </trkpt>
      <trkpt lat="47.531815" lon="7.728165">
        <ele>295.581724</ele>
        <time>2021-11-22T12:09:54.132Z</time>
      </trkpt>
      <trkpt lat="47.531944" lon="7.728603">
        <ele>295.458193</ele>
        <time>2021-11-22T12:09:58.504Z</time>
      </trkpt>
      <trkpt lat="47.532193" lon="7.730459">
        <ele>295.259366</ele>
        <time>2021-11-22T12:10:16.071Z</time>
      </trkpt>
      <trkpt lat="47.532405" lon="7.731493">
        <ele>295.231232</ele>
        <time>2021-11-22T12:10:28.028Z</time>
      </trkpt>
      <trkpt lat="47.532473" lon="7.731703">
        <ele>295.244878</ele>
        <time>2021-11-22T12:10:30.496Z</time>
      </trkpt>
      <trkpt lat="47.532665" lon="7.732105">
        <ele>295.273729</ele>
        <time>2021-11-22T12:10:35.980Z</time>
      </trkpt>
      <trkpt lat="47.532776" lon="7.732283">
        <ele>295.287926</ele>
        <time>2021-11-22T12:10:38.555Z</time>
      </trkpt>
      <trkpt lat="47.532853" lon="7.732416">
        <ele>295.298191</ele>
        <time>2021-11-22T12:10:40.472Z</time>
      </trkpt>
      <trkpt lat="47.532961" lon="7.732599">
        <ele>295.312432</ele>
        <time>2021-11-22T12:10:42.762Z</time>
      </trkpt>
      <trkpt lat="47.533220" lon="7.733022">
        <ele>295.345890</ele>
        <time>2021-11-22T12:10:48.297Z</time>
      </trkpt>
      <trkpt lat="47.533324" lon="7.733190">
        <ele>295.337156</ele>
        <time>2021-11-22T12:10:50.601Z</time>
      </trkpt>
      <trkpt lat="47.533436" lon="7.733399">
        <ele>295.214813</ele>
        <time>2021-11-22T12:10:52.946Z</time>
      </trkpt>
      <trkpt lat="47.533577" lon="7.733712">
        <ele>295.042290</ele>
        <time>2021-11-22T12:10:56.459Z</time>
      </trkpt>
      <trkpt lat="47.533685" lon="7.734026">
        <ele>294.880716</ele>
        <time>2021-11-22T12:10:59.571Z</time>
      </trkpt>
      <trkpt lat="47.533860" lon="7.734479">
        <ele>294.641419</ele>
        <time>2021-11-22T12:11:04.074Z</time>
      </trkpt>
      <trkpt lat="47.534301" lon="7.735625">
        <ele>294.174433</ele>
        <time>2021-11-22T12:11:14.905Z</time>
      </trkpt>
      <trkpt lat="47.534450" lon="7.736026">
        <ele>294.257720</ele>
        <time>2021-11-22T12:11:18.679Z</time>
      </trkpt>
      <trkpt lat="47.534670" lon="7.736644">
        <ele>294.384846</ele>
        <time>2021-11-22T12:11:24.707Z</time>
      </trkpt>
      <trkpt lat="47.534670" lon="7.736644">
        <ele>294.384846</ele>
        <time>2021-11-22T12:11:24.709Z</time>
      </trkpt>
      <trkpt lat="47.534765" lon="7.736911">
        <ele>294.439763</ele>
        <time>2021-11-22T12:11:27.382Z</time>
      </trkpt>
      <trkpt lat="47.535216" lon="7.738157">
        <ele>296.442261</ele>
        <time>2021-11-22T12:11:46.791Z</time>
      </trkpt>
      <trkpt lat="47.534755" lon="7.738529">
        <ele>299.791753</ele>
        <time>2021-11-22T12:12:07.001Z</time>
      </trkpt>
      <trkpt lat="47.534011" lon="7.739126">
        <ele>305.190537</ele>
        <time>2021-11-22T12:12:48.814Z</time>
      </trkpt>
      <trkpt lat="47.533446" lon="7.739598">
        <ele>309.367722</ele>
        <time>2021-11-22T12:13:20.734Z</time>
      </trkpt>
      <trkpt lat="47.533226" lon="7.739781">
        <ele>310.996747</ele>
        <time>2021-11-22T12:13:32.071Z</time>
      </trkpt>
      <trkpt lat="47.533191" lon="7.739816">
        <ele>311.269394</ele>
        <time>2021-11-22T12:13:35.322Z</time>
      </trkpt>
      <trkpt lat="47.533352" lon="7.740430">
        <ele>314.140558</ele>
        <time>2021-11-22T12:13:54.006Z</time>
      </trkpt>
      <trkpt lat="47.533707" lon="7.742025">
        <ele>318.098621</ele>
        <time>2021-11-22T12:14:26.291Z</time>
      </trkpt>
      <trkpt lat="47.533870" lon="7.743466">
        <ele>318.761075</ele>
        <time>2021-11-22T12:14:38.369Z</time>
      </trkpt>
      <trkpt lat="47.534043" lon="7.744207">
        <ele>318.847602</ele>
        <time>2021-11-22T12:14:45.452Z</time>
      </trkpt>
      <trkpt lat="47.534097" lon="7.744343">
        <ele>318.823140</ele>
        <time>2021-11-22T12:14:46.900Z</time>
      </trkpt>
      <trkpt lat="47.534179" lon="7.744495">
        <ele>318.792975</ele>
        <time>2021-11-22T12:14:48.779Z</time>
      </trkpt>
      <trkpt lat="47.534370" lon="7.744709">
        <ele>318.737977</ele>
        <time>2021-11-22T12:14:52.073Z</time>
      </trkpt>
      <trkpt lat="47.534429" lon="7.744856">
        <ele>318.711463</ele>
        <time>2021-11-22T12:14:53.835Z</time>
      </trkpt>
      <trkpt lat="47.534874" lon="7.746551">
        <ele>318.585715</ele>
        <time>2021-11-22T12:15:11.385Z</time>
      </trkpt>
      <trkpt lat="47.535912" lon="7.749669">
        <ele>319.231679</ele>
        <time>2021-11-22T12:15:49.725Z</time>
      </trkpt>
      <trkpt lat="47.537134" lon="7.752309">
        <ele>320.017467</ele>
        <time>2021-11-22T12:16:23.878Z</time>
      </trkpt>
      <trkpt lat="47.537371" lon="7.752851">
        <ele>320.195333</ele>
        <time>2021-11-22T12:16:30.527Z</time>
      </trkpt>
      <trkpt lat="47.537564" lon="7.753073">
        <ele>320.600618</ele>
        <time>2021-11-22T12:16:34.342Z</time>
      </trkpt>
      <trkpt lat="47.537715" lon="7.753194">
        <ele>321.135131</ele>
        <time>2021-11-22T12:16:38.187Z</time>
      </trkpt>
      <trkpt lat="47.538052" lon="7.753460">
        <ele>322.324027</ele>
        <time>2021-11-22T12:16:47.271Z</time>
      </trkpt>
      <trkpt lat="47.538359" lon="7.753900">
        <ele>323.654027</ele>
        <time>2021-11-22T12:16:58.503Z</time>
      </trkpt>
      <trkpt lat="47.538494" lon="7.754103">
        <ele>324.252958</ele>
        <time>2021-11-22T12:17:04.307Z</time>
      </trkpt>
      <trkpt lat="47.538723" lon="7.754445">
        <ele>325.265410</ele>
        <time>2021-11-22T12:17:14.500Z</time>
      </trkpt>
      <trkpt lat="47.538792" lon="7.754549">
        <ele>325.571896</ele>
        <time>2021-11-22T12:17:18.362Z</time>
      </trkpt>
      <trkpt lat="47.539079" lon="7.754976">
        <ele>327.559867</ele>
        <time>2021-11-22T12:17:34.061Z</time>
      </trkpt>
      <trkpt lat="47.539230" lon="7.755294">
        <ele>328.972906</ele>
        <time>2021-11-22T12:17:44.721Z</time>
      </trkpt>
      <trkpt lat="47.539346" lon="7.755736">
        <ele>330.696470</ele>
        <time>2021-11-22T12:17:58.012Z</time>
      </trkpt>
      <trkpt lat="47.539595" lon="7.757548">
        <ele>335.781113</ele>
        <time>2021-11-22T12:18:41.934Z</time>
      </trkpt>
      <trkpt lat="47.539722" lon="7.758107">
        <ele>336.064046</ele>
        <time>2021-11-22T12:18:50.941Z</time>
      </trkpt>
      <trkpt lat="47.539949" lon="7.758688">
        <ele>336.386066</ele>
        <time>2021-11-22T12:18:58.154Z</time>
      </trkpt>
      <trkpt lat="47.540447" lon="7.759585">
        <ele>335.793225</ele>
        <time>2021-11-22T12:19:06.677Z</time>
      </trkpt>
      <trkpt lat="47.540567" lon="7.759901">
        <ele>334.460508</ele>
        <time>2021-11-22T12:19:09.064Z</time>
      </trkpt>
      <trkpt lat="47.540921" lon="7.761599">
        <ele>327.928185</ele>
        <time>2021-11-22T12:19:20.186Z</time>
      </trkpt>
      <trkpt lat="47.541004" lon="7.762306">
        <ele>324.017231</ele>
        <time>2021-11-22T12:19:24.407Z</time>
      </trkpt>
      <trkpt lat="47.541023" lon="7.762922">
        <ele>320.078911</ele>
        <time>2021-11-22T12:19:27.990Z</time>
      </trkpt>
      <trkpt lat="47.541219" lon="7.763853">
        <ele>313.850451</ele>
        <time>2021-11-22T12:19:33.613Z</time>
      </trkpt>
      <trkpt lat="47.541334" lon="7.764020">
        <ele>312.326856</ele>
        <time>2021-11-22T12:19:35.080Z</time>
      </trkpt>
      <trkpt lat="47.541377" lon="7.764045">
        <ele>311.889825</ele>
        <time>2021-11-22T12:19:35.453Z</time>
      </trkpt>
      <trkpt lat="47.541364" lon="7.764150">
        <ele>311.208039</ele>
        <time>2021-11-22T12:19:36.064Z</time>
      </trkpt>
      <trkpt lat="47.541443" lon="7.764512">
        <ele>309.244750</ele>
        <time>2021-11-22T12:19:38.375Z</time>
      </trkpt>
      <trkpt lat="47.541552" lon="7.764869">
        <ele>307.697914</ele>
        <time>2021-11-22T12:19:40.668Z</time>
      </trkpt>
      <trkpt lat="47.541697" lon="7.765479">
        <ele>305.144795</ele>
        <time>2021-11-22T12:19:44.550Z</time>
      </trkpt>
      <trkpt lat="47.542317" lon="7.768533">
        <ele>296.785725</ele>
        <time>2021-11-22T12:20:06.024Z</time>
      </trkpt>
      <trkpt lat="47.542450" lon="7.769311">
        <ele>295.552770</ele>
        <time>2021-11-22T12:20:13.732Z</time>
      </trkpt>
      <trkpt lat="47.542720" lon="7.770771">
        <ele>295.716885</ele>
        <time>2021-11-22T12:20:30.203Z</time>
      </trkpt>
      <trkpt lat="47.542927" lon="7.771997">
        <ele>296.011971</ele>
        <time>2021-11-22T12:20:45.048Z</time>
      </trkpt>
      <trkpt lat="47.542963" lon="7.772212">
        <ele>296.036418</ele>
        <time>2021-11-22T12:20:47.509Z</time>
      </trkpt>
      <trkpt lat="47.543108" lon="7.773069">
        <ele>296.133923</ele>
        <time>2021-11-22T12:20:57.070Z</time>
      </trkpt>
      <trkpt lat="47.543145" lon="7.773277">
        <ele>296.157662</ele>
        <time>2021-11-22T12:20:59.175Z</time>
      </trkpt>
      <trkpt lat="47.543350" lon="7.774507">
        <ele>296.297481</ele>
        <time>2021-11-22T12:21:11.677Z</time>
      </trkpt>
      <trkpt lat="47.543402" lon="7.775016">
        <ele>296.503849</ele>
        <time>2021-11-22T12:21:16.777Z</time>
      </trkpt>
      <trkpt lat="47.543449" lon="7.775478">
        <ele>296.713150</ele>
        <time>2021-11-22T12:21:21.478Z</time>
      </trkpt>
      <trkpt lat="47.543482" lon="7.776095">
        <ele>296.990415</ele>
        <time>2021-11-22T12:21:28.186Z</time>
      </trkpt>
      <trkpt lat="47.543527" lon="7.776532">
        <ele>297.188444</ele>
        <time>2021-11-22T12:21:33.345Z</time>
      </trkpt>
      <trkpt lat="47.543707" lon="7.777394">
        <ele>298.045908</ele>
        <time>2021-11-22T12:21:45.631Z</time>
      </trkpt>
      <trkpt lat="47.543933" lon="7.778374">
        <ele>300.756320</ele>
        <time>2021-11-22T12:22:03.958Z</time>
      </trkpt>
      <trkpt lat="47.544100" lon="7.779438">
        <ele>303.615304</ele>
        <time>2021-11-22T12:22:28.159Z</time>
      </trkpt>
      <trkpt lat="47.544461" lon="7.782254">
        <ele>314.279686</ele>
        <time>2021-11-22T12:23:48.760Z</time>
      </trkpt>
      <trkpt lat="47.544469" lon="7.782455">
        <ele>314.654059</ele>
        <time>2021-11-22T12:23:53.794Z</time>
      </trkpt>
      <trkpt lat="47.544474" lon="7.782623">
        <ele>314.404962</ele>
        <time>2021-11-22T12:23:56.181Z</time>
      </trkpt>
      <trkpt lat="47.544490" lon="7.783060">
        <ele>313.756692</ele>
        <time>2021-11-22T12:24:00.073Z</time>
      </trkpt>
      <trkpt lat="47.544555" lon="7.783372">
        <ele>313.273022</ele>
        <time>2021-11-22T12:24:02.558Z</time>
      </trkpt>
      <trkpt lat="47.544627" lon="7.783499">
        <ele>313.027352</ele>
        <time>2021-11-22T12:24:03.955Z</time>
      </trkpt>
      <trkpt lat="47.544950" lon="7.784008">
        <ele>311.992526</ele>
        <time>2021-11-22T12:24:10.767Z</time>
      </trkpt>
      <trkpt lat="47.545054" lon="7.784227">
        <ele>311.595893</ele>
        <time>2021-11-22T12:24:13.339Z</time>
      </trkpt>
      <trkpt lat="47.545240" lon="7.784746">
        <ele>310.581824</ele>
        <time>2021-11-22T12:24:18.494Z</time>
      </trkpt>
      <trkpt lat="47.545250" lon="7.784778">
        <ele>310.449247</ele>
        <time>2021-11-22T12:24:18.767Z</time>
      </trkpt>
      <trkpt lat="47.545624" lon="7.785548">
        <ele>306.882733</ele>
        <time>2021-11-22T12:24:26.931Z</time>
      </trkpt>
      <trkpt lat="47.545672" lon="7.785654">
        <ele>306.402840</ele>
        <time>2021-11-22T12:24:27.940Z</time>
      </trkpt>
      <trkpt lat="47.545856" lon="7.785973">
        <ele>304.825282</ele>
        <time>2021-11-22T12:24:31.780Z</time>
      </trkpt>
      <trkpt lat="47.546102" lon="7.786217">
        <ele>303.176371</ele>
        <time>2021-11-22T12:24:35.765Z</time>
      </trkpt>
      <trkpt lat="47.546417" lon="7.786331">
        <ele>301.370287</ele>
        <time>2021-11-22T12:24:40.339Z</time>
      </trkpt>
      <trkpt lat="47.546464" lon="7.786335">
        <ele>301.108073</ele>
        <time>2021-11-22T12:24:41.101Z</time>
      </trkpt>
      <trkpt lat="47.546526" lon="7.786353">
        <ele>300.795057</ele>
        <time>2021-11-22T12:24:42.098Z</time>
      </trkpt>
      <trkpt lat="47.546913" lon="7.786470">
        <ele>300.513690</ele>
        <time>2021-11-22T12:24:48.256Z</time>
      </trkpt>
      <trkpt lat="47.546952" lon="7.786540">
        <ele>300.470046</ele>
        <time>2021-11-22T12:24:49.194Z</time>
      </trkpt>
      <trkpt lat="47.546959" lon="7.786598">
        <ele>300.441715</ele>
        <time>2021-11-22T12:24:49.895Z</time>
      </trkpt>
      <trkpt lat="47.546897" lon="7.787133">
        <ele>300.180703</ele>
        <time>2021-11-22T12:24:57.053Z</time>
      </trkpt>
      <trkpt lat="47.546796" lon="7.787942">
        <ele>299.785107</ele>
        <time>2021-11-22T12:25:08.583Z</time>
      </trkpt>
      <trkpt lat="47.546695" lon="7.788763">
        <ele>299.684392</ele>
        <time>2021-11-22T12:25:20.588Z</time>
      </trkpt>
      <trkpt lat="47.546673" lon="7.788921">
        <ele>299.778720</ele>
        <time>2021-11-22T12:25:23.181Z</time>
      </trkpt>
      <trkpt lat="47.546422" lon="7.790763">
        <ele>300.877467</ele>
        <time>2021-11-22T12:25:53.508Z</time>
      </trkpt>
      <trkpt lat="47.546253" lon="7.791998">
        <ele>301.447033</ele>
        <time>2021-11-22T12:26:15.459Z</time>
      </trkpt>
      <trkpt lat="47.546027" lon="7.793254">
        <ele>301.970268</ele>
        <time>2021-11-22T12:26:35.333Z</time>
      </trkpt>
      <trkpt lat="47.545969" lon="7.793663">
        <ele>302.138498</ele>
        <time>2021-11-22T12:26:40.538Z</time>
      </trkpt>
      <trkpt lat="47.545935" lon="7.794235">
        <ele>302.002605</ele>
        <time>2021-11-22T12:26:47.527Z</time>
      </trkpt>
      <trkpt lat="47.545921" lon="7.794468">
        <ele>301.939323</ele>
        <time>2021-11-22T12:26:50.413Z</time>
      </trkpt>
      <trkpt lat="47.545947" lon="7.794710">
        <ele>301.873031</ele>
        <time>2021-11-22T12:26:53.248Z</time>
      </trkpt>
      <trkpt lat="47.546019" lon="7.795020">
        <ele>301.784342</ele>
        <time>2021-11-22T12:26:57.272Z</time>
      </trkpt>
      <trkpt lat="47.546165" lon="7.795511">
        <ele>301.639196</ele>
        <time>2021-11-22T12:27:04.185Z</time>
      </trkpt>
      <trkpt lat="47.546170" lon="7.795612">
        <ele>301.611799</ele>
        <time>2021-11-22T12:27:05.228Z</time>
      </trkpt>
      <trkpt lat="47.546154" lon="7.795747">
        <ele>301.574720</ele>
        <time>2021-11-22T12:27:07.085Z</time>
      </trkpt>
      <trkpt lat="47.546105" lon="7.795928">
        <ele>301.521963</ele>
        <time>2021-11-22T12:27:10.227Z</time>
      </trkpt>
      <trkpt lat="47.546038" lon="7.796107">
        <ele>301.466592</ele>
        <time>2021-11-22T12:27:12.533Z</time>
      </trkpt>
      <trkpt lat="47.545889" lon="7.796500">
        <ele>301.440625</ele>
        <time>2021-11-22T12:27:19.418Z</time>
      </trkpt>
      <trkpt lat="47.545788" lon="7.796748">
        <ele>301.451145</ele>
        <time>2021-11-22T12:27:23.077Z</time>
      </trkpt>
      <trkpt lat="47.545728" lon="7.796950">
        <ele>301.459161</ele>
        <time>2021-11-22T12:27:26.398Z</time>
      </trkpt>
      <trkpt lat="47.545689" lon="7.797076">
        <ele>301.464196</ele>
        <time>2021-11-22T12:27:27.841Z</time>
      </trkpt>
      <trkpt lat="47.545689" lon="7.797076">
        <ele>301.464196</ele>
        <time>2021-11-22T12:27:27.878Z</time>
      </trkpt>
      <trkpt lat="47.545670" lon="7.797142">
        <ele>301.466802</ele>
        <time>2021-11-22T12:27:28.939Z</time>
      </trkpt>
      <trkpt lat="47.545645" lon="7.797258">
        <ele>301.471225</ele>
        <time>2021-11-22T12:27:30.703Z</time>
      </trkpt>
      <trkpt lat="47.545637" lon="7.797310">
        <ele>301.473162</ele>
        <time>2021-11-22T12:27:32.050Z</time>
      </trkpt>
      <trkpt lat="47.545558" lon="7.798144">
        <ele>301.503751</ele>
        <time>2021-11-22T12:27:43.327Z</time>
      </trkpt>
      <trkpt lat="47.545511" lon="7.798680">
        <ele>301.523384</ele>
        <time>2021-11-22T12:27:51.397Z</time>
      </trkpt>
      <trkpt lat="47.545581" lon="7.798713">
        <ele>301.515449</ele>
        <time>2021-11-22T12:27:52.908Z</time>
      </trkpt>
      <trkpt lat="47.545731" lon="7.798810">
        <ele>301.442900</ele>
        <time>2021-11-22T12:27:56.913Z</time>
      </trkpt>
      <trkpt lat="47.545807" lon="7.798846">
        <ele>301.407532</ele>
        <time>2021-11-22T12:27:58.241Z</time>
      </trkpt>
      <trkpt lat="47.546418" lon="7.798980">
        <ele>301.133745</ele>
        <time>2021-11-22T12:28:10.317Z</time>
      </trkpt>
      <trkpt lat="47.547540" lon="7.799538">
        <ele>300.653300</ele>
        <time>2021-11-22T12:28:30.958Z</time>
      </trkpt>
      <trkpt lat="47.547912" lon="7.799646">
        <ele>300.547308</ele>
        <time>2021-11-22T12:28:38.339Z</time>
      </trkpt>
      <trkpt lat="47.548459" lon="7.799691">
        <ele>300.394127</ele>
        <time>2021-11-22T12:28:49.277Z</time>
      </trkpt>
      <trkpt lat="47.548535" lon="7.799720">
        <ele>300.372184</ele>
        <time>2021-11-22T12:28:50.797Z</time>
      </trkpt>
      <trkpt lat="47.548514" lon="7.799795">
        <ele>300.356860</ele>
        <time>2021-11-22T12:28:51.861Z</time>
      </trkpt>
      <trkpt lat="47.548519" lon="7.799896">
        <ele>300.337747</ele>
        <time>2021-11-22T12:28:53.215Z</time>
      </trkpt>
      <trkpt lat="47.548545" lon="7.800404">
        <ele>300.241600</ele>
        <time>2021-11-22T12:29:00.006Z</time>
      </trkpt>
      <trkpt lat="47.548560" lon="7.800672">
        <ele>300.212841</ele>
        <time>2021-11-22T12:29:03.698Z</time>
      </trkpt>
      <trkpt lat="47.548569" lon="7.800838">
        <ele>300.201156</ele>
        <time>2021-11-22T12:29:05.942Z</time>
      </trkpt>
      <trkpt lat="47.548576" lon="7.800968">
        <ele>300.192005</ele>
        <time>2021-11-22T12:29:07.718Z</time>
      </trkpt>
      <trkpt lat="47.548596" lon="7.801213">
        <ele>300.174689</ele>
        <time>2021-11-22T12:29:11.097Z</time>
      </trkpt>
      <trkpt lat="47.548607" lon="7.801690">
        <ele>300.141199</ele>
        <time>2021-11-22T12:29:17.603Z</time>
      </trkpt>
      <trkpt lat="47.548626" lon="7.802129">
        <ele>300.110333</ele>
        <time>2021-11-22T12:29:23.521Z</time>
      </trkpt>
      <trkpt lat="47.548877" lon="7.802168">
        <ele>300.084096</ele>
        <time>2021-11-22T12:29:28.511Z</time>
      </trkpt>
      <trkpt lat="47.549410" lon="7.802226">
        <ele>300.004161</ele>
        <time>2021-11-22T12:29:38.928Z</time>
      </trkpt>
      <trkpt lat="47.549481" lon="7.802234">
        <ele>299.979305</ele>
        <time>2021-11-22T12:29:40.267Z</time>
      </trkpt>
      <trkpt lat="47.549879" lon="7.802247">
        <ele>299.840337</ele>
        <time>2021-11-22T12:29:47.728Z</time>
      </trkpt>
      <trkpt lat="47.549879" lon="7.802247">
        <ele>299.840337</ele>
        <time>2021-11-22T12:29:47.732Z</time>
      </trkpt>
      <trkpt lat="47.550146" lon="7.802262">
        <ele>299.747065</ele>
        <time>2021-11-22T12:29:52.811Z</time>
      </trkpt>
      <trkpt lat="47.550134" lon="7.803051">
        <ele>299.561120</ele>
        <time>2021-11-22T12:30:03.032Z</time>
      </trkpt>
      <trkpt lat="47.550196" lon="7.803120">
        <ele>299.534052</ele>
        <time>2021-11-22T12:30:04.492Z</time>
      </trkpt>
      <trkpt lat="47.550981" lon="7.803132">
        <ele>299.475633</ele>
        <time>2021-11-22T12:30:19.136Z</time>
      </trkpt>
      <trkpt lat="47.551163" lon="7.803129">
        <ele>299.502829</ele>
        <time>2021-11-22T12:30:22.539Z</time>
      </trkpt>
      <trkpt lat="47.551598" lon="7.803160">
        <ele>299.567901</ele>
        <time>2021-11-22T12:30:31.131Z</time>
      </trkpt>
      <trkpt lat="47.551666" lon="7.803144">
        <ele>299.578189</ele>
        <time>2021-11-22T12:30:35.876Z</time>
      </trkpt>
      <trkpt lat="47.551732" lon="7.803125">
        <ele>299.588235</ele>
        <time>2021-11-22T12:30:40.543Z</time>
      </trkpt>
      <trkpt lat="47.551744" lon="7.803277">
        <ele>299.603668</ele>
        <time>2021-11-22T12:30:42.237Z</time>
      </trkpt>
      <trkpt lat="47.551751" lon="7.803369">
        <ele>299.613005</ele>
        <time>2021-11-22T12:30:43.311Z</time>
      </trkpt>
      <trkpt lat="47.551692" lon="7.803510">
        <ele>299.629735</ele>
        <time>2021-11-22T12:30:45.905Z</time>
      </trkpt>
      <trkpt lat="47.551741" lon="7.804294">
        <ele>299.824210</ele>
        <time>2021-11-22T12:30:58.922Z</time>
      </trkpt>
      <trkpt lat="47.551744" lon="7.804473">
        <ele>299.912983</ele>
        <time>2021-11-22T12:31:01.442Z</time>
      </trkpt>
      <trkpt lat="47.551731" lon="7.804667">
        <ele>300.009639</ele>
        <time>2021-11-22T12:31:05.422Z</time>
      </trkpt>
      <trkpt lat="47.551709" lon="7.805000">
        <ele>300.175524</ele>
        <time>2021-11-22T12:31:09.914Z</time>
      </trkpt>
      <trkpt lat="47.551681" lon="7.805477">
        <ele>300.412907</ele>
        <time>2021-11-22T12:31:17.650Z</time>
      </trkpt>
      <trkpt lat="47.551671" lon="7.806117">
        <ele>300.730295</ele>
        <time>2021-11-22T12:31:27.739Z</time>
      </trkpt>
      <trkpt lat="47.551651" lon="7.806246">
        <ele>300.795917</ele>
        <time>2021-11-22T12:31:30.642Z</time>
      </trkpt>
      <trkpt lat="47.551895" lon="7.806278">
        <ele>300.975855</ele>
        <time>2021-11-22T12:31:34.168Z</time>
      </trkpt>
      <trkpt lat="47.552015" lon="7.806307">
        <ele>300.975573</ele>
        <time>2021-11-22T12:31:37.038Z</time>
      </trkpt>
      <trkpt lat="47.552068" lon="7.806445">
        <ele>300.944383</ele>
        <time>2021-11-22T12:31:38.495Z</time>
      </trkpt>
      <trkpt lat="47.552398" lon="7.808880">
        <ele>300.428739</ele>
        <time>2021-11-22T12:32:00.638Z</time>
      </trkpt>
      <trkpt lat="47.552566" lon="7.810386">
        <ele>299.732214</ele>
        <time>2021-11-22T12:32:13.649Z</time>
      </trkpt>
      <trkpt lat="47.552711" lon="7.812955">
        <ele>298.598068</ele>
        <time>2021-11-22T12:32:36.257Z</time>
      </trkpt>
      <trkpt lat="47.552844" lon="7.816432">
        <ele>297.367097</ele>
        <time>2021-11-22T12:33:06.750Z</time>
      </trkpt>
      <trkpt lat="47.552948" lon="7.819358">
        <ele>297.723144</ele>
        <time>2021-11-22T12:33:37.980Z</time>
      </trkpt>
      <trkpt lat="47.552896" lon="7.820699">
        <ele>298.356105</ele>
        <time>2021-11-22T12:33:54.064Z</time>
      </trkpt>
      <trkpt lat="47.552567" lon="7.824508">
        <ele>300.253212</ele>
        <time>2021-11-22T12:34:40.549Z</time>
      </trkpt>
      <trkpt lat="47.552491" lon="7.827227">
        <ele>301.585422</ele>
        <time>2021-11-22T12:35:12.289Z</time>
      </trkpt>
      <trkpt lat="47.552515" lon="7.828094">
        <ele>302.485158</ele>
        <time>2021-11-22T12:35:23.999Z</time>
      </trkpt>
      <trkpt lat="47.552477" lon="7.828294">
        <ele>302.720047</ele>
        <time>2021-11-22T12:35:26.616Z</time>
      </trkpt>
      <trkpt lat="47.552421" lon="7.828481">
        <ele>302.951327</ele>
        <time>2021-11-22T12:35:29.547Z</time>
      </trkpt>
      <trkpt lat="47.552404" lon="7.828582">
        <ele>303.069005</ele>
        <time>2021-11-22T12:35:31.231Z</time>
      </trkpt>
      <trkpt lat="47.552416" lon="7.828822">
        <ele>303.341070</ele>
        <time>2021-11-22T12:35:34.465Z</time>
      </trkpt>
      <trkpt lat="47.552554" lon="7.829266">
        <ele>303.893681</ele>
        <time>2021-11-22T12:35:41.817Z</time>
      </trkpt>
      <trkpt lat="47.552645" lon="7.830686">
        <ele>306.112532</ele>
        <time>2021-11-22T12:36:05.123Z</time>
      </trkpt>
      <trkpt lat="47.552690" lon="7.832598">
        <ele>309.825136</ele>
        <time>2021-11-22T12:36:40.600Z</time>
      </trkpt>
      <trkpt lat="47.552616" lon="7.832891">
        <ele>310.399124</ele>
        <time>2021-11-22T12:36:45.964Z</time>
      </trkpt>
      <trkpt lat="47.552556" lon="7.832977">
        <ele>310.625922</ele>
        <time>2021-11-22T12:36:48.695Z</time>
      </trkpt>
      <trkpt lat="47.552511" lon="7.833072">
        <ele>310.838736</ele>
        <time>2021-11-22T12:36:50.721Z</time>
      </trkpt>
      <trkpt lat="47.552467" lon="7.833198">
        <ele>311.098863</ele>
        <time>2021-11-22T12:36:53.123Z</time>
      </trkpt>
      <trkpt lat="47.552452" lon="7.833284">
        <ele>311.261734</ele>
        <time>2021-11-22T12:36:54.733Z</time>
      </trkpt>
      <trkpt lat="47.552696" lon="7.833789">
        <ele>312.400529</ele>
        <time>2021-11-22T12:37:05.765Z</time>
      </trkpt>
      <trkpt lat="47.552700" lon="7.833938">
        <ele>312.673952</ele>
        <time>2021-11-22T12:37:08.709Z</time>
      </trkpt>
      <trkpt lat="47.552714" lon="7.835010">
        <ele>314.639937</ele>
        <time>2021-11-22T12:37:27.186Z</time>
      </trkpt>
      <trkpt lat="47.552719" lon="7.836790">
        <ele>316.648805</ele>
        <time>2021-11-22T12:37:52.470Z</time>
      </trkpt>
      <trkpt lat="47.552697" lon="7.838068">
        <ele>318.045012</ele>
        <time>2021-11-22T12:38:10.112Z</time>
      </trkpt>
      <trkpt lat="47.552736" lon="7.838578">
        <ele>318.579625</ele>
        <time>2021-11-22T12:38:17.239Z</time>
      </trkpt>
      <trkpt lat="47.552802" lon="7.839009">
        <ele>319.039963</ele>
        <time>2021-11-22T12:38:23.457Z</time>
      </trkpt>
      <trkpt lat="47.552939" lon="7.839526">
        <ele>319.618487</ele>
        <time>2021-11-22T12:38:31.247Z</time>
      </trkpt>
      <trkpt lat="47.553231" lon="7.841529">
        <ele>321.690274</ele>
        <time>2021-11-22T12:39:01.377Z</time>
      </trkpt>
      <trkpt lat="47.553216" lon="7.841849">
        <ele>322.008255</ele>
        <time>2021-11-22T12:39:05.901Z</time>
      </trkpt>
      <trkpt lat="47.553123" lon="7.842222">
        <ele>322.402436</ele>
        <time>2021-11-22T12:39:11.131Z</time>
      </trkpt>
      <trkpt lat="47.553133" lon="7.842431">
        <ele>322.610139</ele>
        <time>2021-11-22T12:39:14.260Z</time>
      </trkpt>
      <trkpt lat="47.552833" lon="7.842495">
        <ele>323.055324</ele>
        <time>2021-11-22T12:39:21.569Z</time>
      </trkpt>
      <trkpt lat="47.552380" lon="7.842592">
        <ele>323.467767</ele>
        <time>2021-11-22T12:39:32.617Z</time>
      </trkpt>
      <trkpt lat="47.551922" lon="7.842704">
        <ele>323.868470</ele>
        <time>2021-11-22T12:39:43.184Z</time>
      </trkpt>
      <trkpt lat="47.551668" lon="7.842770">
        <ele>324.091074</ele>
        <time>2021-11-22T12:39:49.142Z</time>
      </trkpt>
      <trkpt lat="47.551454" lon="7.842815">
        <ele>324.277654</ele>
        <time>2021-11-22T12:39:53.965Z</time>
      </trkpt>
      <trkpt lat="47.551344" lon="7.844621">
        <ele>325.540982</ele>
        <time>2021-11-22T12:40:16.879Z</time>
      </trkpt>
      <trkpt lat="47.551299" lon="7.845295">
        <ele>326.054893</ele>
        <time>2021-11-22T12:40:26.086Z</time>
      </trkpt>
      <trkpt lat="47.551205" lon="7.846694">
        <ele>327.266155</ele>
        <time>2021-11-22T12:40:44.865Z</time>
      </trkpt>
      <trkpt lat="47.551184" lon="7.847206">
        <ele>327.780453</ele>
        <time>2021-11-22T12:40:52.255Z</time>
      </trkpt>
      <trkpt lat="47.551196" lon="7.847517">
        <ele>328.092783</ele>
        <time>2021-11-22T12:40:56.758Z</time>
      </trkpt>
      <trkpt lat="47.551669" lon="7.848083">
        <ele>328.995987</ele>
        <time>2021-11-22T12:41:09.449Z</time>
      </trkpt>
      <trkpt lat="47.551242" lon="7.848702">
        <ele>329.843287</ele>
        <time>2021-11-22T12:41:21.950Z</time>
      </trkpt>
      <trkpt lat="47.550975" lon="7.849066">
        <ele>330.342173</ele>
        <time>2021-11-22T12:41:29.255Z</time>
      </trkpt>
      <trkpt lat="47.550810" lon="7.849346">
        <ele>330.687125</ele>
        <time>2021-11-22T12:41:35.643Z</time>
      </trkpt>
      <trkpt lat="47.550488" lon="7.850081">
        <ele>331.500321</ele>
        <time>2021-11-22T12:41:51.113Z</time>
      </trkpt>
      <trkpt lat="47.550333" lon="7.850434">
        <ele>331.841990</ele>
        <time>2021-11-22T12:41:58.446Z</time>
      </trkpt>
      <trkpt lat="47.550219" lon="7.850696">
        <ele>331.939062</ele>
        <time>2021-11-22T12:42:03.732Z</time>
      </trkpt>
      <trkpt lat="47.550009" lon="7.851173">
        <ele>332.116409</ele>
        <time>2021-11-22T12:42:13.037Z</time>
      </trkpt>
      <trkpt lat="47.549652" lon="7.851969">
        <ele>332.414023</ele>
        <time>2021-11-22T12:42:26.913Z</time>
      </trkpt>
      <trkpt lat="47.549535" lon="7.852225">
        <ele>332.510300</ele>
        <time>2021-11-22T12:42:30.974Z</time>
      </trkpt>
      <trkpt lat="47.549285" lon="7.852784">
        <ele>332.578197</ele>
        <time>2021-11-22T12:42:39.611Z</time>
      </trkpt>
      <trkpt lat="47.549708" lon="7.853279">
        <ele>332.340799</ele>
        <time>2021-11-22T12:42:50.015Z</time>
      </trkpt>
      <trkpt lat="47.550221" lon="7.853833">
        <ele>332.061218</ele>
        <time>2021-11-22T12:43:01.937Z</time>
      </trkpt>
      <trkpt lat="47.549883" lon="7.854434">
        <ele>331.827904</ele>
        <time>2021-11-22T12:43:08.615Z</time>
      </trkpt>
      <trkpt lat="47.549566" lon="7.855225">
        <ele>331.546399</ele>
        <time>2021-11-22T12:43:19.759Z</time>
      </trkpt>
      <trkpt lat="47.549362" lon="7.855774">
        <ele>331.354623</ele>
        <time>2021-11-22T12:43:27.681Z</time>
      </trkpt>
      <trkpt lat="47.548887" lon="7.857308">
        <ele>331.166603</ele>
        <time>2021-11-22T12:43:49.789Z</time>
      </trkpt>
      <trkpt lat="47.548743" lon="7.857692">
        <ele>331.251571</ele>
        <time>2021-11-22T12:43:55.761Z</time>
      </trkpt>
      <trkpt lat="47.548701" lon="7.857893">
        <ele>331.292269</ele>
        <time>2021-11-22T12:43:58.732Z</time>
      </trkpt>
      <trkpt lat="47.548686" lon="7.857973">
        <ele>331.308329</ele>
        <time>2021-11-22T12:43:59.855Z</time>
      </trkpt>
      <trkpt lat="47.548611" lon="7.858381">
        <ele>331.390120</ele>
        <time>2021-11-22T12:44:06.069Z</time>
      </trkpt>
      <trkpt lat="47.548334" lon="7.859801">
        <ele>332.123764</ele>
        <time>2021-11-22T12:44:29.107Z</time>
      </trkpt>
      <trkpt lat="47.548049" lon="7.860929">
        <ele>333.217474</ele>
        <time>2021-11-22T12:44:50.125Z</time>
      </trkpt>
      <trkpt lat="47.547930" lon="7.861711">
        <ele>333.945408</ele>
        <time>2021-11-22T12:45:04.889Z</time>
      </trkpt>
      <trkpt lat="47.547568" lon="7.863151">
        <ele>335.450247</ele>
        <time>2021-11-22T12:45:34.016Z</time>
      </trkpt>
      <trkpt lat="47.547320" lon="7.863864">
        <ele>336.236980</ele>
        <time>2021-11-22T12:45:47.957Z</time>
      </trkpt>
      <trkpt lat="47.546974" lon="7.864423">
        <ele>336.498821</ele>
        <time>2021-11-22T12:45:58.780Z</time>
      </trkpt>
      <trkpt lat="47.546885" lon="7.864500">
        <ele>336.464682</ele>
        <time>2021-11-22T12:46:01.865Z</time>
      </trkpt>
      <trkpt lat="47.546894" lon="7.864837">
        <ele>336.389277</ele>
        <time>2021-11-22T12:46:05.749Z</time>
      </trkpt>
      <trkpt lat="47.546889" lon="7.865225">
        <ele>336.302512</ele>
        <time>2021-11-22T12:46:11.174Z</time>
      </trkpt>
      <trkpt lat="47.546819" lon="7.865489">
        <ele>336.239096</ele>
        <time>2021-11-22T12:46:15.118Z</time>
      </trkpt>
      <trkpt lat="47.546510" lon="7.865766">
        <ele>336.119465</ele>
        <time>2021-11-22T12:46:21.752Z</time>
      </trkpt>
      <trkpt lat="47.546327" lon="7.865959">
        <ele>336.045058</ele>
        <time>2021-11-22T12:46:25.267Z</time>
      </trkpt>
      <trkpt lat="47.546096" lon="7.866147">
        <ele>335.948310</ele>
        <time>2021-11-22T12:46:29.823Z</time>
      </trkpt>
      <trkpt lat="47.545240" lon="7.866887">
        <ele>335.530859</ele>
        <time>2021-11-22T12:46:46.497Z</time>
      </trkpt>
      <trkpt lat="47.545160" lon="7.866985">
        <ele>335.487135</ele>
        <time>2021-11-22T12:46:48.453Z</time>
      </trkpt>
      <trkpt lat="47.545003" lon="7.867278">
        <ele>335.380772</ele>
        <time>2021-11-22T12:46:54.121Z</time>
      </trkpt>
      <trkpt lat="47.544568" lon="7.867693">
        <ele>335.234929</ele>
        <time>2021-11-22T12:47:06.912Z</time>
      </trkpt>
      <trkpt lat="47.544469" lon="7.867776">
        <ele>335.234929</ele>
        <time>2021-11-22T12:47:09.774Z</time>
      </trkpt>
      <trkpt lat="47.544410" lon="7.867825">
        <ele>335.234929</ele>
        <time>2021-11-22T12:47:11.862Z</time>
      </trkpt>
      <trkpt lat="47.544246" lon="7.867967">
        <ele>335.234929</ele>
        <time>2021-11-22T12:47:16.549Z</time>
      </trkpt>
      <trkpt lat="47.544214" lon="7.867988">
        <ele>335.234929</ele>
        <time>2021-11-22T12:47:17.398Z</time>
      </trkpt>
      <trkpt lat="47.543801" lon="7.868269">
        <ele>335.234929</ele>
        <time>2021-11-22T12:47:29.317Z</time>
      </trkpt>
      <trkpt lat="47.543657" lon="7.868359">
        <ele>335.234929</ele>
        <time>2021-11-22T12:47:33.677Z</time>
      </trkpt>
      <trkpt lat="47.543201" lon="7.868657">
        <ele>335.234929</ele>
        <time>2021-11-22T12:47:44.724Z</time>
      </trkpt>
      <trkpt lat="47.543105" lon="7.868711">
        <ele>335.234929</ele>
        <time>2021-11-22T12:47:47.405Z</time>
      </trkpt>
      <trkpt lat="47.543049" lon="7.868759">
        <ele>335.234929</ele>
        <time>2021-11-22T12:47:48.786Z</time>
      </trkpt>
      <trkpt lat="47.542830" lon="7.869055">
        <ele>335.234929</ele>
        <time>2021-11-22T12:47:55.789Z</time>
      </trkpt>
      <trkpt lat="47.542722" lon="7.869201">
        <ele>335.234929</ele>
        <time>2021-11-22T12:47:58.714Z</time>
      </trkpt>
      <trkpt lat="47.542696" lon="7.869257">
        <ele>335.234929</ele>
        <time>2021-11-22T12:47:59.460Z</time>
      </trkpt>
      <trkpt lat="47.542696" lon="7.869257">
        <ele>335.234929</ele>
        <time>2021-11-22T12:47:59.505Z</time>
      </trkpt>
    </trkseg>
  </trk>
</gpx>